GFSMA_sfc_wetblb_000.txt.gz
Wetbulb
71.62 73.01 71.81 72.43 71.83 72.31 71.19 71.28 70.48 70.78 70.89 71.09 71.83 71.46 71.34 71.10 69.89 70.56 73.09 76.43 76.18 76.31 77.05 76.94 76.85 75.91 75.51 75.00 74.44 73.82 74.32 74.07 73.47 73.49 73.72 74.14 74.27 73.81 73.99 72.86 72.99 73.64 73.67
71.71 72.34 71.34 70.94 70.71 71.07 71.67 71.31 70.82 70.48 70.21 70.31 70.66 71.09 71.11 71.04 70.81 69.37 72.85 73.46 76.70 76.26 76.70 77.96 77.65 77.30 75.96 75.42 75.01 74.66 75.39 75.86 75.29 74.55 74.81 74.48 74.30 74.71 74.23 74.17 74.31 74.18 74.54
72.39 71.52 70.32 69.78 70.10 70.74 70.78 70.70 70.05 69.85 69.24 70.14 69.38 70.18 70.35 70.34 70.59 69.91 70.64 73.27 73.94 76.84 76.20 76.92 77.92 77.56 77.54 76.31 75.86 76.38 76.38 75.93 75.94 75.68 75.24 75.12 75.35 75.60 75.53 75.50 75.43 75.10 75.00
72.59 71.26 69.42 69.49 70.44 70.14 70.03 68.81 67.69 67.44 67.46 67.85 67.71 67.80 68.02 68.72 69.78 70.03 70.35 71.43 73.12 73.98 75.52 76.06 76.20 77.50 77.75 76.99 77.33 76.97 76.76 76.55 76.45 76.10 75.73 75.53 75.35 75.05 75.31 75.56 75.53 75.03 74.93
72.54 71.09 69.54 70.40 70.19 68.91 68.30 68.00 67.62 67.08 66.87 66.97 67.58 67.64 67.06 66.92 68.43 70.74 70.01 70.32 71.18 72.68 72.80 74.95 75.06 75.68 77.23 77.21 77.73 77.74 77.38 76.58 76.28 76.46 76.48 76.16 76.03 75.76 75.41 74.88 74.78 74.71 74.75
72.83 72.56 70.21 70.29 70.05 69.24 68.52 68.23 67.60 67.01 67.01 66.81 68.43 68.96 67.80 67.96 68.09 67.98 68.63 69.82 70.13 71.28 72.89 73.05 72.92 73.76 75.45 76.60 77.05 77.76 77.80 77.18 76.58 76.66 76.51 76.06 75.80 75.75 75.35 75.25 74.90 74.90 74.94
72.04 70.98 70.70 70.15 69.98 68.63 68.21 68.27 67.24 66.52 65.86 66.43 65.22 64.33 64.83 66.57 66.34 67.42 68.31 68.41 69.25 70.24 70.48 72.12 72.47 72.44 73.58 74.69 75.02 76.10 77.71 77.78 77.31 76.86 76.88 75.95 75.68 75.55 75.39 75.13 74.65 75.10 75.15
72.10 71.40 70.76 69.98 69.03 68.14 66.84 66.30 66.01 65.48 65.70 66.70 64.14 61.40 58.93 61.17 63.42 65.32 66.40 67.53 68.24 68.74 69.05 70.22 70.51 72.07 71.75 71.67 73.14 74.81 75.11 76.74 77.58 77.36 76.89 76.58 75.97 75.69 75.44 74.84 74.41 74.62 74.62
68.20 68.70 67.86 66.60 66.43 66.35 65.45 65.50 65.70 64.99 63.77 65.07 65.11 62.42 58.81 56.56 60.37 62.58 63.94 65.28 66.30 67.15 67.69 68.40 69.40 70.34 71.12 71.61 73.24 73.88 74.78 73.62 75.21 77.23 77.23 76.51 75.95 75.61 75.44 75.11 74.59 74.01 73.86
67.00 66.85 66.46 67.01 66.86 66.12 65.45 65.79 67.71 65.97 64.84 62.85 63.99 65.50 63.44 62.60 58.55 57.85 61.49 62.90 64.46 64.85 65.83 66.93 68.88 69.54 69.07 68.36 70.52 72.17 73.61 73.58 74.10 75.16 76.91 77.18 76.46 76.10 75.87 75.34 74.81 74.27 73.79
65.46 66.41 67.83 66.75 65.74 65.34 64.92 65.77 64.97 64.72 64.73 63.82 62.91 62.41 61.68 61.63 60.56 58.39 56.28 58.84 61.43 62.97 64.73 66.02 67.08 68.16 68.84 67.78 67.13 68.83 71.79 72.79 73.21 74.08 74.80 75.87 76.63 77.14 77.06 76.48 75.67 75.17 74.81
64.92 66.91 66.30 64.88 65.16 64.37 64.70 64.66 64.90 64.39 64.10 63.86 63.06 62.02 60.70 59.00 58.56 58.00 56.72 57.30 58.52 61.03 63.04 64.14 65.26 66.43 68.36 68.54 69.51 70.98 72.06 71.27 71.03 72.27 72.89 73.91 74.85 75.97 77.59 77.59 77.09 76.38 75.83
63.07 63.40 63.79 63.66 61.97 62.78 64.25 64.79 64.28 63.16 63.47 62.96 61.89 61.10 61.28 60.62 60.51 59.71 58.31 57.14 57.15 59.22 60.28 62.73 63.87 65.51 66.52 68.70 70.47 72.16 72.20 71.24 69.87 68.88 68.91 70.25 72.07 73.78 74.64 76.46 77.16 77.26 77.14
62.99 63.34 62.98 63.08 63.31 63.44 64.65 64.75 63.82 62.88 63.62 63.19 62.38 62.19 61.59 60.49 59.99 59.20 58.31 56.26 53.98 54.11 55.47 56.31 59.45 60.94 63.28 63.09 66.22 70.01 71.13 69.89 69.03 67.97 67.61 68.02 69.35 70.86 72.60 73.23 74.63 75.68 75.83
63.43 63.05 63.55 63.28 63.56 64.67 63.86 63.97 63.86 63.82 62.96 62.55 62.54 62.62 61.45 60.88 59.52 59.02 57.66 57.57 54.60 49.31 50.10 54.10 54.75 58.34 59.84 60.75 63.59 65.56 67.97 69.76 68.63 68.09 67.13 66.77 67.37 68.99 70.68 71.45 71.54 72.49 72.85
62.93 62.91 63.15 63.46 63.57 63.87 63.66 63.07 62.37 62.35 62.34 61.92 62.36 62.55 61.50 60.21 59.23 58.76 57.74 56.28 55.42 53.99 51.17 53.61 54.61 56.87 58.27 59.80 61.93 64.18 66.45 68.77 68.98 67.73 66.79 66.19 66.39 67.80 68.88 69.97 70.27 70.57 71.24
63.71 64.61 64.55 64.15 63.33 62.89 63.56 63.42 63.07 62.85 62.26 61.94 61.95 61.72 61.45 60.38 58.16 58.48 57.71 56.28 55.12 54.77 54.15 54.21 54.38 56.51 56.37 56.92 58.61 60.97 64.19 66.51 68.47 67.38 66.77 65.97 65.29 66.14 67.04 68.16 68.56 68.93 69.84
62.94 62.61 62.74 62.61 62.77 63.36 63.69 63.02 62.78 62.86 62.02 61.43 61.36 60.61 60.66 61.65 58.20 58.10 57.14 56.22 55.40 55.18 55.60 53.66 55.01 55.38 55.81 56.86 57.78 59.02 61.35 65.03 67.10 68.11 66.61 65.41 64.95 64.68 65.21 65.90 66.37 66.82 67.11
62.14 62.23 61.29 60.71 61.89 62.31 62.27 62.90 62.76 62.96 62.36 62.02 61.65 60.22 59.88 59.77 58.41 57.46 57.18 56.88 56.62 57.02 55.80 56.04 55.85 56.16 55.96 56.23 57.23 58.88 59.59 61.18 65.45 67.58 65.88 65.20 65.32 64.76 63.90 63.32 63.51 63.40 62.84
62.00 61.61 61.56 62.41 62.64 62.28 62.32 62.46 62.77 62.61 61.96 61.53 60.86 60.60 60.72 59.49 59.07 57.91 57.26 57.44 56.60 55.14 54.75 55.78 55.64 55.19 54.91 56.18 57.06 56.76 56.85 59.45 60.97 65.96 67.94 67.03 66.20 65.70 64.26 62.46 62.69 63.10 61.07
62.46 62.13 62.66 62.70 62.48 62.43 63.69 62.92 62.89 61.95 60.92 60.37 61.01 60.98 60.70 61.23 62.46 60.27 58.75 57.80 56.28 55.22 56.28 56.52 55.01 54.38 54.00 54.29 54.80 56.61 56.88 57.77 58.99 61.47 64.63 66.96 66.90 66.34 65.83 63.70 64.99 64.61 61.90
62.07 62.18 62.53 62.42 61.19 62.95 62.30 62.29 61.13 58.91 58.78 58.78 58.32 58.59 59.06 62.17 61.93 62.71 62.00 61.89 59.88 55.70 55.52 55.30 54.46 53.95 54.42 55.58 56.22 56.05 56.24 55.54 54.79 60.32 63.31 65.74 66.36 65.01 65.71 66.46 65.60 64.04 62.11
61.78 61.98 62.31 60.92 61.50 61.65 60.64 59.88 62.75 58.22 56.80 56.54 56.67 57.20 58.51 60.74 61.35 59.56 59.97 60.43 59.85 60.23 60.02 56.14 54.98 55.33 55.41 56.27 56.24 55.84 56.08 55.88 55.78 58.72 60.58 61.87 67.06 66.19 67.02 67.71 64.05 62.56 61.51
62.76 62.38 61.07 61.98 61.85 61.22 60.23 59.03 60.85 57.62 57.00 56.83 57.65 57.71 56.92 57.71 57.95 57.92 56.42 54.46 54.42 55.35 55.77 56.41 56.04 56.89 57.33 57.25 56.93 56.88 56.60 56.84 57.37 58.81 60.89 59.53 65.34 66.60 67.98 68.70 64.34 62.99 61.25
62.01 62.06 62.67 62.46 60.63 61.06 58.78 57.61 58.08 57.12 56.58 55.96 55.05 56.60 57.16 56.52 56.83 55.99 53.72 52.95 52.95 54.01 57.19 57.12 56.98 56.99 57.07 57.11 57.59 57.26 56.32 55.36 54.32 55.78 59.75 61.16 63.95 65.33 66.72 67.52 68.09 63.15 60.32
62.63 63.93 62.97 62.35 59.69 60.51 57.22 55.78 56.50 56.32 53.97 53.20 55.09 55.79 56.61 54.60 53.18 52.74 52.02 51.67 53.38 54.62 54.33 54.59 55.52 56.19 57.02 57.02 57.98 58.16 56.94 55.22 55.30 55.90 59.52 62.24 64.63 65.46 62.23 65.95 68.07 64.84 63.42

GFSMA_sfc_wetblb_003.txt.gz
Wetbulb
69.90 70.82 71.07 71.17 70.35 70.82 70.25 70.08 69.90 69.94 69.73 69.83 70.25 70.78 70.51 70.50 70.91 69.53 71.38 75.59 76.13 76.41 76.05 76.64 76.54 75.75 74.90 74.68 74.59 74.47 74.06 73.47 73.63 73.87 74.03 73.23 73.53 74.20 73.80 72.42 72.76 72.93 72.90
70.40 71.16 70.19 70.12 69.55 70.19 69.98 70.39 69.65 69.20 68.93 69.31 69.34 69.57 69.35 69.83 70.37 69.94 69.33 72.30 76.51 76.94 76.84 76.41 76.81 76.36 75.31 74.71 74.88 74.39 75.19 74.97 74.78 74.39 74.82 74.56 74.62 74.85 73.71 73.19 72.98 73.37 74.48
71.06 70.68 69.74 68.48 68.95 69.54 69.26 69.29 68.25 67.38 67.33 67.89 67.62 68.74 68.52 68.78 69.06 69.89 69.54 70.76 73.00 76.10 77.10 76.92 76.53 76.15 76.56 75.66 75.26 75.41 75.44 75.35 76.00 75.40 74.88 74.86 74.91 74.61 74.81 74.76 74.79 74.77 74.62
71.89 70.48 68.50 68.73 69.33 68.82 68.73 67.80 66.54 66.20 66.27 66.16 66.04 66.65 66.88 67.40 67.60 68.85 69.64 69.80 71.43 73.40 75.14 76.84 76.41 75.83 76.18 76.47 76.32 76.47 76.14 75.83 75.66 75.94 75.59 75.37 75.32 75.14 75.37 75.55 75.14 75.09 75.09
71.95 70.42 68.18 68.61 68.66 68.37 67.73 66.86 65.96 65.57 65.16 65.39 66.08 66.61 66.65 66.65 67.15 68.90 68.26 68.73 69.14 71.47 72.41 74.45 75.38 75.37 75.80 76.18 76.94 76.44 76.50 76.36 76.07 76.25 76.07 75.74 75.60 75.37 75.07 74.94 75.02 75.21 75.31
71.61 70.74 70.53 69.72 69.25 68.05 67.06 66.33 65.81 65.39 65.12 65.18 66.77 67.06 66.22 66.40 66.76 66.90 67.47 68.59 68.69 69.20 71.04 72.10 72.05 72.43 74.88 75.94 75.95 75.75 76.84 76.51 76.32 76.40 76.22 76.05 75.82 75.54 75.16 74.99 74.69 74.61 74.51
71.58 70.21 69.52 69.13 68.77 67.58 66.99 66.97 65.98 65.10 64.98 65.01 63.93 63.48 63.48 63.51 64.10 65.08 66.66 67.35 67.89 68.92 69.83 71.03 71.39 71.14 72.32 74.38 74.78 75.12 75.76 77.08 76.41 76.45 76.45 75.67 75.74 75.68 75.33 75.02 74.59 74.79 74.58
71.08 70.48 69.67 68.86 68.66 67.20 65.95 65.37 65.42 64.40 64.71 65.59 62.81 59.89 58.18 60.33 61.58 63.33 63.34 66.17 66.06 67.47 68.52 69.09 69.91 70.69 71.53 71.67 72.44 74.43 74.95 75.52 75.98 76.33 76.07 75.67 76.08 75.68 75.15 74.79 74.52 74.54 74.58
71.23 70.04 69.03 68.05 65.70 65.72 64.70 64.43 64.56 63.95 62.66 64.19 64.29 61.30 56.76 55.35 58.78 61.72 62.76 62.81 63.71 63.75 65.30 67.00 68.41 69.65 70.14 70.91 71.94 72.84 73.84 73.65 75.11 75.89 75.64 75.56 75.44 75.90 75.60 74.94 74.57 74.36 74.07
66.42 67.42 66.44 65.34 65.90 65.22 64.77 64.63 66.61 65.05 63.71 61.50 62.79 64.50 62.52 61.65 57.08 56.33 59.83 61.05 61.88 62.14 63.09 64.59 66.03 66.97 68.59 68.77 70.38 71.85 72.88 73.05 73.47 74.45 75.39 75.27 75.40 75.67 76.08 75.55 74.84 74.44 74.15
64.70 65.38 65.47 66.37 65.26 64.66 64.03 64.63 63.93 64.07 63.80 62.58 61.58 61.33 60.46 59.93 59.58 56.78 54.35 56.67 59.44 60.79 62.56 63.75 63.78 65.05 66.79 68.03 68.03 68.45 70.31 71.18 71.37 72.91 73.80 74.66 75.16 75.95 76.32 76.14 75.78 75.07 74.84
61.62 64.68 66.58 64.79 64.20 63.65 63.71 63.73 63.53 63.66 63.19 63.27 62.26 60.88 58.95 57.15 56.83 56.54 55.19 55.23 55.85 58.27 60.60 61.61 62.05 63.72 65.41 66.25 65.97 68.12 70.21 71.78 71.41 71.32 71.87 72.90 74.14 75.36 76.38 76.87 76.40 76.37 75.96
62.26 63.18 62.66 63.11 60.64 61.27 62.55 63.33 63.21 62.18 62.43 62.29 61.00 60.27 60.26 59.70 59.66 58.52 56.63 55.13 54.89 56.31 58.08 58.58 60.73 60.07 62.91 61.38 62.43 65.39 66.57 67.94 69.02 70.21 69.84 71.21 72.24 73.16 74.17 75.38 76.18 76.57 76.47
61.89 61.91 61.92 61.59 60.58 61.70 63.21 63.47 63.08 62.14 62.01 62.65 61.48 60.88 60.48 60.14 59.88 58.70 57.14 54.57 49.98 51.63 52.86 53.42 56.97 57.66 59.02 58.90 61.70 64.17 62.03 65.04 66.67 67.90 68.63 68.67 69.19 70.60 72.11 72.83 73.54 74.50 75.17
62.20 61.98 61.57 61.17 61.49 62.87 63.38 62.51 62.28 62.40 62.63 62.28 61.66 61.65 61.30 60.32 58.78 58.36 57.32 56.23 51.49 46.60 47.56 51.45 53.56 55.56 56.08 57.19 59.52 60.31 60.29 63.09 64.61 66.14 67.35 67.56 67.71 68.07 68.71 70.25 71.30 71.63 72.26
61.51 61.44 61.14 61.55 61.37 62.38 62.64 61.62 61.08 61.62 61.55 61.41 61.81 61.63 61.71 60.62 58.71 58.12 57.10 55.65 54.31 51.43 50.29 52.05 53.02 54.20 56.06 57.75 59.64 59.48 59.26 62.41 63.64 64.21 65.86 66.77 67.13 67.24 67.70 67.99 68.78 69.90 70.32
60.68 61.25 61.59 61.83 62.35 61.83 61.29 61.38 61.70 62.16 61.28 61.08 61.38 61.44 61.55 60.50 58.60 57.66 57.24 55.91 54.23 53.38 53.66 52.94 54.22 55.54 55.51 56.33 57.63 58.07 58.91 59.21 60.72 63.33 64.35 66.08 66.21 66.06 66.43 66.73 67.22 68.12 68.98
61.20 62.31 62.40 62.35 61.50 61.17 61.47 62.09 61.96 62.07 61.59 60.91 60.98 60.58 60.73 61.43 58.77 57.33 56.70 55.95 55.17 54.53 53.64 53.32 54.07 55.40 54.88 57.39 57.29 56.51 57.52 59.61 59.66 62.00 62.72 63.62 65.63 65.24 64.40 64.25 64.91 65.46 66.05
61.33 60.55 60.30 59.31 58.60 59.11 60.40 60.85 61.39 61.46 61.16 61.57 61.35 60.17 59.87 58.75 58.15 57.22 56.48 56.39 56.27 56.84 54.97 54.90 55.26 57.79 56.96 56.95 56.16 56.42 56.91 57.73 59.26 62.20 62.35 63.07 64.21 64.75 63.89 62.54 62.21 62.01 62.20
60.25 59.74 59.82 59.55 59.39 60.08 60.66 60.55 60.71 60.66 61.15 61.50 61.07 59.91 59.39 59.02 58.84 57.97 57.30 56.91 56.86 55.63 54.93 54.12 56.02 55.97 55.51 55.88 55.63 54.36 54.22 56.70 56.57 59.27 61.42 61.80 63.05 65.08 64.94 63.09 61.95 61.93 60.27
61.97 60.25 60.10 59.67 60.27 61.20 61.83 60.62 61.02 61.62 61.08 60.28 59.87 59.58 59.80 60.84 62.87 60.57 58.18 57.19 55.85 55.63 55.05 54.85 55.28 54.69 53.94 53.22 52.97 54.67 54.59 55.66 55.92 57.79 57.77 59.26 60.88 63.79 67.41 64.62 65.59 64.63 61.86
61.80 60.35 59.97 60.14 60.27 61.61 61.25 62.12 62.75 59.55 58.86 58.08 56.99 56.29 56.81 60.09 60.06 61.80 62.33 62.25 59.50 55.61 54.65 54.24 54.54 53.68 53.49 53.34 55.23 54.82 54.35 53.73 52.41 57.84 56.88 58.26 62.30 63.51 66.85 67.32 65.17 63.61 61.83
61.48 59.97 60.03 60.25 60.17 59.87 59.73 59.87 62.55 58.18 56.54 55.62 54.51 55.20 56.61 58.93 59.24 57.50 59.06 59.88 59.77 60.20 60.31 56.33 53.57 53.68 53.12 54.53 55.54 54.49 54.31 54.15 53.74 56.49 57.26 55.87 58.36 59.50 64.05 67.17 63.71 62.39 61.40
61.48 60.73 60.41 60.27 59.43 60.58 58.85 58.30 60.80 59.13 56.59 55.35 55.85 56.17 54.59 54.55 56.00 56.61 55.82 53.97 53.42 53.36 54.09 55.06 54.57 54.90 55.30 55.67 56.01 55.75 55.24 55.30 56.06 57.03 57.65 54.65 57.81 58.56 63.07 68.02 64.09 62.86 61.12
60.98 61.31 60.56 60.48 60.45 60.21 58.15 57.47 57.94 57.50 55.99 55.42 54.06 53.96 55.14 54.67 55.89 56.26 52.95 51.75 51.19 52.24 55.79 56.65 56.82 56.63 56.51 56.74 57.33 56.29 54.36 53.46 52.68 53.88 57.64 56.25 56.83 57.13 61.30 65.61 68.19 62.96 60.99
61.89 61.58 61.62 59.68 60.26 60.44 57.35 55.76 55.58 56.10 54.08 52.83 53.43 53.87 54.74 54.25 53.64 52.43 50.70 49.30 51.24 50.87 51.90 52.80 54.02 54.93 56.01 56.01 57.59 56.99 55.49 52.84 52.80 52.70 56.86 55.64 56.28 58.79 59.66 65.60 67.83 65.99 63.39

GFSMA_sfc_wetblb_006.txt.gz
Wetbulb
70.34 70.92 72.13 72.44 72.28 72.34 71.97 71.82 71.94 71.43 71.00 71.23 71.37 71.38 71.02 71.62 71.86 71.79 71.40 73.16 75.93 75.97 75.68 75.76 75.53 75.71 74.63 73.76 73.90 74.55 74.14 73.78 73.54 73.57 73.74 73.15 73.69 73.47 73.60 72.84 72.74 72.99 73.37
71.40 71.24 71.55 71.47 71.31 71.90 71.39 72.08 71.37 70.59 69.75 69.81 69.79 70.25 70.46 70.54 71.11 71.07 71.35 72.40 73.82 75.99 76.45 76.23 75.83 75.76 75.82 74.72 74.27 74.34 74.47 74.43 74.38 74.17 74.48 74.99 74.30 74.38 74.15 73.51 72.79 72.77 73.58
71.59 71.51 71.18 71.13 71.34 70.69 70.83 70.59 70.11 69.02 68.76 68.97 68.89 69.21 69.19 69.56 70.12 70.22 71.21 72.19 72.79 73.58 74.95 76.53 76.67 76.15 75.65 75.99 75.17 75.08 75.53 75.19 75.58 75.05 74.81 74.79 74.80 74.90 75.03 74.65 74.27 74.40 74.53
73.04 71.91 70.75 70.23 70.89 70.94 70.13 69.89 68.81 68.21 68.33 67.95 67.91 68.22 68.44 68.91 69.19 69.64 70.33 71.04 72.03 72.20 73.81 74.48 76.17 75.86 75.72 75.42 76.11 75.70 75.91 75.36 75.11 75.27 75.46 75.23 75.00 75.08 74.93 74.81 75.01 74.96 74.89
73.12 72.16 70.32 70.43 71.00 70.61 70.05 69.14 68.41 68.04 67.77 67.62 67.66 68.68 68.71 68.70 69.18 69.40 69.38 69.96 70.30 71.49 71.73 72.89 74.79 75.41 75.42 75.58 75.99 75.89 75.77 75.51 75.63 75.48 75.30 75.84 75.54 75.41 75.14 75.01 75.38 75.45 75.10
72.74 71.85 71.11 70.95 71.10 70.19 69.30 68.63 68.34 68.27 67.71 67.39 67.62 67.56 67.61 67.49 68.26 68.38 68.53 69.65 70.18 70.77 71.23 72.30 74.24 73.71 74.35 75.22 75.38 75.44 75.81 75.33 75.21 75.64 75.53 75.54 75.64 75.36 75.18 74.83 74.88 74.70 75.12
72.52 71.86 71.38 70.62 70.41 69.82 69.51 69.07 68.38 67.71 67.53 67.48 66.76 66.18 65.79 65.69 66.45 66.10 67.79 68.57 67.42 68.40 70.70 72.39 73.07 73.71 73.34 73.52 74.70 75.22 75.30 75.83 75.84 75.25 75.21 75.06 75.33 75.60 75.37 74.85 74.71 74.71 74.64
72.28 71.37 71.06 70.37 70.46 69.57 68.41 67.70 67.68 66.86 66.86 67.93 65.57 62.93 61.58 62.95 64.56 65.86 66.62 66.69 65.70 66.41 67.09 69.08 70.42 70.68 71.64 72.62 73.05 73.64 74.73 75.21 75.80 75.86 75.62 75.04 74.90 75.10 75.17 75.05 74.71 74.79 74.67
72.18 71.70 71.03 70.64 69.31 68.01 67.50 67.32 66.87 66.52 65.76 66.81 66.70 64.56 60.41 59.11 62.13 64.29 65.22 65.19 65.12 65.67 66.53 67.47 67.90 68.58 69.89 70.85 70.80 71.43 72.11 72.95 73.86 74.85 75.32 75.14 74.76 74.78 74.85 75.04 74.76 74.60 74.20
70.92 70.02 69.19 68.46 67.46 67.50 67.08 67.26 68.10 67.59 66.43 64.95 65.73 66.49 65.58 64.48 60.90 59.57 62.35 62.96 63.40 63.71 65.17 66.22 66.54 67.44 68.50 69.04 68.62 69.48 70.57 71.28 71.67 72.47 73.53 74.90 74.56 74.81 75.03 75.45 75.05 74.66 74.47
67.06 67.86 67.48 67.16 67.70 66.96 66.76 67.14 67.19 66.92 66.54 65.71 64.83 64.53 63.91 63.01 62.94 60.33 57.93 59.73 60.97 63.49 64.44 64.77 65.24 66.23 66.62 65.60 65.81 66.32 67.02 67.68 68.42 70.19 72.15 72.74 73.17 74.96 75.71 75.76 75.98 75.49 75.32
64.56 65.99 66.80 67.79 67.34 66.30 66.23 66.48 66.49 66.36 66.23 66.18 65.71 64.67 63.04 61.40 61.15 61.02 59.63 59.17 59.21 60.76 63.05 64.10 64.43 64.13 64.48 64.38 63.39 65.10 65.36 65.45 65.68 66.60 67.79 70.11 72.39 73.14 74.06 75.82 75.86 76.26 76.36
64.08 65.30 66.50 65.61 65.16 64.94 65.36 65.74 66.07 65.61 65.34 65.41 65.20 64.16 63.76 63.56 63.17 62.49 60.91 59.48 58.67 59.38 61.18 61.15 63.71 63.62 62.94 62.89 62.70 64.14 64.45 63.51 64.63 64.78 65.65 67.27 69.52 71.52 72.64 74.41 75.24 75.74 75.96
64.54 65.39 64.70 64.94 63.17 63.83 65.10 66.15 65.27 65.17 65.08 65.50 64.88 63.86 64.07 63.81 63.64 62.79 61.38 59.31 54.84 55.29 56.52 58.39 59.62 62.39 62.13 61.06 62.47 63.42 62.40 62.87 63.10 63.26 63.63 64.61 66.20 68.78 70.32 71.41 72.72 73.66 74.15
63.84 64.30 64.03 63.99 63.35 63.66 65.75 65.68 64.95 64.96 65.07 65.19 65.10 64.46 63.79 64.15 63.12 62.75 61.98 60.62 57.12 52.99 52.58 56.06 57.43 60.23 60.29 60.46 61.18 62.50 62.43 62.04 62.90 63.00 62.83 63.38 64.13 65.98 68.28 69.42 69.66 70.50 71.73
63.31 63.81 63.86 63.41 63.74 63.76 65.00 64.88 64.17 64.49 64.70 64.40 64.26 64.19 64.36 64.59 63.49 62.00 60.72 60.54 58.67 56.65 54.15 56.07 57.62 58.61 59.92 60.37 61.44 62.28 61.59 61.77 61.70 61.81 62.11 62.65 63.51 64.10 65.85 67.48 68.04 68.31 69.07
62.66 63.25 63.27 63.22 63.70 63.79 64.45 63.82 63.86 64.26 64.21 64.43 64.43 64.10 64.25 64.56 63.38 61.82 60.93 60.01 58.76 57.33 55.28 58.11 57.70 60.02 59.90 60.79 61.04 61.42 61.13 60.77 60.87 61.38 61.84 61.98 61.98 62.42 63.36 65.36 66.59 66.97 67.34
62.63 63.05 63.38 63.73 64.19 64.41 64.28 63.51 63.73 64.90 64.39 64.04 64.26 63.95 63.88 63.64 63.16 62.59 60.64 60.56 60.00 59.14 57.59 57.07 59.54 58.68 59.46 61.22 61.09 60.29 60.03 60.21 60.64 61.03 61.00 61.05 61.33 61.63 62.01 62.42 64.06 64.82 64.91
62.35 62.70 63.62 63.53 63.38 63.05 62.39 62.63 63.77 63.93 63.75 63.77 63.95 63.53 63.31 62.54 62.07 61.55 60.93 60.48 60.56 60.43 58.71 57.59 58.10 60.11 59.58 60.72 59.77 60.20 59.90 59.84 60.05 60.78 60.75 60.56 60.67 61.05 61.19 60.99 61.83 62.10 61.35
62.70 62.57 63.09 62.72 62.33 61.69 62.19 62.97 63.44 63.29 63.05 63.31 63.91 63.80 63.00 62.08 61.91 62.05 61.52 61.25 60.98 59.85 59.77 57.95 57.57 58.36 58.96 60.31 58.81 56.96 56.58 58.49 58.35 59.69 60.63 60.21 60.37 61.07 61.11 60.67 60.89 62.02 60.38
63.11 62.87 62.44 62.24 62.41 62.21 62.41 63.19 63.44 63.14 63.38 63.64 63.88 63.05 62.44 62.33 62.70 62.49 62.08 61.92 60.10 59.33 59.09 58.06 57.21 57.69 57.47 57.76 56.91 57.71 55.94 56.90 58.23 58.84 58.23 58.93 59.54 60.65 61.70 62.10 63.88 64.17 62.33
62.59 62.78 61.83 62.35 62.21 62.63 61.11 61.81 63.85 63.44 63.75 63.05 62.11 61.57 60.44 60.42 60.85 60.83 61.46 62.19 62.32 60.39 59.33 58.02 57.38 56.41 57.46 57.71 57.79 56.19 55.70 54.67 53.55 58.88 57.74 56.83 59.06 58.11 60.61 60.94 61.76 63.96 62.80
62.52 62.48 62.48 62.65 62.44 63.33 59.43 59.73 62.09 63.62 61.91 60.76 60.50 60.20 59.77 60.55 60.63 59.44 59.37 59.42 60.22 60.11 60.80 60.72 56.47 57.28 57.02 57.65 57.67 56.27 55.70 54.08 54.45 55.85 55.79 53.97 56.88 56.24 60.17 61.40 60.52 60.68 62.10
62.17 62.37 62.48 62.72 62.52 62.76 58.57 58.38 60.73 63.42 62.28 61.06 59.85 59.25 59.23 58.97 58.69 58.72 58.98 58.44 57.49 57.23 57.41 56.75 57.24 56.89 57.15 57.26 57.63 57.05 55.46 55.67 56.13 56.21 56.64 52.94 56.34 55.57 58.83 61.11 60.65 61.41 61.79
62.88 63.57 63.41 62.93 62.22 62.86 58.16 57.42 59.32 62.10 61.35 60.65 59.45 57.95 57.56 58.72 56.75 55.95 57.24 56.18 55.71 55.73 56.00 55.76 55.80 55.67 55.69 56.05 56.66 56.35 54.23 53.49 52.22 53.32 56.02 54.00 54.87 55.21 57.20 58.51 61.49 61.33 60.72
63.45 64.52 63.49 62.44 60.43 62.03 57.75 57.31 57.99 61.22 59.80 58.01 57.41 58.20 56.14 55.60 53.61 52.68 55.68 54.35 53.84 54.13 53.51 53.74 54.11 54.87 55.67 55.89 56.41 57.54 56.67 53.05 52.22 51.28 55.01 53.34 54.15 55.26 54.57 58.50 60.10 63.03 66.91

GFSMA_sfc_wetblb_009.txt.gz
Wetbulb
75.93 76.02 75.72 76.27 76.94 76.66 76.43 76.18 76.19 75.22 74.53 73.66 73.65 73.29 72.85 73.24 73.78 73.67 74.55 74.14 73.81 75.08 75.44 75.67 75.29 75.28 75.09 74.02 74.95 74.84 73.89 73.78 73.47 74.23 73.90 74.10 73.63 73.46 73.36 72.82 73.11 72.99 72.95
78.26 76.80 75.52 76.19 76.13 76.51 76.14 76.05 75.33 74.39 73.42 73.52 72.73 72.89 72.36 72.26 72.84 72.92 72.88 74.81 73.09 74.21 75.26 75.85 75.89 75.35 75.34 75.41 74.27 73.92 75.13 75.30 74.98 74.10 74.63 74.85 74.66 74.33 73.68 73.32 73.23 72.83 73.50
77.02 77.27 76.95 76.38 76.38 76.14 75.49 75.08 74.63 74.78 73.36 73.09 71.97 71.93 71.90 72.26 71.56 72.66 72.76 73.11 74.69 73.77 73.90 74.57 76.51 76.50 76.01 75.51 75.72 75.59 75.57 74.98 75.53 75.15 74.87 74.88 74.86 74.89 74.63 74.56 74.79 74.15 74.06
77.84 77.76 77.64 76.84 76.15 75.73 75.05 74.64 74.06 73.25 73.25 72.26 71.31 71.32 71.84 71.72 72.29 72.34 72.45 72.61 72.49 73.07 74.68 73.86 74.28 76.32 75.88 75.05 75.47 75.41 75.83 75.60 75.40 75.78 75.39 75.16 75.21 75.34 75.19 74.92 74.75 74.82 74.87
77.27 77.67 77.37 76.55 75.58 74.93 75.54 74.88 73.95 73.10 71.00 70.58 70.28 70.80 71.41 70.96 71.80 71.46 72.00 72.88 73.39 73.31 72.90 75.27 73.37 73.94 74.88 75.41 75.50 75.46 75.57 75.50 74.94 75.46 75.51 75.72 75.25 75.15 75.10 75.22 75.07 74.90 75.02
76.49 76.55 76.11 75.55 75.28 75.09 74.69 74.16 73.58 73.38 71.52 71.12 70.24 69.93 70.78 72.05 71.14 71.68 71.70 71.75 70.97 73.43 74.15 74.47 75.32 75.79 73.52 74.39 75.04 75.82 75.72 75.33 75.04 75.24 75.17 75.25 75.45 75.60 75.45 75.15 75.07 75.04 75.31
76.44 76.51 76.20 75.62 75.16 73.93 74.13 73.82 73.22 71.43 71.14 72.37 69.88 68.43 70.46 70.90 69.90 70.44 71.12 69.67 68.28 69.91 71.49 72.48 73.90 74.45 75.41 73.26 73.72 73.85 74.40 75.36 75.44 75.42 74.94 75.07 74.95 74.87 75.09 75.03 74.68 74.96 74.93
76.57 76.03 75.62 74.45 74.27 73.01 73.16 72.47 72.30 70.63 70.93 72.38 68.52 67.96 64.27 66.93 70.13 69.70 69.36 66.86 66.94 68.11 68.52 70.51 70.98 71.59 72.48 73.05 72.67 72.09 72.54 72.86 73.95 74.88 75.32 74.67 74.82 74.65 74.54 74.55 74.68 74.74 74.77
76.25 76.00 75.09 74.33 73.96 72.75 70.49 72.46 71.76 70.81 69.13 71.07 70.37 67.73 63.74 62.83 65.10 69.47 69.05 66.89 66.16 66.08 67.19 68.45 69.37 70.00 69.25 68.85 69.55 70.33 70.07 70.86 72.08 72.91 73.43 74.42 74.82 74.50 74.55 74.42 74.35 74.62 74.57
75.66 75.40 75.02 73.43 73.13 71.72 72.28 72.26 72.12 72.08 71.36 68.37 70.03 70.33 69.70 68.28 63.57 62.69 66.23 66.09 65.42 64.41 65.87 65.85 66.20 66.78 66.33 65.78 66.41 66.69 66.84 67.15 67.44 68.36 70.22 72.41 73.08 73.73 74.85 75.00 74.50 74.42 74.68
75.63 74.30 73.28 72.51 72.11 71.75 72.54 71.63 71.93 71.35 71.12 69.65 68.91 68.64 68.63 68.01 67.69 63.46 59.43 61.69 64.57 65.63 65.09 65.10 65.96 65.56 65.64 65.33 65.56 66.43 65.90 64.82 65.18 65.76 66.31 67.61 69.51 72.12 73.70 74.09 75.12 75.07 74.97
73.27 72.64 71.74 72.01 72.73 72.32 71.69 70.68 71.23 70.54 70.67 70.47 69.89 68.68 66.45 64.28 63.89 63.33 61.50 62.25 61.74 63.83 64.39 65.04 65.02 65.49 65.23 64.60 63.98 64.64 65.22 64.51 64.15 64.02 64.48 65.18 66.39 68.04 70.93 73.06 74.06 75.07 75.97
71.36 70.67 71.30 71.35 71.43 72.12 71.09 70.96 70.65 70.50 70.00 69.21 69.95 67.64 67.66 66.72 67.55 66.03 64.23 62.47 61.45 62.83 64.21 64.51 65.40 65.54 65.65 65.21 64.64 64.30 65.20 64.06 63.68 63.76 63.58 63.67 64.42 65.46 66.67 69.49 71.34 73.55 74.61
71.31 71.25 71.02 71.32 71.84 70.53 69.90 70.58 69.84 69.82 70.08 68.96 69.63 69.60 67.55 67.63 67.79 67.16 65.21 63.25 60.45 60.95 61.94 62.65 64.18 64.44 65.02 64.94 65.12 64.41 65.38 64.28 63.87 63.26 63.33 63.41 63.34 63.96 64.71 65.95 68.02 70.20 71.73
70.34 70.78 70.85 70.89 70.08 68.54 69.54 70.68 68.73 69.39 69.78 69.69 69.44 69.83 68.71 67.90 68.22 67.98 67.38 65.79 62.52 58.84 59.85 61.95 61.26 64.64 64.92 65.15 65.55 66.19 65.82 64.58 63.49 63.33 62.59 62.46 63.01 63.59 64.20 64.55 65.41 67.45 69.12
70.46 70.43 70.40 69.88 69.10 68.70 69.03 69.98 68.96 69.28 69.00 68.47 68.44 69.04 69.09 68.25 68.44 68.72 67.91 66.57 65.01 62.09 59.55 62.24 62.46 64.42 65.70 65.36 65.73 65.76 66.03 63.81 63.78 62.72 62.20 61.87 62.51 63.09 63.52 63.89 64.25 65.14 66.67
69.94 69.94 69.78 69.02 68.87 68.51 68.95 69.13 69.15 68.76 68.13 68.61 69.42 68.92 68.95 69.49 67.67 68.07 67.91 66.82 65.01 63.84 61.20 62.15 63.53 65.15 65.06 65.20 65.74 66.47 66.11 65.73 64.55 62.81 62.57 62.09 61.74 61.90 62.20 62.55 62.77 63.38 64.24
69.47 69.29 69.27 68.98 68.84 68.69 69.11 69.09 68.35 67.50 67.81 67.87 68.21 68.55 68.32 67.74 68.20 68.63 66.85 67.08 66.72 65.90 62.97 61.50 64.16 63.57 65.06 65.90 65.39 65.30 64.83 64.65 64.37 63.35 61.87 61.31 60.75 60.81 60.80 60.83 60.72 61.36 61.90
68.79 67.98 68.46 68.40 68.43 68.73 69.17 69.47 68.74 67.75 68.10 68.14 68.11 68.02 67.82 68.07 67.49 66.79 66.60 65.50 65.10 66.80 64.75 61.60 61.41 62.91 63.60 64.49 64.10 64.90 64.42 64.43 64.00 63.22 61.39 60.83 60.94 60.81 60.25 59.38 59.19 59.13 58.86
68.23 68.20 68.02 68.74 68.72 69.03 68.73 68.10 67.27 67.60 68.05 67.86 68.30 68.28 68.21 67.68 67.20 66.68 65.89 65.97 65.40 64.42 64.07 62.50 61.38 61.53 62.08 64.28 63.07 61.47 60.80 62.44 61.87 62.97 62.70 61.71 61.51 61.29 60.73 59.39 59.30 59.51 58.22
65.81 66.33 67.09 67.42 68.09 67.56 66.86 67.12 67.55 67.93 68.09 67.94 68.12 68.46 68.47 67.48 65.15 64.38 63.86 64.59 65.19 63.60 62.19 61.18 60.44 60.78 60.54 60.51 60.07 61.11 60.14 60.69 61.95 62.17 61.22 61.82 62.08 61.63 62.04 60.95 62.05 61.89 60.36
64.79 65.43 65.11 65.76 66.78 66.24 62.15 62.01 65.76 67.60 68.25 67.84 67.30 68.18 67.84 63.87 63.42 61.76 61.56 62.18 63.09 63.12 62.25 63.51 61.14 59.85 60.54 60.55 61.00 59.93 58.90 57.69 56.01 62.09 60.82 60.11 61.55 60.14 61.31 61.87 60.59 60.15 59.67
64.74 64.94 64.69 64.65 67.43 68.01 60.88 60.51 62.68 66.79 67.52 67.40 67.65 67.22 65.99 64.65 62.72 64.18 61.70 60.53 60.36 60.41 61.29 62.58 60.14 60.22 60.06 60.72 59.99 58.43 57.90 56.07 55.22 59.52 59.87 58.64 60.08 59.82 59.98 59.90 59.48 59.03 58.69
67.21 64.53 65.55 67.12 68.34 67.88 59.61 58.56 61.21 66.25 67.07 67.71 67.27 66.59 65.58 64.82 64.63 62.33 62.42 62.26 62.94 62.99 62.75 61.41 61.17 60.74 60.50 60.09 59.08 58.08 56.42 55.81 56.86 58.99 61.10 56.49 58.77 56.98 58.10 59.17 59.43 59.11 58.62
66.32 66.99 66.65 66.80 67.11 66.97 58.57 57.58 61.32 64.28 64.91 65.33 67.02 65.41 63.97 63.62 59.25 56.38 59.88 60.77 61.40 61.57 59.15 56.15 55.81 55.52 55.43 55.57 56.46 56.37 54.81 55.32 54.30 56.98 59.10 54.38 54.23 54.15 55.60 56.86 60.05 59.33 58.24
65.96 66.40 66.44 67.87 65.09 68.29 57.33 56.29 60.34 63.24 62.34 63.19 64.88 62.85 57.32 59.76 53.99 53.98 59.74 60.49 59.31 60.12 59.03 58.65 58.62 58.15 57.95 58.55 57.05 58.77 56.44 54.25 54.96 52.86 55.73 52.96 53.33 53.62 52.28 56.50 59.54 61.78 63.09

GFSMA_sfc_wetblb_012.txt.gz
Wetbulb
77.02 76.29 77.27 77.36 76.63 77.63 77.56 76.32 76.83 76.45 76.03 75.16 75.25 74.57 73.43 73.84 74.00 73.64 73.95 75.01 73.31 73.92 75.58 75.70 75.35 75.73 75.32 74.90 75.34 74.85 74.55 73.65 73.13 73.16 73.44 73.79 73.89 73.44 73.01 72.88 72.85 73.47 73.35
78.19 76.45 76.40 75.99 76.28 76.95 77.44 76.90 76.42 75.69 75.39 75.28 74.51 73.70 72.69 72.10 72.27 73.03 72.80 74.08 73.88 73.40 74.43 75.75 75.70 76.00 75.68 75.44 74.58 75.51 75.22 74.72 75.14 73.96 74.58 75.32 74.96 74.84 73.48 72.88 72.87 73.13 73.22
77.53 76.98 76.86 75.61 75.94 77.75 77.25 76.88 76.42 75.86 74.54 74.69 73.37 72.91 71.91 71.69 71.32 72.07 72.38 72.17 73.85 74.72 74.37 74.37 75.63 76.63 76.75 75.67 75.44 75.19 75.42 75.98 76.00 75.64 75.27 75.23 75.11 74.88 74.98 74.73 74.53 74.30 74.69
77.90 77.49 75.94 75.93 76.15 76.34 76.46 75.46 75.56 74.25 73.49 72.14 70.67 70.53 70.78 71.61 72.22 72.00 72.08 72.88 72.59 71.41 75.17 75.06 74.17 75.12 75.88 75.36 75.60 75.49 75.81 75.31 75.60 75.76 75.58 75.36 75.44 75.32 75.33 75.30 75.20 75.08 74.95
77.77 77.10 76.22 76.85 76.93 76.69 75.84 75.68 74.29 73.76 70.52 69.76 68.91 69.26 71.93 71.96 72.54 71.62 73.02 74.20 74.13 73.78 72.43 75.10 73.28 73.31 74.51 75.48 75.97 75.80 75.76 75.38 75.29 74.99 75.72 75.75 75.60 75.03 74.98 75.05 75.21 75.21 75.10
77.38 76.86 76.52 76.28 76.15 76.11 75.34 74.70 73.39 72.66 70.93 69.84 68.62 69.71 71.84 73.47 73.21 73.56 72.74 72.42 72.39 74.17 74.53 75.30 74.86 75.11 73.51 73.31 74.67 76.13 76.23 75.80 75.47 75.22 74.97 75.00 75.18 75.36 75.21 75.13 74.95 75.15 75.03
77.73 77.61 76.26 76.08 76.22 74.98 74.64 74.33 71.95 70.37 68.53 71.79 69.13 69.36 70.35 71.41 72.44 72.87 72.64 70.04 69.98 71.35 73.12 74.51 74.52 74.92 75.07 73.52 73.36 73.60 73.88 74.32 75.52 75.78 75.40 74.78 74.63 74.88 74.88 74.57 74.92 75.12 75.09
77.96 77.22 76.89 76.10 76.05 74.51 74.09 72.48 71.51 69.25 69.87 71.96 68.01 67.51 65.22 67.66 69.42 71.20 70.92 68.31 67.99 69.26 70.12 71.67 72.82 73.93 74.27 73.75 73.27 71.65 71.57 72.22 72.94 73.68 74.37 75.18 75.06 74.71 74.63 74.22 74.21 74.46 74.93
78.02 77.67 77.21 75.99 75.34 73.01 69.91 71.84 71.66 70.37 68.16 71.30 70.76 67.21 64.03 63.75 65.66 68.86 69.55 67.40 67.60 67.14 68.09 68.86 70.14 69.94 70.03 70.33 71.30 70.20 67.91 68.06 68.88 69.98 71.85 72.72 73.56 74.13 74.90 74.55 74.24 74.10 74.25
77.01 76.63 76.54 75.58 73.39 71.43 72.11 71.95 72.00 71.42 70.80 68.76 69.58 70.51 70.20 68.82 63.72 63.96 66.55 66.72 67.26 66.14 66.44 67.07 67.18 67.52 67.57 67.76 68.10 66.67 65.64 65.61 65.77 66.35 66.78 67.93 69.39 71.31 73.41 74.28 74.39 74.41 74.30
76.21 75.18 76.02 73.78 72.67 71.34 72.70 73.17 71.94 71.49 70.83 68.55 68.73 69.36 69.36 68.72 68.88 63.66 61.49 65.19 66.49 66.77 67.71 67.75 67.58 67.54 66.88 67.41 67.59 66.26 65.10 64.51 64.63 64.68 64.85 65.32 66.50 67.73 69.46 71.92 74.01 74.26 74.50
74.79 75.58 75.61 73.54 73.19 72.29 72.50 72.29 71.85 71.22 70.92 70.54 69.55 69.84 67.21 65.55 65.51 64.02 62.33 64.03 64.14 66.41 66.98 67.92 67.32 67.66 67.91 68.12 65.16 63.79 63.89 63.74 63.50 63.44 63.74 64.62 65.06 65.88 67.16 68.17 70.20 72.34 73.95
72.18 74.25 75.43 72.90 71.83 73.51 73.14 72.41 71.58 71.00 70.83 69.79 70.16 68.24 68.91 67.07 67.42 65.74 64.27 62.96 62.52 64.98 66.12 67.21 67.82 66.49 66.60 66.88 67.29 64.28 67.11 65.09 64.45 64.13 63.49 63.60 63.99 64.40 65.16 65.86 66.89 68.66 70.96
71.88 74.02 74.48 72.74 72.44 72.80 72.83 71.48 70.19 69.97 70.71 69.71 70.21 70.13 67.75 67.38 67.17 66.65 65.02 63.90 62.07 63.05 64.99 66.27 67.65 66.19 66.31 66.40 67.17 65.41 67.41 65.26 64.46 63.67 63.65 63.98 63.25 63.48 64.18 64.61 65.05 65.28 66.23
72.24 73.79 73.28 72.42 72.03 72.73 71.45 71.34 69.54 70.28 70.38 70.33 69.67 69.96 68.94 67.06 67.11 67.16 67.00 66.74 64.03 60.42 61.16 64.46 64.03 67.20 66.56 66.63 67.75 67.44 67.82 66.83 64.34 63.86 63.61 63.17 63.22 63.10 63.28 63.64 64.08 64.22 64.43
73.92 73.32 72.81 71.33 71.91 71.64 70.84 71.25 70.15 70.50 70.15 68.43 67.63 68.83 69.16 67.73 67.83 67.70 67.57 67.49 66.57 64.09 61.00 63.82 63.97 65.99 67.20 67.13 68.10 67.75 67.79 66.98 65.93 64.76 63.77 62.85 62.79 63.22 63.59 63.67 64.07 64.14 64.15
74.00 73.03 72.60 71.33 71.48 70.25 70.58 70.73 70.29 69.22 69.03 69.14 68.77 69.07 69.48 70.38 67.86 66.99 66.84 66.37 65.41 64.89 62.18 63.29 64.63 67.10 67.71 67.73 67.83 68.32 68.10 67.60 67.10 64.97 64.04 63.07 62.46 62.44 62.61 62.52 62.63 62.92 62.96
73.33 73.13 72.31 71.55 70.59 70.24 70.18 70.13 68.90 68.21 67.95 67.57 68.23 68.90 68.92 68.31 69.26 69.34 67.33 67.92 66.45 66.48 63.79 63.38 65.33 64.66 67.53 68.65 67.15 67.54 66.77 66.57 66.57 65.48 63.67 62.55 61.78 61.14 60.94 60.96 60.87 60.96 61.04
71.37 71.21 71.03 69.74 69.90 69.89 69.58 69.95 70.06 69.27 68.54 68.29 68.81 68.65 68.64 68.93 68.35 67.42 67.78 66.36 65.46 65.18 65.51 63.28 63.03 64.82 64.66 65.14 65.96 67.88 66.58 67.47 65.85 65.22 62.97 62.27 61.58 61.12 60.29 59.61 59.36 58.94 58.35
70.25 68.20 70.08 69.29 69.32 69.94 69.86 69.33 69.37 69.39 68.48 68.36 69.04 69.27 69.14 68.94 67.98 68.15 67.15 67.57 67.08 65.45 65.77 63.18 62.86 62.57 63.21 65.64 64.46 62.84 62.10 63.50 62.94 64.53 64.70 63.00 62.65 62.70 61.90 60.05 59.62 59.34 57.44
70.14 68.86 67.56 67.97 68.47 68.95 68.10 69.91 69.18 68.05 68.00 68.41 69.10 69.26 69.48 69.50 67.25 66.59 66.16 67.56 66.89 64.25 63.00 61.89 61.44 60.91 61.12 60.70 62.42 62.19 61.23 62.04 63.95 63.91 62.73 62.40 62.63 63.82 64.27 62.37 63.12 62.68 60.19
69.38 66.96 65.48 64.65 65.48 66.97 63.82 63.21 66.90 67.90 68.30 68.65 68.53 69.27 69.62 66.82 66.48 63.42 62.83 62.38 63.32 64.02 63.21 61.46 60.58 61.10 62.90 62.59 62.55 61.36 60.86 59.29 57.86 62.70 61.83 61.29 63.41 62.50 63.27 63.64 62.24 60.80 59.33
69.00 66.33 64.79 64.96 65.85 66.95 61.72 61.39 63.26 66.90 67.78 68.54 69.20 69.82 68.61 66.68 66.86 67.59 64.05 61.89 61.35 60.59 60.78 63.28 62.17 62.48 62.03 62.81 62.90 61.20 60.41 59.07 58.30 60.72 61.13 59.27 62.18 61.18 62.97 63.33 60.66 59.78 58.55
68.20 68.35 67.13 67.05 66.98 66.74 61.50 60.17 62.38 67.34 67.92 69.02 69.50 69.51 68.68 67.20 68.50 67.22 66.65 65.30 64.66 65.59 65.28 64.09 64.20 63.65 63.42 62.75 61.18 60.08 59.71 59.37 58.38 59.71 62.54 58.49 61.09 60.18 62.65 62.95 60.48 59.08 57.94
67.83 66.86 67.01 68.24 67.84 67.93 58.96 58.21 61.37 67.57 67.40 68.27 68.73 67.56 67.10 66.25 62.21 59.29 63.71 63.38 63.86 64.12 61.29 58.31 57.16 56.51 56.03 56.09 57.05 58.72 57.73 56.04 54.95 56.41 60.97 59.32 58.97 59.16 59.91 59.55 59.89 58.70 57.15
66.88 66.18 68.01 68.27 65.70 67.38 58.97 56.34 59.15 65.91 67.55 64.34 65.84 68.51 60.10 61.29 57.50 55.75 60.80 62.03 61.50 62.46 63.00 62.40 61.92 60.57 58.78 60.68 58.00 59.95 58.22 56.21 56.82 55.91 59.78 58.31 58.28 56.64 52.32 56.36 57.99 60.92 59.66

GFSMA_sfc_wetblb_015.txt.gz
Wetbulb
77.96 76.73 76.79 76.52 77.06 76.90 75.04 76.42 76.10 76.09 76.40 75.43 74.55 74.55 73.76 73.11 72.87 72.26 73.57 76.04 74.97 74.26 75.96 75.96 76.05 75.62 75.88 75.03 75.34 75.15 74.91 73.83 73.32 73.37 73.85 73.19 73.64 73.56 73.98 73.45 72.79 73.01 73.22
78.42 78.45 77.71 75.77 75.84 77.26 76.52 76.13 76.53 75.39 75.58 75.44 73.50 74.03 72.25 71.97 71.75 71.52 71.37 75.33 75.75 74.85 75.61 76.07 76.12 75.98 75.87 75.68 75.29 75.75 75.38 74.96 73.98 73.55 73.86 74.34 74.95 74.31 73.88 73.15 72.81 73.02 73.62
77.84 78.32 76.60 76.05 76.85 77.84 77.60 76.82 75.91 76.09 75.11 74.73 72.50 71.67 70.89 71.33 70.94 71.85 71.72 71.32 74.56 76.02 76.02 76.20 76.37 76.44 76.19 76.02 75.83 75.35 76.43 76.33 75.84 75.40 75.32 75.38 75.26 75.44 75.21 74.75 74.29 74.21 74.32
78.62 78.24 76.27 75.96 77.30 77.11 76.52 76.99 75.21 74.23 73.28 71.30 70.15 69.96 70.24 71.14 72.28 72.24 71.69 71.93 71.26 71.91 75.77 76.32 75.52 75.94 75.85 75.64 75.93 76.41 76.03 76.05 76.45 76.27 76.15 75.79 75.59 75.57 75.39 75.30 75.40 75.27 74.75
78.60 77.72 76.55 76.97 77.55 76.05 77.05 75.48 74.77 73.61 70.72 69.86 68.81 68.52 70.64 71.63 71.79 71.54 71.71 72.07 73.12 72.70 72.16 75.90 75.90 74.92 75.26 75.69 76.08 75.84 75.94 75.71 75.67 75.69 75.64 76.10 75.65 75.65 75.45 75.35 75.48 75.45 75.30
78.13 78.16 76.53 76.82 76.71 77.24 75.88 75.73 73.60 72.49 70.95 70.14 68.56 68.55 70.89 71.93 71.93 71.95 71.44 71.48 71.79 73.05 73.51 73.88 74.86 74.25 74.63 74.61 75.32 75.45 75.50 75.57 75.57 75.00 74.93 75.15 75.55 75.48 75.55 75.18 74.90 74.95 75.25
78.40 77.80 76.80 76.44 76.68 75.50 75.03 74.07 72.25 71.18 68.98 71.49 68.73 69.71 69.84 70.79 71.18 71.16 71.24 69.67 69.91 71.02 72.48 73.17 74.48 74.94 74.88 74.25 74.28 74.18 73.95 73.77 75.26 75.42 75.35 74.88 74.73 75.13 75.07 74.99 74.89 75.27 75.29
78.68 77.19 78.06 76.58 77.24 74.71 74.80 73.18 71.80 69.04 68.78 71.35 67.96 66.88 65.12 68.65 70.50 69.68 70.19 68.57 68.56 69.27 70.42 71.93 73.07 74.01 74.46 74.66 72.75 71.11 70.84 72.12 73.25 73.35 72.96 73.95 74.57 75.03 74.90 74.71 74.45 74.62 74.88
77.74 77.91 77.41 77.10 76.63 74.64 70.75 72.44 71.73 70.61 67.97 70.08 70.74 67.48 64.36 63.68 66.20 69.13 69.47 67.92 68.10 67.68 68.63 69.74 70.05 69.82 71.18 71.27 71.80 69.01 67.32 67.39 68.20 68.86 69.39 70.34 71.63 73.08 73.87 74.73 74.62 74.25 74.29
76.59 77.62 77.26 75.84 75.42 72.73 74.95 72.48 71.39 71.37 70.64 68.31 68.94 69.27 70.06 68.72 64.54 64.02 67.38 67.22 67.06 66.83 66.96 67.28 67.58 67.86 68.18 68.77 68.25 66.29 65.55 65.52 65.56 65.69 65.98 66.37 67.03 68.79 70.49 72.29 74.22 74.30 74.36
76.24 75.26 75.70 75.74 74.09 70.98 73.46 73.09 71.73 71.88 71.14 68.85 68.00 68.29 69.09 67.51 67.60 64.02 61.78 64.53 66.71 66.58 67.20 66.64 66.41 66.46 67.64 66.91 68.06 66.42 64.90 64.15 64.51 64.71 64.98 65.45 66.31 66.88 67.73 68.76 70.54 72.37 74.35
74.49 75.46 75.22 75.08 73.85 73.37 73.19 72.28 72.30 71.66 71.41 71.16 69.86 69.10 66.17 65.02 65.10 64.34 62.66 64.61 64.23 65.95 66.64 67.21 67.00 66.80 67.09 67.20 65.53 66.48 65.12 64.85 64.05 63.75 63.80 64.54 65.26 65.85 66.55 67.26 67.88 68.79 70.75
73.11 76.48 76.27 74.88 72.32 73.81 73.56 73.09 72.65 72.12 71.13 70.21 70.48 68.96 68.58 66.99 67.07 65.56 64.34 63.18 62.73 64.76 66.89 66.98 67.68 67.56 66.68 66.96 67.34 66.28 67.09 66.87 66.00 64.76 64.40 63.79 64.53 64.75 65.09 65.46 66.08 66.68 67.52
73.88 78.10 75.41 74.49 72.90 73.30 73.13 73.38 70.89 70.24 72.08 69.80 69.88 70.53 68.25 67.82 67.47 66.59 65.31 63.92 61.82 62.72 66.21 69.84 69.23 68.01 67.38 67.14 68.02 67.12 67.13 67.69 67.01 64.77 63.89 64.39 64.45 63.89 64.20 64.60 64.75 65.30 65.35
73.69 74.71 75.36 73.75 72.74 72.90 73.07 73.19 69.96 71.35 71.22 71.09 70.77 70.57 68.82 67.60 67.27 67.18 67.97 67.15 64.09 60.24 60.44 65.36 65.85 68.87 69.28 67.70 68.11 67.78 68.30 68.32 67.05 64.76 64.11 64.22 64.27 64.40 63.97 64.00 64.38 64.69 64.45
76.74 76.57 74.69 73.59 72.99 72.72 72.57 72.62 71.87 71.73 71.08 69.78 68.69 70.42 70.27 68.04 68.38 67.67 67.97 67.80 66.77 64.31 60.75 65.60 65.75 68.57 69.78 67.60 69.16 68.60 68.02 68.02 66.47 65.74 65.10 64.08 63.97 64.25 64.47 64.58 64.22 64.20 64.49
77.41 76.00 75.47 73.32 72.32 72.40 71.53 71.50 71.60 70.87 70.45 70.79 69.99 69.23 69.58 70.92 67.68 67.16 67.03 66.70 65.25 64.78 62.44 63.45 65.21 67.97 70.60 69.71 69.04 69.54 68.85 68.53 67.93 65.75 65.44 64.54 63.41 63.36 63.42 63.52 63.27 63.36 63.47
77.26 76.21 75.18 73.61 73.02 71.41 71.89 70.79 70.15 69.78 68.84 68.36 68.27 70.06 68.75 68.00 71.65 71.71 67.91 68.20 66.27 68.61 63.82 65.13 66.47 65.38 68.13 69.49 70.11 70.36 67.51 66.46 66.91 65.64 65.33 64.22 63.17 62.12 61.82 61.84 61.43 61.43 61.12
77.46 74.37 74.53 71.76 72.47 70.20 69.24 69.44 71.01 70.56 70.19 70.06 69.73 70.17 69.72 70.45 71.10 68.90 70.16 67.89 65.90 67.29 66.84 63.52 63.35 65.65 64.96 66.62 67.03 67.19 66.75 66.27 66.62 65.99 63.34 62.83 62.48 61.92 61.26 60.26 59.69 58.95 58.44
76.65 73.63 74.38 73.11 71.68 69.10 69.34 68.56 69.54 69.14 70.49 70.19 70.59 70.78 70.28 70.23 71.08 71.05 69.35 70.37 69.16 67.03 66.23 63.76 62.98 63.12 63.75 62.82 66.14 63.97 62.35 62.02 63.64 64.91 65.28 63.51 63.34 63.56 61.89 60.46 59.81 59.57 57.61
76.09 74.48 73.66 72.86 71.32 69.39 68.37 66.77 69.21 69.06 69.85 69.91 70.14 70.54 70.60 70.44 68.10 67.79 67.90 69.32 70.11 66.34 63.91 62.92 62.12 61.52 62.35 62.56 62.24 63.25 61.81 62.41 62.36 65.02 64.36 64.30 64.11 64.01 64.29 63.41 63.19 62.41 59.96
75.97 74.58 72.81 71.59 68.93 67.31 63.34 64.75 68.87 69.00 69.52 70.09 69.87 70.82 71.17 69.06 67.47 64.98 64.46 63.54 64.45 65.00 65.37 62.94 61.81 61.33 63.29 63.15 63.09 61.94 61.37 59.64 57.67 64.22 62.47 61.49 63.27 63.28 64.37 65.54 63.46 61.43 59.71
74.76 73.07 72.27 70.58 69.20 68.04 62.24 62.47 64.13 68.49 68.73 68.84 68.82 70.65 69.92 68.44 67.45 68.76 64.63 63.02 62.42 61.81 61.53 64.38 63.34 63.47 63.67 64.73 64.99 63.29 62.53 60.76 58.51 60.10 61.12 58.95 62.08 62.00 64.09 65.08 61.16 60.12 58.99
72.14 72.45 71.82 70.00 68.21 68.84 62.17 61.26 63.37 66.94 67.35 67.24 68.82 71.02 70.93 70.15 69.47 67.81 67.00 64.23 65.38 67.67 66.43 64.05 64.83 64.97 65.71 65.51 63.15 61.79 61.50 60.88 60.73 60.79 62.83 57.91 61.50 60.30 61.99 64.71 61.36 60.64 59.18
71.23 69.80 69.74 68.78 68.46 69.96 60.26 59.32 62.05 65.11 65.95 66.32 67.84 70.41 70.49 69.27 63.35 61.16 62.49 63.05 65.50 66.24 64.00 60.83 60.07 58.68 57.51 57.49 58.51 59.43 57.88 56.97 56.28 57.95 61.23 59.79 59.81 60.73 61.61 61.70 62.68 60.55 57.91
70.74 69.17 68.24 67.73 65.13 70.10 59.28 58.09 61.23 66.89 67.82 66.66 67.52 69.86 62.24 63.94 58.46 57.90 61.08 62.86 62.85 63.80 63.96 64.43 63.87 61.15 58.78 61.10 57.96 60.58 59.98 57.21 56.87 56.18 60.33 57.71 57.85 59.00 56.02 59.75 59.77 58.61 57.76

GFSMA_sfc_wetblb_021.txt.gz
Wetbulb
72.37 71.53 73.53 73.13 72.79 73.13 73.71 72.49 73.93 72.42 71.94 72.23 71.90 70.45 69.46 67.11 68.61 72.58 72.35 76.52 76.21 76.81 76.49 76.68 75.74 75.74 75.86 74.84 75.42 75.28 74.60 73.79 74.15 74.64 74.61 74.14 73.88 74.15 74.42 73.82 73.76 73.39 73.09
71.97 73.58 72.74 72.84 73.72 73.55 74.37 73.17 72.19 71.85 71.61 72.52 72.63 72.73 70.98 67.34 67.64 67.81 72.49 73.23 76.18 75.75 76.60 76.45 76.71 75.86 76.09 75.88 75.65 75.63 75.37 74.61 74.06 73.69 74.79 75.06 74.83 74.96 74.49 73.92 73.71 73.17 73.50
73.17 73.33 73.13 71.97 73.71 73.94 74.03 73.21 72.35 72.29 72.63 73.01 71.61 71.31 68.32 66.75 68.14 67.54 68.32 71.79 73.11 75.41 75.92 77.04 76.97 76.37 76.33 75.95 75.62 75.52 76.22 76.12 75.47 74.76 74.60 74.87 74.92 75.04 74.57 74.77 74.62 74.11 74.07
74.70 73.06 73.69 73.01 73.07 73.39 72.51 71.32 70.95 70.63 71.28 69.22 65.42 64.63 65.31 66.06 67.71 68.64 67.81 69.07 71.82 72.54 75.05 76.26 76.11 76.34 75.88 75.54 75.82 75.59 75.50 76.25 75.85 75.67 75.07 74.92 74.84 75.45 75.38 75.55 74.80 74.63 74.70
75.08 73.21 73.46 73.43 73.33 72.75 71.75 71.58 69.83 69.34 66.04 64.66 64.79 63.94 65.18 67.66 67.24 69.08 68.00 67.58 67.90 70.72 71.95 75.15 75.35 75.47 75.17 75.16 75.36 75.59 75.45 75.28 75.95 75.65 75.68 75.60 75.65 75.50 75.38 75.20 75.12 74.97 75.07
75.68 73.87 72.80 73.21 73.08 71.34 71.51 70.03 69.48 69.22 65.42 65.00 67.01 65.63 65.60 65.83 65.54 68.05 68.39 68.73 67.34 71.85 72.34 71.34 71.83 72.59 75.36 74.76 76.16 75.39 74.80 75.08 75.07 75.33 75.28 75.33 75.53 75.58 75.47 75.34 75.07 74.79 74.64
74.97 73.61 72.18 72.74 73.00 71.46 70.99 69.98 68.00 64.42 64.17 66.25 63.12 65.15 65.01 67.70 65.62 66.59 64.71 63.93 64.20 68.81 70.39 70.58 71.11 71.89 72.87 73.43 74.40 74.50 73.96 73.56 74.02 74.75 74.20 73.63 73.88 74.50 74.69 74.76 74.69 75.15 75.00
74.73 73.31 72.92 72.58 72.27 71.86 71.18 67.32 65.46 63.83 65.10 67.40 62.27 61.44 61.08 64.62 66.46 66.41 63.75 63.05 63.41 65.44 69.12 69.74 69.85 70.03 70.83 69.94 70.07 71.43 71.25 71.96 73.43 73.14 73.11 73.28 72.95 73.22 73.47 73.55 73.25 73.39 74.09
75.48 73.85 73.61 72.72 72.43 70.69 68.04 66.37 65.69 65.01 62.99 66.79 62.83 62.54 59.53 58.57 63.38 65.18 62.83 61.80 62.78 62.76 64.14 64.55 64.61 67.06 69.66 67.85 66.34 66.20 67.71 68.16 68.14 68.47 68.75 68.74 68.94 69.48 70.30 71.29 72.27 72.77 72.98
74.58 74.18 73.83 72.92 71.03 69.81 68.02 66.60 66.73 64.69 64.90 61.93 65.48 65.61 63.10 61.21 58.70 59.49 62.61 61.23 61.54 61.47 61.13 63.40 62.62 62.74 68.63 66.93 66.22 66.65 66.82 67.05 66.06 65.61 65.72 66.24 66.88 67.38 67.68 68.43 70.17 71.20 72.24
73.48 74.62 73.65 72.94 69.63 68.48 68.71 67.38 65.71 64.44 66.12 65.51 64.60 65.27 62.84 62.67 61.04 58.22 57.15 59.66 63.71 61.69 60.73 61.23 62.59 61.85 64.57 63.04 60.83 64.27 67.16 66.50 65.90 65.06 64.33 64.40 65.16 65.97 66.85 67.46 67.82 68.36 69.06
71.71 73.52 73.28 70.88 69.20 66.44 67.83 67.10 67.19 66.20 65.02 65.89 64.87 64.60 61.19 60.52 60.17 59.56 57.15 56.89 59.90 61.88 62.28 62.62 60.87 62.05 61.84 64.02 65.51 67.05 67.92 66.96 66.05 65.68 65.17 64.41 64.36 64.55 65.01 65.76 66.42 66.70 67.18
69.64 71.44 71.96 70.04 68.61 68.01 68.81 68.52 66.58 65.85 64.77 65.21 65.81 63.12 63.92 62.71 61.66 59.96 58.40 57.66 57.59 60.26 61.23 63.04 62.26 63.85 63.72 62.95 64.30 67.59 68.65 67.28 66.09 65.32 65.15 65.35 65.76 65.54 65.39 65.28 65.34 65.79 66.15
70.32 71.36 72.14 70.08 68.65 67.89 69.83 69.14 67.06 66.84 66.21 65.25 64.55 64.45 64.09 62.92 63.12 61.86 59.42 58.66 54.79 56.73 59.08 60.11 63.01 63.68 64.01 62.57 64.47 68.98 64.79 67.04 66.88 66.41 64.99 65.28 65.77 66.20 66.78 66.56 65.73 65.31 65.32
71.45 71.60 72.44 70.27 68.85 68.21 67.84 68.54 67.05 66.42 67.14 65.34 64.88 64.61 63.16 63.31 63.18 63.06 63.57 60.57 57.33 53.80 55.03 58.65 61.13 63.88 63.94 64.71 64.94 64.45 61.77 66.02 66.97 67.03 65.39 64.71 65.01 65.59 66.24 66.51 66.26 66.12 66.20
71.95 71.11 72.06 70.54 69.69 68.58 68.17 68.38 66.14 67.56 66.03 67.38 65.88 66.20 65.03 63.12 63.78 62.92 62.51 60.75 61.01 57.99 56.03 59.47 61.02 62.06 63.14 64.35 66.76 63.37 63.52 67.29 67.40 66.51 65.50 64.44 64.45 65.01 65.57 65.90 65.82 65.52 65.45
71.18 71.40 71.50 70.84 69.00 68.76 69.27 68.09 65.98 65.65 67.11 65.26 66.23 65.85 65.45 64.20 63.00 62.37 63.47 62.18 61.63 61.82 59.24 58.59 59.77 60.62 62.90 61.48 63.04 62.94 64.09 63.76 63.37 65.41 65.47 64.79 63.98 64.06 64.55 64.96 65.08 64.93 64.83
71.76 72.33 71.75 70.86 69.44 67.70 68.74 68.51 65.85 66.54 65.54 65.94 65.47 64.44 64.16 65.99 63.83 63.57 63.91 62.87 62.78 61.90 59.42 57.80 60.42 60.53 61.54 62.81 63.24 62.95 64.67 66.30 63.76 65.40 65.28 64.73 63.79 63.41 63.21 63.06 63.24 63.09 62.82
72.98 72.06 72.17 70.74 69.34 68.52 68.40 69.07 66.80 65.43 65.35 65.73 66.15 65.10 64.50 64.34 64.05 64.77 65.22 63.99 62.95 62.86 61.68 59.95 58.97 60.59 60.23 61.12 60.00 60.39 61.36 61.80 64.24 66.06 63.76 62.91 62.47 62.31 61.73 60.99 60.67 60.08 59.43
73.23 71.45 71.57 70.76 69.59 68.42 68.50 67.85 66.28 65.33 65.58 65.70 65.56 65.84 65.42 64.81 63.79 65.71 64.99 64.56 63.41 62.44 61.80 60.81 59.59 59.55 59.51 60.26 59.99 58.24 57.71 59.11 59.92 63.71 63.92 62.77 62.57 62.86 62.44 60.94 60.40 60.43 58.33
74.07 72.58 71.13 70.35 69.46 68.15 68.52 66.51 66.64 66.01 65.64 65.76 65.64 65.76 66.29 67.29 67.72 67.02 66.17 64.64 64.20 62.60 61.90 61.11 59.41 57.70 58.37 58.80 57.17 58.10 57.73 58.07 58.46 59.72 58.70 57.94 56.73 55.97 57.04 58.97 61.68 63.19 60.84
74.67 72.79 70.94 70.49 69.19 69.01 65.83 65.36 66.99 66.51 65.96 65.82 65.00 66.18 66.27 67.99 67.41 65.70 65.20 63.95 63.78 62.19 60.73 59.81 58.16 57.18 58.42 59.73 58.79 58.23 57.54 56.40 55.31 58.97 56.08 56.47 55.49 55.01 56.05 55.85 60.42 60.49 59.55
75.08 74.02 72.39 70.55 69.93 69.20 63.79 63.52 66.10 65.76 65.88 65.57 65.44 66.53 66.64 67.79 66.08 65.62 63.58 63.58 63.57 63.27 62.92 60.84 57.69 57.69 57.65 58.89 59.67 57.43 56.76 56.42 55.86 58.08 54.47 53.38 54.61 54.30 57.64 58.55 60.05 60.02 59.42
74.64 74.50 73.41 71.18 70.46 69.36 63.06 62.65 65.00 65.12 65.35 65.55 66.36 66.54 64.52 62.97 64.05 64.35 63.91 63.46 63.23 63.41 62.91 62.23 59.64 60.61 59.98 60.80 60.37 59.57 57.95 56.04 54.85 55.09 55.13 51.80 54.53 53.84 55.84 56.48 59.65 59.74 58.76
74.72 74.76 73.54 71.51 70.52 67.29 60.28 60.59 62.70 63.81 64.47 64.43 64.85 64.80 61.28 61.65 62.69 61.58 62.58 61.15 60.97 61.88 62.08 60.53 60.92 60.93 59.94 59.60 60.59 56.56 54.32 53.09 51.31 51.44 53.46 52.87 54.41 50.97 51.31 51.16 52.34 57.66 57.11
74.33 73.28 71.08 70.59 66.85 67.16 59.20 58.53 60.43 63.33 62.80 62.86 63.47 64.40 61.64 62.52 59.94 58.90 62.09 60.20 60.46 60.33 59.76 59.43 59.57 58.79 57.85 57.26 58.91 56.44 56.78 53.36 51.98 50.86 53.98 52.23 50.32 47.93 47.31 49.36 51.35 55.05 56.33

GFSMA_sfc_wetblb_024.txt.gz
Wetbulb
70.31 70.89 71.72 72.61 72.34 72.03 72.05 71.54 73.10 71.98 71.11 71.59 71.18 69.90 68.04 70.23 71.96 71.39 69.78 74.58 75.96 76.69 76.09 75.56 75.42 75.15 74.90 75.23 75.18 74.77 74.09 73.54 73.47 73.56 74.17 74.12 73.23 73.27 72.92 73.02 73.10 73.11 73.03
70.72 71.14 71.27 72.23 73.46 72.87 73.12 72.94 71.66 70.68 70.96 71.71 72.38 72.40 70.07 66.88 70.53 70.70 71.33 73.06 75.89 76.21 76.47 76.95 75.95 75.55 75.89 74.98 75.52 75.34 74.86 74.12 73.82 74.46 74.34 74.87 74.78 73.73 73.14 73.58 73.74 73.47 72.73
71.82 72.63 72.23 70.66 72.41 72.21 74.12 72.43 71.09 70.59 71.73 70.68 69.18 68.67 66.98 65.70 67.75 69.88 70.97 71.19 72.97 75.92 76.18 76.45 76.04 75.77 75.08 75.40 75.35 75.84 76.04 75.62 74.90 74.21 74.42 74.23 74.33 74.03 73.85 73.95 73.88 73.68 73.51
72.73 72.54 72.09 72.02 71.62 71.97 71.27 70.16 69.96 69.06 67.20 64.43 62.84 62.72 63.55 65.59 66.89 67.46 68.62 69.54 71.43 71.57 75.02 76.18 76.70 76.27 75.21 75.44 75.11 75.15 76.04 75.64 75.64 75.36 74.78 74.22 73.92 74.20 74.41 74.69 74.34 74.69 74.67
73.96 72.14 72.14 71.88 72.50 72.06 71.08 70.70 68.54 68.20 64.56 62.85 63.45 63.76 64.43 66.03 66.77 67.73 67.48 68.12 69.94 70.92 70.62 74.38 75.24 75.56 74.95 74.60 74.63 75.05 74.50 74.66 75.67 75.37 75.14 75.09 74.94 74.74 75.02 75.19 74.98 74.86 74.64
74.35 72.37 72.03 72.42 71.87 70.67 70.64 68.92 68.07 68.25 64.07 64.51 66.25 64.54 64.07 64.32 65.27 65.21 67.53 66.01 68.33 70.71 71.93 70.80 70.71 71.95 74.04 74.48 74.41 74.71 74.86 75.14 75.12 74.44 74.92 75.04 75.17 74.74 74.76 74.43 74.45 74.58 74.50
74.13 72.54 71.89 72.23 71.81 69.86 70.04 68.30 65.87 62.79 62.34 64.31 61.20 62.02 64.24 64.22 64.00 64.59 63.30 63.52 67.92 68.96 69.95 70.27 70.84 71.39 72.92 73.57 74.07 73.62 73.80 73.23 73.83 73.77 74.36 73.89 73.65 73.84 73.49 73.64 74.03 74.46 74.71
74.07 72.80 71.45 71.49 71.52 70.86 69.59 66.52 63.83 62.10 63.22 64.76 60.67 60.04 59.39 61.41 63.93 64.27 62.90 64.07 65.11 68.97 69.10 69.56 69.11 69.74 69.20 69.07 70.01 72.25 71.91 72.80 73.15 73.05 72.45 71.61 71.63 71.47 71.93 72.41 73.01 73.36 73.54
74.23 73.24 71.89 71.75 71.24 70.29 67.74 64.91 64.45 62.26 61.72 63.88 61.12 61.15 58.09 57.24 63.00 63.86 60.80 62.65 61.98 63.27 64.79 66.12 68.01 69.38 67.76 66.89 66.61 67.48 69.15 69.87 69.52 69.20 68.84 68.46 68.34 68.19 68.57 69.85 71.03 71.76 72.52
73.87 73.22 72.64 71.72 69.31 69.39 66.15 65.11 66.02 65.05 61.69 60.50 63.19 63.94 61.06 60.05 58.15 58.70 61.23 60.12 59.90 61.20 62.26 61.48 61.97 68.46 66.67 64.30 64.39 65.99 67.60 68.31 67.67 66.40 66.00 65.99 66.18 66.58 66.95 67.60 69.00 69.99 70.58
73.40 73.29 72.46 71.38 68.68 67.88 66.37 65.88 63.94 64.83 64.61 62.95 63.13 63.55 61.33 61.64 57.58 56.99 55.76 58.34 60.43 59.80 59.21 60.66 60.95 63.78 66.87 64.32 61.91 64.74 67.69 67.56 67.26 66.25 65.01 64.70 64.67 64.80 65.09 65.81 66.36 66.76 67.38
72.66 72.83 72.65 71.42 67.98 67.15 67.31 65.68 64.06 64.19 65.07 64.58 63.48 62.89 59.96 58.57 58.44 58.56 55.57 55.54 56.66 59.27 60.09 59.93 60.66 60.66 64.61 63.26 63.77 65.58 68.65 67.39 66.71 66.62 66.51 65.64 65.01 64.99 65.03 65.24 65.73 66.00 66.42
69.30 71.79 71.52 69.59 67.08 65.89 66.86 65.59 65.62 65.58 64.48 63.81 62.43 61.58 62.45 60.84 60.13 57.40 56.07 56.21 55.48 58.69 58.78 60.66 60.95 60.12 61.78 62.59 62.80 67.46 68.96 67.05 66.17 65.43 65.52 66.25 67.00 66.72 66.06 66.27 66.54 66.31 66.02
70.36 71.34 71.55 69.56 67.72 67.05 67.24 66.51 64.80 65.33 64.23 63.77 64.14 62.80 61.80 61.67 61.51 59.60 57.52 56.55 53.72 55.04 57.63 57.80 61.07 62.21 61.31 62.07 64.22 69.62 64.39 66.85 66.51 65.34 65.16 65.32 65.98 66.69 67.45 67.75 67.39 67.21 66.47
69.92 70.95 70.85 68.95 67.47 66.75 67.91 67.26 65.09 64.76 65.45 64.01 63.24 62.50 63.13 61.49 62.26 61.39 61.26 57.94 55.87 52.97 53.25 56.60 58.51 61.72 62.47 61.64 63.62 65.70 62.21 65.53 66.58 66.12 65.46 64.93 65.31 65.99 66.62 67.05 67.15 67.26 67.02
70.12 70.22 70.58 68.92 67.65 66.25 67.09 67.08 65.40 64.80 65.36 65.34 65.15 64.06 62.92 62.02 61.97 61.60 61.32 59.75 58.29 55.57 53.20 57.54 59.53 60.22 61.47 63.03 64.52 63.85 62.72 65.44 65.69 65.98 65.37 64.94 65.04 65.17 65.77 66.01 66.23 66.22 66.19
69.72 69.77 70.72 69.36 68.00 66.67 66.14 67.01 65.52 65.67 64.19 64.07 65.53 64.47 63.81 62.87 62.06 60.71 62.47 60.70 60.16 60.45 58.71 58.78 58.96 58.78 61.52 60.24 61.38 63.07 62.83 61.98 62.67 64.94 65.13 64.96 64.30 64.30 64.83 65.02 65.04 65.20 65.53
70.07 70.14 70.30 69.80 68.72 67.61 66.65 67.05 66.16 66.02 65.45 64.36 63.79 64.49 63.64 65.16 63.83 62.52 62.14 61.65 61.24 60.67 59.64 57.64 58.85 59.71 59.85 60.63 60.65 61.04 62.24 64.29 63.21 64.85 64.29 63.88 63.46 63.17 62.82 62.70 62.65 62.78 62.87
70.44 70.60 70.23 70.05 68.75 67.84 67.62 67.27 67.08 65.70 64.77 64.89 64.96 63.92 63.48 62.39 62.26 62.11 63.04 62.61 62.96 63.56 61.93 60.59 58.33 59.50 59.59 59.79 59.62 59.18 60.16 60.45 62.53 65.50 63.83 62.87 62.27 61.78 61.28 60.43 59.91 59.39 58.93
70.92 70.58 70.35 70.14 69.50 68.00 66.99 68.08 67.63 65.81 64.85 64.58 64.82 65.05 64.28 63.51 62.98 63.67 63.83 64.49 63.59 63.00 61.92 61.08 60.56 60.72 60.07 59.99 60.48 58.11 57.22 57.73 58.48 61.77 62.87 62.05 61.91 61.70 60.77 59.36 59.94 60.32 58.39
72.55 71.03 70.61 70.20 69.54 68.60 67.85 66.85 67.25 66.18 64.58 64.31 64.53 64.92 64.98 65.53 66.05 63.96 64.87 64.07 64.09 62.59 61.61 60.86 60.18 60.35 59.51 57.62 58.26 58.98 57.21 57.45 58.49 58.05 57.26 56.70 56.48 55.29 56.09 57.58 59.12 60.95 59.64
74.11 71.24 70.17 70.00 68.52 68.63 65.51 65.33 67.27 66.18 65.46 64.91 64.18 64.08 64.80 66.61 66.38 65.26 64.80 64.54 63.66 62.16 61.12 60.30 60.04 59.11 58.82 58.40 58.09 57.84 56.62 55.34 54.27 58.10 56.22 55.30 54.56 53.64 54.70 54.89 58.65 59.47 58.94
72.88 71.95 69.70 69.53 68.46 68.75 63.66 63.84 65.71 65.80 65.26 65.85 65.43 63.96 64.67 66.82 66.02 65.16 63.33 63.28 63.23 63.06 63.14 61.95 59.90 59.25 57.17 57.43 57.58 56.82 56.02 55.20 54.60 57.41 54.16 51.63 53.31 52.74 55.38 56.91 59.08 59.20 58.60
73.09 72.91 71.14 70.09 69.83 69.23 62.98 62.07 64.96 66.76 66.58 66.44 65.90 65.80 64.82 65.43 63.93 64.33 63.53 62.03 62.70 63.35 63.14 63.02 61.90 61.18 59.49 59.03 58.75 58.71 57.39 55.60 54.38 55.05 53.85 50.98 53.12 52.85 54.60 55.02 58.51 59.23 57.53
74.24 73.71 73.41 70.88 69.91 69.34 61.36 60.23 64.03 65.91 66.00 65.83 66.29 66.65 66.54 63.89 61.15 60.95 61.99 60.97 61.59 61.78 62.26 60.34 60.52 59.93 59.16 59.12 59.78 57.34 56.10 52.59 51.36 51.52 52.49 51.76 52.00 51.63 50.82 50.71 51.11 55.91 55.74
74.03 74.22 73.78 71.88 68.26 70.37 58.74 58.38 63.75 65.35 64.05 63.53 64.66 64.73 61.02 61.10 58.19 57.53 60.63 59.91 58.61 59.39 60.19 59.68 58.26 57.98 58.28 57.87 58.72 58.07 55.54 53.36 51.51 50.43 53.30 51.72 50.50 48.87 46.45 46.66 48.14 50.13 51.90

GFSMA_sfc_wetblb_027.txt.gz
Wetbulb
70.06 70.21 70.99 71.65 71.17 71.88 72.38 71.89 72.42 71.43 70.26 71.09 70.37 67.83 68.41 67.85 68.92 70.28 68.83 73.95 75.24 75.84 75.38 74.83 74.86 74.93 75.07 74.58 75.25 74.56 74.65 73.76 74.02 73.45 73.21 73.95 73.32 72.58 72.31 72.60 72.54 72.45 72.78
70.89 70.39 69.91 71.72 72.09 72.73 73.09 72.75 71.53 70.33 70.25 71.24 72.07 70.62 67.66 67.83 70.13 70.71 69.68 69.89 75.20 75.27 76.41 75.43 74.83 74.90 74.85 75.01 74.74 75.06 74.40 73.61 73.21 73.34 73.84 74.32 74.29 73.13 72.72 72.95 72.99 73.19 73.05
70.84 70.43 70.41 70.32 71.36 71.53 72.99 72.83 70.11 70.86 70.17 67.83 64.68 64.56 64.81 66.77 67.23 71.05 69.71 70.48 71.80 75.29 75.17 76.51 76.62 75.79 74.06 74.99 75.07 75.08 74.94 75.46 74.29 73.84 74.49 73.99 74.04 73.99 73.30 73.50 73.51 73.52 73.37
71.33 71.34 70.75 70.58 71.30 71.63 71.69 69.52 69.08 67.75 65.17 63.92 61.92 62.71 63.47 65.27 66.50 68.23 69.93 70.09 70.82 71.23 73.55 75.53 76.00 75.63 74.87 74.54 74.20 74.82 75.34 74.15 74.55 75.19 74.92 73.71 74.17 74.25 74.25 74.23 73.60 73.31 73.71
72.62 71.66 71.58 71.52 71.33 70.53 70.92 69.94 68.03 67.04 63.02 63.25 62.83 63.56 63.60 66.35 66.77 66.56 66.84 66.94 69.69 70.43 69.70 73.71 74.91 75.18 74.48 74.07 74.38 74.75 74.43 75.21 75.13 74.50 74.55 74.53 74.43 74.45 74.53 74.60 74.55 74.45 74.10
73.77 71.74 71.21 71.62 71.63 70.33 69.86 68.10 66.97 66.89 63.02 63.13 65.19 63.42 63.55 63.32 64.57 65.44 66.61 66.57 66.89 69.76 71.13 69.73 70.04 71.01 74.30 74.74 74.35 74.69 74.58 75.09 74.54 74.90 74.98 74.70 74.38 74.18 74.40 74.29 74.27 74.49 74.41
73.39 71.95 71.10 71.36 70.76 69.52 69.16 67.93 65.62 62.74 60.85 63.68 59.97 59.71 63.10 63.26 63.25 63.12 62.45 65.14 68.59 69.63 69.36 69.13 69.37 70.80 71.95 74.01 74.15 73.71 73.55 73.46 73.40 73.92 73.65 74.03 73.93 73.96 74.01 73.90 73.74 74.11 74.19
73.12 72.25 70.88 71.05 70.62 69.41 68.64 67.14 63.48 61.13 62.18 63.54 59.32 59.06 58.53 60.46 61.80 61.86 63.59 66.82 66.97 68.71 68.71 69.26 68.80 69.21 68.74 69.08 71.12 73.14 73.21 73.63 73.19 72.79 72.49 72.05 71.99 71.56 71.56 71.57 72.13 72.81 73.35
73.29 72.81 71.16 70.84 70.56 69.93 68.45 65.02 63.42 61.65 60.93 63.21 60.20 60.65 57.40 56.48 60.06 62.44 60.08 62.82 65.29 65.69 66.32 67.29 67.72 68.26 67.12 66.70 66.81 68.75 70.74 71.73 71.17 70.58 69.75 69.01 68.66 68.10 67.93 68.42 69.61 70.63 71.14
73.23 72.80 71.58 71.08 70.54 69.87 67.16 64.56 64.63 62.11 60.98 61.12 62.34 62.74 59.92 60.13 57.61 57.03 59.04 60.25 59.43 61.98 62.28 62.46 66.09 68.04 66.01 63.77 64.52 65.68 68.40 68.87 68.33 66.85 66.69 66.53 66.30 66.43 66.49 66.84 67.88 69.13 69.64
72.63 72.89 71.85 70.97 68.94 68.94 66.50 64.95 64.28 64.42 61.50 60.99 61.61 61.62 59.73 60.12 57.43 57.10 54.41 56.81 58.89 58.72 59.40 60.54 60.34 66.36 66.14 63.90 61.52 63.32 68.27 67.93 67.79 67.34 66.05 65.11 64.54 64.54 64.73 65.08 65.73 65.99 66.71
71.97 72.21 71.85 70.64 68.18 67.32 65.88 65.11 64.10 63.96 64.39 63.55 62.84 62.18 58.73 57.68 57.71 57.02 55.17 55.16 55.90 57.92 58.74 58.03 59.81 60.11 66.28 64.79 65.06 65.35 68.76 67.79 66.84 66.66 66.55 66.69 65.70 65.65 65.48 65.85 66.20 66.31 66.07
69.80 71.15 71.23 70.20 67.41 66.69 66.59 64.96 63.24 62.98 63.85 63.39 62.13 61.59 61.66 59.63 59.28 56.38 54.78 55.14 54.83 57.22 58.22 59.43 59.85 60.17 61.35 64.16 63.29 67.37 68.73 67.76 66.31 65.60 65.56 65.88 66.94 67.39 66.83 67.19 67.39 67.59 67.59
71.06 71.92 71.73 70.90 67.72 66.18 66.53 64.90 64.36 63.79 63.10 63.18 62.48 61.93 62.49 61.09 60.27 58.33 56.71 56.11 53.43 53.94 56.22 57.19 59.36 59.66 59.51 60.48 63.39 66.89 64.91 67.47 66.34 65.45 64.99 65.35 65.86 66.88 67.71 68.24 68.10 67.83 67.80
71.37 70.29 71.80 70.61 68.31 66.05 66.44 65.16 64.01 63.92 63.56 62.61 62.81 62.76 62.16 60.65 61.20 60.29 58.46 56.90 55.18 52.34 54.42 56.65 57.61 60.07 61.58 60.86 62.54 63.67 65.05 65.20 66.59 65.98 65.36 65.05 65.20 65.77 66.52 67.08 67.40 67.58 67.74
69.93 70.14 70.79 70.05 68.16 66.40 66.42 65.96 64.27 63.78 64.43 63.42 62.79 62.07 61.94 60.90 60.41 60.68 59.71 57.86 56.38 55.28 53.17 56.08 59.27 59.17 60.32 62.31 63.23 64.04 63.94 66.40 65.38 65.53 65.29 64.70 64.94 65.62 65.88 66.17 66.39 66.54 66.69
69.05 69.64 70.22 69.28 67.79 66.35 66.44 66.14 65.20 64.31 63.38 63.74 63.71 62.94 61.99 61.45 60.82 61.54 60.72 59.48 58.75 57.09 55.22 58.73 60.01 59.62 59.99 59.60 60.42 61.50 63.65 61.58 61.26 64.34 64.67 64.67 64.41 64.56 64.85 64.96 65.03 65.01 65.23
68.96 69.19 69.86 68.99 68.07 67.06 65.65 66.86 65.78 65.70 63.80 62.40 62.97 63.77 63.30 63.95 62.09 61.38 61.00 60.14 58.82 59.82 59.30 57.89 59.40 60.31 60.14 59.86 60.03 59.93 61.84 63.46 62.78 64.72 64.03 63.53 63.29 63.00 62.49 62.23 61.65 61.70 61.75
69.18 69.31 69.33 69.31 68.12 67.14 66.01 65.75 66.66 65.82 64.81 64.38 62.80 62.86 63.48 62.73 61.66 61.56 60.36 60.30 60.64 62.35 62.01 60.03 59.50 60.38 60.27 59.85 60.52 59.94 59.81 59.79 61.59 64.24 62.89 62.81 61.76 61.24 60.48 59.17 58.66 58.39 57.93
70.09 69.26 69.01 69.57 69.07 68.09 67.24 66.49 65.72 65.38 64.39 64.63 64.54 64.05 63.23 63.01 61.98 61.36 61.33 61.01 61.27 61.21 62.14 61.08 60.63 60.56 60.61 60.55 60.40 59.11 58.66 58.65 59.21 61.43 62.71 61.84 61.60 61.21 60.94 59.24 58.98 59.25 57.52
71.24 70.27 69.25 69.30 69.28 68.47 68.12 67.24 66.40 65.75 64.56 64.39 64.34 64.73 64.58 64.85 65.35 63.22 62.53 62.08 61.81 61.07 60.86 60.19 59.95 59.59 59.10 59.06 58.27 58.76 57.79 57.15 57.46 58.62 56.96 56.82 56.29 55.32 54.95 57.23 58.85 60.38 58.67
71.91 70.35 69.66 69.18 68.94 68.87 65.45 64.91 67.40 66.78 65.16 64.85 64.22 64.47 64.44 66.51 65.87 64.30 64.08 64.06 63.62 62.00 59.10 58.31 59.57 58.92 59.15 58.68 59.31 58.77 57.38 55.87 54.45 57.69 54.92 55.06 55.25 54.61 54.48 54.23 58.60 59.48 58.59
72.04 70.27 70.13 69.74 68.81 68.76 63.48 63.44 65.60 66.83 65.42 64.99 64.52 65.63 64.98 66.11 65.36 64.49 63.64 63.56 63.36 62.70 62.86 60.54 59.09 59.93 59.11 59.65 58.64 55.42 55.19 54.77 54.13 56.41 55.08 52.77 53.11 52.45 55.13 55.39 58.43 58.68 58.27
71.78 72.09 70.20 69.86 69.38 68.87 62.80 61.47 64.45 66.18 65.17 65.60 66.25 65.98 65.38 65.20 65.51 63.65 62.31 61.45 61.72 62.86 61.70 62.37 61.71 61.20 60.33 60.43 59.08 57.60 56.89 55.29 54.47 55.79 54.42 50.97 53.61 53.16 54.69 54.25 57.95 58.91 58.08
72.04 71.90 71.22 69.72 69.22 69.18 60.85 59.80 62.63 66.61 66.04 65.88 66.49 66.14 65.76 65.16 62.30 60.89 62.89 60.81 60.27 60.37 61.40 60.26 60.10 59.72 59.50 59.33 59.29 56.81 55.48 53.33 51.87 51.92 53.01 51.46 51.62 51.17 51.18 51.95 53.56 57.03 56.19
73.38 72.87 72.01 70.93 68.22 70.32 59.45 58.31 62.62 66.92 65.81 65.60 65.79 65.88 62.33 63.74 58.25 57.93 62.04 60.22 59.45 59.14 58.99 59.58 58.76 57.92 57.98 57.54 58.63 57.85 56.35 53.08 50.12 48.76 51.96 51.05 49.44 49.01 47.03 47.14 46.80 48.50 48.37

GFSMA_sfc_wetblb_030.txt.gz
Wetbulb
71.80 71.75 71.81 72.43 72.51 72.87 72.89 72.97 73.50 72.89 72.08 72.71 72.11 70.53 70.45 69.95 70.10 70.96 70.77 72.65 74.42 75.34 74.58 74.81 75.40 74.73 74.47 74.31 74.14 74.43 73.92 73.79 74.01 73.45 73.67 73.71 73.30 73.12 72.41 71.86 72.02 72.02 72.23
71.99 71.61 71.81 72.17 73.50 73.40 73.92 73.30 72.71 72.67 72.42 72.48 72.89 72.02 70.43 70.46 70.92 71.80 71.79 71.11 74.93 75.23 75.34 74.67 74.39 75.02 74.75 75.02 74.65 74.45 74.72 74.17 73.41 74.07 73.05 74.20 73.99 73.09 72.39 72.44 72.63 72.84 73.10
72.29 72.28 72.00 71.73 72.66 73.31 73.54 73.29 72.37 72.38 69.35 67.72 66.87 66.49 68.09 69.96 68.68 72.22 72.07 71.24 72.44 73.82 75.44 75.48 75.07 74.77 74.14 74.73 74.96 75.10 75.15 75.35 73.81 73.37 74.11 74.16 73.63 74.04 73.46 72.87 73.21 73.32 73.36
72.55 72.27 72.31 71.72 72.78 73.19 73.55 71.90 71.44 70.37 67.84 66.94 65.43 66.11 67.16 67.66 67.91 71.06 72.12 71.89 72.39 72.83 72.94 75.31 76.08 74.97 74.12 74.05 73.54 75.14 75.17 74.48 73.99 74.95 74.78 74.55 74.13 74.02 74.38 74.31 73.54 73.34 73.19
72.84 72.34 72.50 72.74 72.90 72.63 72.40 71.93 70.17 69.43 66.36 66.32 66.83 66.66 67.09 67.00 67.81 69.16 70.55 71.72 71.27 72.84 72.11 72.81 74.77 74.35 73.91 73.94 74.05 73.78 74.19 74.23 73.96 74.71 75.01 75.04 74.43 74.51 74.99 74.71 74.56 74.41 73.86
73.39 72.85 72.66 73.16 73.05 72.19 71.94 70.69 69.81 68.24 66.36 65.89 65.23 65.72 66.17 66.49 67.65 68.64 68.90 69.01 70.17 72.47 72.19 72.14 73.27 73.05 74.01 73.34 74.72 74.53 73.79 73.79 74.39 74.76 74.34 74.66 74.84 74.64 74.46 74.58 74.55 74.45 74.12
74.11 73.32 72.45 72.91 72.85 72.05 71.73 70.18 68.66 66.95 65.25 65.87 64.14 64.61 65.64 65.26 65.93 65.32 66.63 70.16 71.49 71.79 71.80 71.69 72.00 73.12 73.02 73.70 73.04 73.05 73.43 73.37 73.58 73.79 73.84 73.27 73.51 74.46 74.31 73.95 74.24 74.22 74.32
73.94 73.47 72.47 72.55 72.21 71.47 70.83 69.61 67.53 65.16 64.68 65.69 62.98 62.52 62.23 64.66 65.52 64.17 66.00 68.78 70.21 71.16 71.12 71.36 71.56 71.65 71.77 72.59 73.24 73.27 73.57 73.41 73.34 73.09 72.82 72.55 72.05 71.29 71.33 70.79 71.10 72.16 72.67
73.89 74.01 72.60 72.56 72.14 71.62 70.18 69.28 66.82 65.40 64.44 65.57 63.54 63.94 60.92 60.66 63.01 64.87 63.49 66.35 68.62 69.02 69.62 70.36 70.47 70.23 69.94 70.50 69.28 70.56 71.29 71.98 71.50 70.94 70.44 69.78 69.20 68.52 68.30 68.42 68.62 69.74 69.79
72.99 74.07 72.85 72.44 72.28 71.88 70.68 69.17 66.93 65.37 65.43 65.25 64.84 64.22 63.08 64.03 61.16 60.33 63.19 63.60 63.98 67.02 67.47 67.96 69.50 70.35 69.15 67.94 66.04 66.68 68.80 69.12 69.10 67.11 66.57 66.51 66.48 66.53 66.68 67.21 67.93 68.74 68.96
73.57 73.48 73.18 72.31 71.94 71.74 70.81 68.40 66.86 66.70 64.95 64.76 64.56 63.78 63.33 61.59 61.74 61.26 59.23 61.53 63.17 63.53 64.69 65.17 65.50 69.40 69.42 67.82 65.74 64.65 68.13 68.19 68.17 68.01 66.53 64.94 64.62 64.66 64.76 64.94 65.30 66.19 66.63
72.83 73.35 73.09 72.45 71.91 71.13 70.03 68.22 67.48 67.29 66.14 65.77 65.55 65.07 63.41 63.10 61.54 60.63 59.79 59.97 60.88 62.86 63.46 63.22 63.79 64.57 69.15 68.69 67.01 65.01 68.37 67.99 67.18 67.15 67.19 67.13 65.76 66.19 66.77 67.23 67.26 67.47 67.34
71.89 72.37 72.71 71.84 70.64 70.23 69.74 68.08 67.01 66.63 66.92 66.04 65.92 65.18 64.29 62.97 62.94 61.30 60.07 59.20 60.24 61.24 62.72 63.60 63.55 64.31 64.29 68.70 68.33 68.42 67.91 68.08 66.96 66.18 66.02 66.23 66.88 67.28 67.24 67.67 67.92 68.28 68.34
71.73 73.02 72.80 72.48 71.31 69.94 69.10 67.84 66.68 65.72 66.67 66.44 65.54 65.36 64.92 64.29 62.84 62.05 61.50 61.00 59.04 59.15 60.73 63.34 63.74 65.12 64.57 64.76 67.57 68.02 67.92 66.63 67.19 65.63 65.43 65.50 65.85 66.50 67.47 67.86 68.16 68.28 68.32
72.08 72.56 72.83 72.50 71.65 69.91 68.92 67.54 66.38 65.80 65.95 66.00 65.94 65.98 65.24 64.27 64.50 63.36 62.07 61.85 61.65 58.01 58.95 61.68 62.41 64.93 65.79 65.12 65.22 67.52 67.67 66.90 66.63 66.31 65.27 65.17 65.52 65.86 66.49 67.12 67.31 67.44 67.81
72.53 71.91 72.43 72.32 71.59 69.68 68.78 67.43 66.66 66.58 66.39 65.33 65.01 65.63 65.36 64.20 64.42 64.12 63.94 62.10 61.19 61.13 59.41 60.62 62.84 64.19 64.98 65.60 65.25 67.26 66.42 66.45 66.37 65.25 65.10 64.86 64.99 65.57 66.14 66.36 66.58 66.58 66.63
71.63 71.43 72.00 72.02 71.25 69.71 68.38 67.78 67.08 66.42 66.27 66.13 65.94 65.21 65.21 65.17 63.75 63.99 64.02 62.57 61.91 61.20 60.68 62.49 62.02 63.48 63.57 65.41 65.36 65.91 66.30 66.78 66.31 64.02 64.46 64.29 64.00 64.44 64.91 65.08 64.97 64.84 64.60
71.14 71.25 71.53 71.59 71.01 69.98 68.85 67.79 67.13 67.07 65.95 65.72 66.12 65.59 65.21 64.42 64.62 64.86 63.76 64.00 63.73 63.83 62.94 63.38 63.26 62.39 63.64 62.92 63.82 63.94 64.67 65.41 65.88 65.04 64.18 63.60 63.16 63.15 62.75 62.47 61.79 61.09 60.72
70.68 70.75 71.07 70.81 70.09 69.56 68.37 68.47 67.99 67.38 66.94 66.53 66.06 66.09 66.15 65.81 65.35 64.61 64.14 63.39 63.67 64.48 64.49 62.94 63.33 62.75 64.14 64.37 63.83 62.17 64.83 64.86 63.78 64.34 62.90 62.56 61.88 61.51 60.53 59.40 58.62 57.89 57.12
70.39 70.33 70.46 70.72 70.32 69.67 69.13 68.25 68.13 67.83 67.38 67.10 66.88 66.15 66.18 66.04 65.78 65.37 64.74 64.75 64.72 65.02 64.65 64.43 63.88 64.00 63.54 64.24 63.23 60.25 61.27 61.89 61.40 62.74 64.17 62.54 62.32 61.46 61.01 59.23 58.98 59.47 57.66
71.48 70.54 70.45 70.47 70.57 69.78 69.16 68.48 67.81 67.63 67.21 66.99 67.42 67.19 66.61 65.95 65.87 65.25 65.03 65.12 65.05 64.80 64.30 63.61 62.58 62.03 61.62 61.28 60.49 61.27 59.16 60.35 61.82 62.88 62.84 62.51 62.41 62.18 62.48 60.20 60.51 60.77 59.04
72.53 71.15 70.27 70.11 69.98 69.91 65.80 64.99 67.73 67.49 67.21 66.92 66.34 66.79 67.38 66.75 66.13 64.00 63.74 63.98 65.28 64.78 64.38 63.57 62.70 62.05 63.01 62.43 62.03 61.56 59.72 60.66 58.31 62.44 61.14 61.31 61.52 61.64 62.53 61.79 60.09 59.21 58.64
72.05 71.48 70.83 70.54 70.01 70.26 63.00 63.58 65.72 68.61 67.47 67.10 66.99 66.89 66.39 67.42 66.31 67.05 63.83 63.20 63.15 63.03 63.87 64.75 63.20 62.64 63.56 63.93 63.29 61.33 60.69 60.21 59.58 61.99 60.99 59.59 60.76 60.10 61.71 60.87 58.75 58.62 58.23
71.47 71.54 71.23 70.98 70.44 70.45 61.76 61.73 64.88 69.04 68.36 67.93 67.42 67.19 67.52 67.26 66.35 66.41 66.97 65.66 65.37 65.79 65.19 65.62 65.41 65.67 65.10 64.63 64.22 63.25 61.67 60.97 60.64 60.95 60.46 57.42 59.94 58.62 60.00 60.30 58.64 58.58 57.72
71.68 71.63 71.74 71.02 70.42 70.71 60.85 60.66 62.94 68.25 67.36 67.00 67.20 67.46 66.86 66.42 63.13 61.36 65.19 65.04 64.82 64.06 61.93 60.41 60.77 59.88 59.48 59.46 61.71 61.81 60.25 58.92 58.39 58.24 58.32 57.54 58.01 57.06 57.94 58.15 58.92 57.31 55.67
72.32 72.25 72.10 71.88 68.58 70.95 60.50 58.44 62.62 68.21 66.64 66.70 67.47 66.88 62.70 65.86 58.72 58.36 65.97 64.45 63.02 62.92 63.91 63.26 64.46 61.53 60.56 61.43 59.60 62.26 61.15 58.51 57.21 55.70 57.75 55.86 56.17 55.73 51.82 55.87 54.88 56.23 56.55

GFSMA_sfc_wetblb_033.txt.gz
Wetbulb
76.36 77.03 76.79 76.41 76.84 75.10 75.12 77.53 75.36 75.39 75.83 75.58 75.31 74.41 73.22 74.63 74.38 75.26 74.74 72.53 74.20 74.25 73.62 74.16 74.94 74.75 74.63 74.34 74.28 73.67 73.87 72.83 73.37 73.74 73.74 73.73 73.50 73.63 72.89 71.74 71.95 72.16 71.61
76.62 76.50 76.36 75.88 76.00 76.44 77.00 75.13 76.98 74.74 75.30 75.30 75.13 75.14 74.27 74.66 74.38 74.82 75.18 74.03 73.71 74.21 74.25 73.70 74.18 75.08 74.94 74.44 74.48 74.54 74.75 74.17 73.96 73.91 73.58 73.28 73.78 73.18 72.48 72.14 72.45 72.64 72.78
76.33 76.95 76.63 75.75 77.20 77.86 77.89 77.31 74.83 74.73 70.42 69.33 70.33 72.19 72.56 73.57 74.05 74.47 75.48 74.97 73.85 73.27 73.48 74.29 74.01 74.09 74.44 75.07 75.14 74.80 74.77 74.59 74.09 73.50 74.19 73.39 73.55 74.13 73.57 72.95 72.57 73.32 73.29
76.67 76.68 76.16 75.90 76.82 77.45 78.50 77.05 73.70 74.98 73.12 69.83 68.22 71.89 73.23 72.41 70.12 73.55 74.94 75.38 75.36 74.98 73.58 73.76 74.76 74.07 73.96 73.81 74.05 75.23 74.90 74.85 75.06 74.88 74.55 73.71 74.41 74.04 74.06 74.17 73.59 73.46 73.22
76.61 76.34 76.17 76.41 77.17 76.98 77.69 76.42 75.53 74.61 71.94 71.65 71.60 72.02 71.89 71.12 72.10 72.87 73.56 74.84 75.35 75.33 75.08 72.91 74.73 74.39 73.51 73.50 73.46 73.44 74.27 75.58 75.10 73.64 74.04 74.12 74.59 74.62 74.95 74.55 74.40 74.38 73.90
76.89 76.75 76.38 77.06 76.89 76.02 76.08 76.38 75.39 73.95 72.00 71.50 69.70 70.69 71.07 72.02 72.66 73.40 72.74 73.14 74.58 75.44 75.36 75.14 74.69 74.09 73.35 72.38 73.75 73.23 73.17 73.71 74.26 74.22 74.40 74.57 74.65 74.65 74.50 74.40 74.64 74.74 74.64
77.21 77.28 76.44 76.75 76.75 75.91 76.14 76.16 74.81 72.77 70.70 72.15 69.86 70.05 70.17 70.95 70.75 71.20 72.16 74.24 73.94 74.49 74.82 74.76 75.23 74.98 75.08 73.41 73.28 73.28 73.43 73.42 73.21 73.49 74.35 74.05 73.80 73.58 73.60 73.05 73.05 73.56 73.99
77.76 77.34 77.10 76.53 76.78 75.70 75.95 75.31 73.70 72.15 71.65 71.92 69.06 69.47 66.30 68.08 69.77 69.93 70.69 73.38 73.61 73.85 73.60 73.69 73.84 74.34 74.37 74.26 74.23 73.65 73.77 73.56 73.59 73.69 72.96 72.54 72.21 71.63 71.07 70.28 70.45 69.96 70.99
77.73 77.68 77.71 76.89 76.92 76.27 74.81 75.31 73.71 72.10 69.40 70.69 69.36 68.49 65.36 64.70 68.29 70.02 69.87 73.00 73.54 72.58 72.67 71.94 71.88 73.29 73.03 71.14 70.14 71.05 71.67 72.17 71.39 70.54 69.72 69.15 68.69 68.52 68.44 68.50 68.64 68.71 68.90
77.47 77.56 77.71 77.09 77.22 76.13 75.98 75.33 74.06 72.69 70.75 68.86 69.21 70.01 70.26 70.08 65.44 63.93 68.42 70.73 72.50 71.37 72.03 72.04 71.47 72.19 72.07 70.28 66.66 67.83 68.42 68.96 68.79 67.30 67.09 66.85 66.78 66.81 66.92 67.07 67.36 68.05 68.39
77.34 76.99 77.45 77.26 76.93 76.28 76.49 76.03 74.01 72.33 70.60 69.89 68.90 68.37 69.20 68.77 69.61 66.73 64.14 65.98 69.15 69.87 71.26 70.93 71.24 71.84 71.90 71.44 68.77 66.76 66.86 68.40 68.17 66.17 65.77 65.54 65.50 65.45 65.77 65.97 66.15 66.81 67.10
75.81 76.85 77.06 77.43 77.33 76.81 76.43 75.90 75.07 73.41 71.75 70.99 70.54 69.94 68.08 66.92 66.19 67.02 65.84 66.22 66.10 67.64 68.59 69.07 69.56 69.56 71.35 71.18 69.96 67.72 67.71 68.17 67.76 67.98 67.72 65.61 65.74 66.46 66.99 67.42 67.72 67.94 68.18
74.81 76.56 77.39 77.10 76.52 77.05 76.79 76.16 74.86 73.52 72.46 70.86 71.55 70.07 69.88 68.72 69.24 67.74 66.83 66.57 65.14 67.15 68.21 69.13 68.75 69.03 69.08 70.90 71.33 69.66 68.76 68.15 67.49 66.81 66.62 66.75 66.79 66.93 67.43 67.69 67.97 68.25 68.65
75.36 77.39 77.45 77.35 77.18 76.79 76.07 75.51 74.39 73.07 72.64 71.78 71.42 71.31 70.13 69.83 68.82 68.54 67.51 66.04 63.88 64.80 66.53 67.71 69.77 69.00 69.25 69.76 71.00 70.12 70.36 67.46 67.34 66.55 66.11 66.31 66.03 66.80 67.33 67.95 68.34 68.32 68.53
75.52 76.74 77.23 77.09 77.12 76.66 75.82 75.08 73.86 72.89 71.97 71.93 71.38 71.43 70.32 69.86 69.49 68.63 67.83 67.65 65.31 62.02 62.82 66.71 66.31 69.64 70.47 70.63 70.11 70.26 70.86 68.98 67.12 66.75 66.09 65.66 65.72 66.29 66.79 67.31 67.61 67.84 68.35
76.59 76.22 76.44 76.69 76.79 76.58 75.69 74.88 73.60 73.32 71.82 70.97 70.64 71.03 70.88 69.96 69.82 69.44 68.79 67.93 67.08 65.40 62.65 66.49 66.72 69.43 70.54 69.80 70.01 70.40 70.30 68.20 66.92 66.51 65.88 65.30 65.37 65.94 66.16 66.55 66.76 66.98 67.07
76.67 76.65 76.41 76.29 76.45 76.20 75.75 74.54 74.00 72.98 71.57 71.59 71.12 70.75 70.74 71.53 69.30 69.17 68.94 68.52 67.39 66.49 64.32 66.30 67.45 69.41 68.65 69.39 69.65 70.95 69.88 70.23 69.38 65.57 65.01 64.57 64.17 64.68 65.01 65.43 65.48 65.23 64.65
76.50 77.22 76.62 76.30 76.27 76.05 75.55 74.48 73.60 72.73 71.85 71.29 71.05 70.76 70.12 69.55 70.26 70.19 68.78 69.25 68.54 68.50 66.37 66.81 68.34 67.63 68.05 69.81 69.42 69.49 68.81 68.31 68.31 66.86 64.94 64.44 63.84 63.40 63.51 62.90 62.27 61.66 61.16
76.60 75.89 76.37 76.16 75.74 75.88 75.28 74.66 74.52 73.22 72.57 72.05 71.65 70.93 70.59 70.16 69.16 69.03 68.76 68.34 68.09 68.53 68.31 66.58 66.05 67.69 68.03 68.60 68.44 68.98 68.71 68.58 67.60 66.26 63.27 63.16 63.01 62.72 61.61 60.55 59.73 58.76 57.90
76.39 76.37 76.56 76.43 75.98 75.51 75.38 74.90 74.56 73.79 73.19 72.64 72.32 71.52 71.21 70.64 70.00 69.85 68.89 69.26 69.10 68.15 68.16 66.89 66.36 66.66 67.46 68.44 67.40 65.59 65.16 65.96 66.49 64.79 64.87 63.63 63.91 63.87 62.42 60.55 59.78 59.39 57.51
76.31 76.58 76.31 76.51 76.03 75.31 74.61 74.85 74.44 73.76 73.17 72.68 72.41 71.82 71.63 71.05 68.36 69.24 69.74 70.07 69.85 68.29 67.45 66.73 66.06 66.30 65.90 65.74 65.10 65.10 64.88 65.51 65.83 65.75 65.50 66.47 66.34 65.70 65.44 63.08 63.53 62.39 59.87
76.11 76.11 76.01 75.93 75.56 74.65 68.39 66.96 72.47 74.09 73.88 73.21 72.56 72.17 72.51 68.92 67.84 65.12 65.16 66.51 69.44 68.88 68.22 66.89 66.22 65.50 66.82 66.53 65.78 65.47 64.55 62.07 62.21 67.94 65.66 64.60 66.55 65.15 65.53 65.63 62.64 60.47 59.05
76.09 75.71 75.54 75.70 75.29 75.60 64.46 64.42 66.78 74.09 73.57 73.76 73.77 72.80 71.66 71.05 68.53 69.92 64.35 63.69 64.24 64.52 66.40 69.68 67.73 67.35 67.90 67.77 68.11 66.28 65.30 65.03 64.20 67.43 65.37 62.81 65.19 63.74 64.47 63.86 60.51 59.52 58.45
75.75 75.62 75.37 75.39 75.49 75.31 62.97 62.55 65.27 73.40 74.27 74.20 73.53 73.45 72.73 71.98 70.76 70.61 70.66 69.09 68.72 68.88 68.10 68.61 69.84 70.31 69.71 69.46 68.35 67.16 67.28 66.41 66.00 65.68 66.25 60.77 62.68 61.67 62.31 62.27 60.10 59.63 58.33
75.33 75.54 76.00 75.82 75.36 75.46 61.70 60.89 64.39 72.25 73.54 73.29 73.24 72.96 72.62 72.28 67.19 62.75 69.86 69.66 69.46 69.45 64.17 62.40 63.12 61.90 60.92 61.77 64.67 66.74 65.57 63.10 61.32 61.92 64.21 60.95 60.10 59.54 59.70 59.69 59.83 58.38 56.29
75.03 75.25 75.58 76.23 72.34 75.60 61.23 59.09 64.06 72.73 72.87 72.04 73.31 73.11 63.97 70.47 61.33 58.98 69.72 70.07 68.71 68.84 68.68 67.34 66.83 62.90 62.48 63.38 60.13 67.02 66.21 61.82 60.05 58.92 63.17 58.30 58.38 58.22 55.12 56.88 57.72 57.77 57.36

GFSMA_sfc_wetblb_036.txt.gz
Wetbulb
78.61 78.19 78.05 78.02 77.83 77.18 76.41 75.87 77.05 75.74 75.98 74.57 73.79 73.15 72.51 71.94 73.26 73.86 74.07 74.09 74.48 73.98 73.69 74.16 74.33 74.26 74.63 74.58 74.10 74.31 73.23 72.51 73.20 73.58 73.66 73.58 73.58 73.50 72.58 71.87 71.95 72.47 71.74
79.05 78.45 77.85 77.41 77.75 78.29 76.90 76.15 76.40 75.27 75.75 75.70 74.14 73.58 72.52 72.25 74.18 74.03 73.27 74.14 74.15 74.25 73.59 74.11 74.55 75.21 75.13 74.77 74.64 74.16 74.24 73.96 73.82 74.22 73.55 73.81 73.63 73.45 73.13 72.24 72.21 72.57 72.87
78.20 78.50 76.95 76.85 77.12 77.85 77.51 77.09 77.13 76.18 75.22 74.31 73.12 72.95 71.54 72.73 73.03 74.24 73.40 73.90 73.65 74.11 73.83 73.56 74.27 74.75 75.08 74.95 75.29 74.75 74.85 74.80 74.55 73.89 74.07 73.42 73.49 73.54 73.60 73.21 72.70 72.97 73.46
78.32 78.67 77.47 78.05 78.12 77.54 77.25 77.15 77.59 74.37 74.67 72.51 71.20 72.64 72.68 71.85 73.19 72.70 72.62 74.32 74.55 74.16 73.78 74.19 73.81 73.83 73.83 74.53 74.63 75.16 75.57 74.86 75.25 74.85 74.10 73.93 73.60 74.42 73.99 73.87 73.73 73.40 73.42
78.12 78.33 77.25 78.40 79.92 78.70 77.55 77.37 75.88 75.26 72.81 73.36 71.69 72.70 72.50 72.83 73.00 71.43 72.85 74.11 74.27 74.75 74.02 73.80 74.29 74.07 73.61 73.91 74.14 73.99 74.88 75.63 75.67 74.76 74.40 74.36 74.33 74.53 74.08 74.52 74.35 74.18 73.88
77.84 78.49 77.50 77.67 77.42 78.47 76.56 76.69 76.45 74.83 72.99 71.42 69.69 70.27 71.53 71.70 73.32 72.21 71.75 72.22 73.66 74.51 74.05 75.55 74.75 74.19 73.17 72.46 73.70 74.05 73.39 73.80 74.35 74.02 74.12 74.62 74.78 74.50 74.43 74.25 74.20 74.18 74.06
78.94 79.45 77.90 78.43 78.31 76.51 77.23 77.87 76.49 74.82 72.37 72.44 69.85 69.53 70.68 71.67 72.79 71.57 73.85 72.45 72.12 73.49 73.35 73.86 75.65 74.46 74.17 73.49 73.23 73.31 73.35 73.49 73.21 73.39 73.88 73.85 73.85 73.53 73.38 73.21 72.48 71.35 72.74
79.27 79.40 79.45 78.12 78.28 77.93 78.11 77.92 76.85 74.05 73.48 72.90 70.60 70.40 65.86 67.58 69.57 71.17 73.66 72.62 72.07 71.64 71.46 72.28 72.66 74.38 75.10 74.31 74.47 73.86 73.86 73.40 73.67 73.32 73.18 72.89 72.27 71.74 71.25 71.24 70.24 70.55 69.74
79.27 79.83 79.35 79.08 78.81 78.37 76.62 77.45 76.36 74.71 71.48 71.12 71.94 69.81 66.00 64.62 66.65 69.95 71.87 71.97 71.71 71.53 71.06 71.47 72.05 73.27 73.36 69.75 71.26 71.90 72.25 72.32 70.87 69.26 68.59 68.54 68.67 68.87 68.89 68.62 68.48 68.08 68.31
79.15 79.34 79.72 79.43 79.74 77.77 78.34 77.50 76.76 76.05 74.47 69.49 70.53 70.76 72.13 71.73 66.20 64.99 69.24 71.29 71.51 71.04 71.73 71.16 71.04 71.68 71.77 69.09 68.40 69.25 68.94 69.70 69.38 68.06 67.67 67.42 67.35 67.33 67.11 66.94 66.93 66.80 66.66
79.24 78.74 79.55 79.44 79.14 78.45 78.41 78.24 77.31 76.66 74.51 71.41 70.05 70.03 70.65 69.48 70.85 67.43 65.64 67.67 70.46 70.79 71.37 71.16 71.75 71.56 71.88 71.34 69.75 67.37 67.25 67.90 67.49 66.83 66.90 66.72 66.66 66.69 66.59 66.43 66.51 66.82 66.90
77.31 78.66 78.83 79.52 79.61 79.07 78.73 78.38 78.44 77.14 75.86 73.91 71.12 71.40 68.92 67.67 67.33 67.68 66.42 68.05 67.74 69.51 70.21 70.77 70.86 70.77 71.51 71.40 71.27 68.86 68.82 68.45 67.37 66.53 65.50 65.70 65.93 66.49 66.99 67.31 67.59 68.00 68.41
75.53 78.36 78.74 78.73 78.59 79.50 79.11 79.16 78.53 77.11 76.47 74.48 73.61 70.83 70.73 69.99 70.31 68.30 68.16 68.27 66.74 68.63 69.06 70.29 70.71 70.88 70.79 71.47 71.85 70.36 69.16 68.28 68.05 67.57 67.25 67.10 66.41 66.63 67.18 67.76 68.03 68.38 68.60
76.47 77.95 77.97 78.58 79.05 79.23 79.28 79.24 77.78 76.65 76.48 75.40 74.38 73.11 71.09 70.85 70.66 69.35 67.60 66.88 65.07 66.23 67.51 68.95 70.30 70.15 70.74 71.00 72.12 71.33 70.63 67.85 67.62 67.48 66.93 67.29 66.88 67.46 67.76 67.98 68.68 68.65 68.88
77.16 77.66 77.96 78.69 78.95 78.95 79.38 78.95 77.24 76.46 75.94 75.84 74.52 73.53 71.80 71.33 71.16 70.49 69.73 68.67 66.55 63.80 64.77 68.51 66.96 71.37 71.03 71.30 72.67 71.90 72.21 69.57 68.11 67.38 66.77 66.68 66.79 66.73 67.26 67.75 67.91 68.05 68.24
79.47 78.32 78.00 78.30 78.74 78.65 78.88 78.87 77.57 77.14 76.02 74.98 73.54 73.20 72.84 71.33 71.56 71.16 70.27 69.65 68.61 66.53 64.07 68.50 68.27 70.96 71.51 71.83 71.13 71.67 72.02 69.58 68.38 67.10 66.48 66.11 66.07 66.17 66.22 66.59 66.89 67.07 67.29
80.20 78.92 78.90 77.99 77.72 77.99 78.62 78.36 78.16 77.13 75.80 75.33 74.18 73.06 73.28 73.93 70.64 70.51 70.62 70.06 69.18 68.45 65.92 67.24 69.37 71.74 71.67 71.12 70.86 71.40 71.76 71.14 70.43 66.78 66.66 65.80 65.02 64.87 65.50 65.80 65.88 66.00 65.67
80.02 79.73 79.52 78.52 78.07 77.73 78.25 78.11 77.22 76.58 75.62 74.88 74.49 73.49 72.69 72.16 72.62 73.27 70.75 73.46 71.23 71.91 67.92 68.64 70.73 69.40 70.83 71.90 72.00 71.77 70.29 69.97 69.99 67.71 66.26 65.55 64.91 64.49 64.65 64.67 64.47 63.99 63.03
80.23 78.34 79.14 79.75 78.47 77.93 78.29 78.16 77.63 77.03 76.39 75.78 75.12 74.10 73.21 72.39 72.30 71.24 71.18 70.65 70.20 69.97 70.09 68.09 67.60 69.68 69.20 70.42 70.60 71.38 71.03 70.92 69.74 66.64 64.09 64.37 63.79 63.72 63.32 62.36 61.69 60.34 59.24
79.96 79.73 80.02 80.00 79.38 78.40 78.13 77.75 77.48 77.10 76.94 76.29 75.99 75.14 74.18 72.56 72.54 72.32 70.88 71.36 71.42 69.89 70.35 68.47 67.80 67.75 68.62 70.70 69.73 67.78 67.47 69.09 68.02 68.65 67.16 64.16 65.40 65.17 63.87 61.93 60.76 60.65 58.27
79.86 80.16 80.00 79.93 80.15 78.45 76.98 78.47 78.49 77.21 77.46 76.62 76.18 75.73 74.89 73.37 69.57 70.58 70.89 72.60 73.17 70.14 68.57 68.24 67.73 67.60 67.55 67.41 67.71 67.92 66.77 67.00 68.81 68.98 67.57 67.98 67.26 67.95 67.33 62.26 64.23 63.27 61.04
79.69 79.88 79.64 79.49 79.31 77.78 69.76 68.22 75.46 77.65 78.06 77.55 76.72 76.18 76.25 71.49 70.10 66.29 66.06 66.90 71.58 72.23 71.47 68.19 67.78 68.03 70.33 68.92 68.41 67.43 66.05 65.81 63.30 71.84 68.19 66.72 67.32 66.53 67.25 67.39 62.05 60.80 59.62
79.52 79.28 79.43 79.53 79.32 79.37 65.78 65.57 68.31 77.49 77.49 77.84 77.81 76.62 75.11 74.59 71.63 73.14 66.35 65.04 65.56 65.63 67.23 72.24 70.37 70.37 70.33 70.44 70.57 69.10 68.30 66.77 65.62 68.79 67.87 64.97 66.60 65.44 66.39 65.83 61.11 60.14 59.41
79.00 78.97 79.12 79.32 79.26 79.18 65.24 63.35 66.60 76.93 78.07 78.62 78.09 77.43 77.11 76.75 75.29 73.52 73.09 70.85 69.76 71.30 70.91 70.37 71.60 71.35 72.95 72.02 71.04 69.92 69.45 68.90 68.27 67.87 68.80 63.19 65.15 62.84 64.45 64.28 61.06 59.81 58.63
78.20 78.53 78.32 79.26 79.00 78.93 63.65 61.60 66.01 75.79 76.00 77.91 78.51 77.89 77.99 77.33 70.03 64.25 73.04 72.51 71.10 71.10 66.43 63.10 63.98 63.87 63.85 64.24 67.15 68.51 66.07 65.91 63.65 64.19 66.85 64.00 62.63 61.23 62.28 62.01 62.00 59.90 56.11
77.74 77.42 77.62 79.21 75.19 79.09 63.80 60.04 65.62 75.11 75.16 75.02 77.88 78.61 66.46 74.18 63.41 60.73 72.31 73.56 71.03 71.40 71.39 70.23 69.41 65.77 64.89 65.73 61.64 68.64 67.46 64.32 63.27 62.05 65.85 62.26 60.27 60.33 58.21 60.92 59.76 60.02 59.18

GFSMA_sfc_wetblb_039.txt.gz
Wetbulb
77.33 75.78 76.98 75.54 78.01 76.68 76.04 76.85 75.80 75.62 72.30 74.22 73.93 73.79 71.37 71.99 71.89 72.58 73.00 74.73 74.60 74.05 74.41 74.60 74.92 74.57 74.66 74.39 74.43 74.10 73.14 73.38 73.89 73.58 73.68 73.68 73.51 73.22 72.47 71.76 71.30 72.42 72.07
78.07 78.32 76.81 76.63 76.99 75.04 73.03 75.97 76.70 75.49 74.62 73.49 72.76 73.19 72.11 71.93 72.55 73.18 72.79 74.11 75.34 74.46 74.27 74.59 74.98 75.08 74.95 74.79 74.75 74.03 74.51 72.84 72.86 74.26 73.52 73.92 73.52 73.48 73.14 72.21 71.49 72.16 72.90
77.97 78.32 76.53 77.42 76.75 77.40 77.71 77.86 76.16 75.87 72.56 73.77 73.51 73.24 71.27 72.44 72.42 72.46 73.28 72.97 73.98 75.45 74.93 74.30 74.62 75.22 75.25 75.19 74.97 74.81 74.85 75.26 74.43 74.06 74.03 74.07 73.04 73.90 73.74 73.32 72.80 72.45 72.94
78.41 78.07 76.30 75.65 78.06 77.61 76.31 76.55 75.41 72.79 74.43 72.37 71.50 71.97 71.40 71.45 71.96 72.13 72.59 74.44 72.85 72.78 74.91 75.31 74.38 74.51 74.77 75.36 75.41 75.54 75.35 74.93 75.09 75.47 74.73 74.43 73.86 73.66 74.12 73.72 73.59 73.59 73.38
78.50 78.45 76.52 76.02 78.91 76.60 75.90 75.54 74.49 74.19 71.02 71.51 70.89 71.00 71.51 71.49 71.02 70.78 71.68 73.14 72.83 72.81 72.14 75.62 75.44 74.66 74.08 74.27 74.16 74.30 75.11 75.09 75.11 75.21 74.35 74.53 74.51 74.12 74.65 74.38 74.26 74.16 74.32
78.38 78.58 77.68 78.20 77.86 75.24 76.21 76.00 76.12 73.36 72.07 70.14 69.20 70.63 70.71 72.03 72.73 70.40 70.76 72.54 72.04 73.33 73.68 74.44 73.92 73.57 75.40 74.45 74.01 74.49 73.78 73.86 74.29 74.43 74.51 74.29 74.69 74.52 73.95 73.70 73.85 74.27 74.02
78.71 79.35 78.02 77.46 77.69 76.87 76.73 75.83 75.68 73.76 71.37 71.50 69.69 69.57 70.22 71.59 72.00 70.52 71.85 69.30 71.55 71.10 71.44 72.81 72.76 74.23 73.24 74.37 72.89 73.74 73.39 73.20 73.10 73.39 73.00 73.25 73.32 73.17 72.95 72.75 72.52 71.72 71.81
79.31 79.15 80.39 75.28 78.29 77.27 77.54 76.31 75.71 73.54 72.04 71.38 71.04 69.16 66.88 67.87 70.23 69.69 72.07 71.10 71.68 70.85 70.60 71.61 72.34 73.15 74.45 74.71 74.90 73.91 74.08 74.13 73.91 73.56 73.40 72.95 72.53 72.14 71.81 71.41 70.57 70.38 69.29
79.14 80.34 78.97 78.45 77.87 77.77 77.43 77.65 75.97 75.02 71.71 70.00 73.46 72.38 67.46 65.85 66.40 69.32 70.44 70.91 71.14 70.05 70.35 71.08 71.88 72.71 72.96 70.13 71.70 72.73 73.20 73.06 71.06 69.50 68.94 69.03 69.19 69.03 68.75 68.50 68.23 67.84 67.45
78.95 79.38 79.02 78.29 79.12 77.98 79.35 78.02 76.27 76.44 74.96 70.79 69.42 70.25 72.97 72.89 66.57 65.02 68.89 70.59 71.04 70.68 71.38 70.97 71.11 71.39 71.54 69.60 69.37 71.24 70.90 70.94 70.92 69.59 68.66 68.07 67.86 67.51 67.13 66.82 66.55 66.42 66.80
79.40 78.57 80.21 80.23 79.84 77.84 80.43 78.20 77.80 77.24 75.25 72.87 70.04 69.29 71.10 68.82 71.01 70.25 65.78 67.90 69.71 70.57 71.62 71.15 71.55 71.30 71.84 70.59 69.60 68.03 69.82 70.04 70.06 69.65 68.83 68.09 67.44 66.89 66.73 66.80 66.96 67.57 68.35
77.97 80.27 79.56 80.93 80.67 79.66 78.99 78.06 79.04 77.95 76.81 75.10 72.30 71.32 69.15 67.93 67.37 67.29 67.13 69.68 68.59 70.67 70.36 71.07 71.26 70.98 71.73 71.40 71.31 69.55 69.98 69.27 69.18 69.03 67.68 67.45 67.31 67.27 67.43 67.65 67.70 68.23 68.84
74.99 78.73 80.40 80.51 78.23 80.27 80.03 80.52 80.50 78.69 77.22 75.73 75.51 71.35 71.10 69.95 70.00 69.11 68.57 68.28 67.88 69.12 69.91 70.44 71.03 71.35 70.77 71.61 71.45 70.02 70.23 68.74 68.28 68.04 68.23 67.84 67.22 67.44 67.55 67.84 68.25 68.68 69.19
75.82 80.56 80.48 80.29 80.29 80.34 79.57 80.95 78.42 77.59 78.50 76.15 75.95 75.48 72.17 71.30 71.06 69.77 68.17 67.37 65.82 66.51 68.54 70.10 70.91 70.64 71.10 71.30 71.64 71.64 69.45 68.07 67.95 67.65 67.46 67.49 67.54 68.09 68.41 68.62 68.64 68.43 68.55
76.86 79.64 79.95 79.93 79.74 79.97 80.58 80.98 77.36 78.78 78.39 77.21 76.75 76.12 73.20 71.92 71.70 71.03 70.30 69.36 67.34 64.53 65.89 70.05 67.97 73.74 71.40 71.22 72.50 72.08 72.43 68.67 67.98 67.58 67.14 67.16 67.33 67.33 67.75 68.11 68.35 68.33 68.59
80.72 80.91 79.62 79.34 79.47 80.18 80.49 80.74 78.65 79.59 78.52 76.47 75.00 76.98 75.67 71.26 72.94 71.62 70.68 70.21 69.28 67.22 64.51 69.13 69.59 71.65 72.52 70.71 71.89 72.06 71.87 71.07 69.27 68.06 67.16 66.57 66.64 66.76 67.04 67.24 67.12 67.48 67.91
81.68 80.31 80.59 79.86 79.89 80.02 80.34 80.21 79.53 79.38 78.25 77.69 77.43 77.24 76.13 76.60 71.35 71.19 71.12 70.69 69.78 69.04 66.14 67.70 69.55 73.39 73.91 72.25 71.88 71.81 72.06 72.99 70.73 67.36 67.13 66.82 66.25 65.84 65.95 66.43 66.64 66.70 66.75
81.14 81.41 81.42 80.44 80.28 79.85 80.16 80.00 78.66 77.30 78.26 77.05 76.51 76.31 75.27 72.97 75.40 75.59 71.78 75.49 72.12 73.73 68.66 72.70 71.94 70.87 72.86 74.51 73.73 74.23 71.66 69.88 70.98 67.11 68.30 66.93 65.96 65.47 65.59 65.18 65.38 65.24 64.92
81.22 80.89 80.58 80.79 80.37 79.83 79.86 80.20 79.64 78.96 78.75 78.12 77.67 76.65 75.47 75.11 75.53 71.95 72.39 72.00 70.99 71.39 71.68 68.88 68.54 70.22 70.79 71.46 72.00 73.52 73.33 72.81 70.55 67.26 65.74 65.84 64.41 64.31 64.29 63.60 63.07 61.79 60.74
80.96 80.59 80.73 80.87 80.67 80.46 79.95 79.69 79.63 79.45 78.93 78.51 78.37 77.85 76.85 75.70 75.01 75.44 74.06 73.41 73.71 71.76 71.39 69.73 68.51 68.12 69.20 72.88 70.46 68.55 69.68 70.41 69.47 69.89 68.08 66.02 67.67 65.39 64.22 62.42 61.89 61.39 58.92
81.05 81.11 80.63 80.74 81.07 80.37 79.24 79.55 79.05 79.23 79.23 78.56 78.72 78.51 77.84 76.00 71.69 73.18 72.76 73.17 72.79 71.73 68.94 68.46 68.32 68.19 67.99 69.11 67.71 68.15 67.95 70.03 71.06 70.15 69.13 68.80 69.06 67.84 67.02 63.52 65.37 63.84 61.65
80.80 80.83 80.62 80.46 80.35 80.14 71.53 68.75 76.21 79.06 79.44 79.03 78.14 78.82 78.55 72.90 71.50 67.19 67.20 67.42 71.54 73.61 71.39 69.12 69.04 68.91 73.31 71.83 70.03 68.40 68.91 67.93 64.55 71.19 68.71 67.88 71.47 67.37 67.72 68.12 64.60 65.03 62.05
80.72 80.50 80.39 80.54 80.04 80.41 67.48 66.11 68.66 78.70 78.99 78.85 78.84 78.86 77.99 76.35 73.45 75.01 66.70 65.97 65.76 65.71 68.53 73.68 71.52 71.82 74.16 74.23 74.10 72.72 71.43 68.86 67.45 68.30 70.03 66.23 69.85 66.40 67.09 64.52 62.36 61.77 59.39
80.21 80.16 80.36 80.58 80.50 80.35 67.85 63.63 66.44 77.10 78.07 78.84 78.82 78.94 79.09 77.92 76.65 75.57 75.27 72.05 71.95 72.11 71.47 71.29 73.19 73.15 74.30 74.94 73.44 72.94 72.45 71.59 70.07 69.05 70.81 63.77 66.81 65.48 65.50 65.15 63.34 61.27 58.87
80.13 79.96 80.34 80.36 80.32 80.27 66.09 62.61 65.22 76.02 76.51 77.37 78.60 78.96 79.13 78.70 71.59 65.93 75.21 74.21 72.83 71.94 66.54 64.06 64.70 64.77 64.64 66.20 67.73 70.62 67.52 66.82 64.52 65.14 68.95 65.57 64.83 63.29 62.96 63.21 64.53 60.80 58.86
79.89 79.58 79.63 80.40 76.36 79.99 68.12 61.80 64.87 76.23 75.58 76.24 77.73 78.30 68.27 76.26 66.82 61.73 74.17 74.63 72.63 71.07 71.58 70.18 68.36 65.47 66.21 67.00 63.68 70.66 69.25 65.41 66.62 63.29 68.65 64.08 63.83 61.93 58.67 62.54 62.53 62.92 61.63

GFSMA_sfc_wetblb_042.txt.gz
Wetbulb
75.43 74.56 75.60 74.01 75.06 75.10 74.86 76.19 75.32 74.91 70.52 74.04 73.54 73.73 70.72 71.36 72.14 71.08 72.58 75.62 75.79 75.91 76.08 75.34 74.76 74.85 74.57 74.35 73.70 73.09 73.08 73.85 73.69 73.32 73.24 72.96 72.94 72.72 72.34 71.85 71.31 72.06 72.05
76.51 78.06 76.19 75.69 76.24 73.63 74.48 76.32 77.14 75.91 74.97 73.49 71.57 73.80 70.77 72.35 72.29 72.04 72.04 74.21 75.85 75.79 75.95 75.86 75.31 74.71 74.87 74.71 74.49 73.81 74.03 73.17 73.34 73.30 73.34 74.31 73.27 73.42 73.15 72.81 72.01 72.33 72.98
80.14 79.91 76.79 76.03 74.00 77.40 77.47 76.30 76.88 73.39 71.78 74.04 72.11 71.76 72.76 72.07 70.25 71.80 71.96 72.11 74.27 75.89 76.08 75.95 76.16 76.37 75.16 74.92 74.67 74.60 74.84 74.57 74.03 74.29 74.73 74.20 74.30 73.93 73.78 73.44 73.53 73.19 73.43
80.33 77.41 72.67 75.03 75.15 78.53 76.85 76.85 72.74 74.88 73.42 73.14 71.98 72.44 70.34 72.17 71.81 72.29 71.23 72.19 72.44 72.58 75.36 76.30 76.02 76.28 75.26 75.20 75.26 75.09 75.12 74.51 74.63 74.81 74.86 74.45 74.68 74.12 74.59 74.67 73.97 74.20 74.30
79.90 78.83 74.56 73.34 74.35 77.93 75.11 75.80 74.11 74.47 72.83 71.03 68.46 71.91 71.61 68.63 69.05 70.61 71.42 71.92 72.81 71.10 72.05 75.55 75.68 75.87 75.15 74.94 74.50 74.43 74.46 74.94 75.05 75.05 74.94 74.80 74.80 74.72 74.58 74.63 74.58 74.86 74.56
79.32 78.48 74.60 73.87 76.74 73.66 77.34 76.89 75.39 73.40 73.64 70.66 69.25 70.39 70.76 69.06 68.93 69.79 71.05 71.64 72.85 72.95 72.01 72.64 74.01 73.27 75.48 75.56 75.65 75.07 73.83 74.14 74.56 74.99 74.97 74.90 74.98 74.83 74.78 74.16 74.01 73.69 72.79
79.55 79.05 77.81 75.96 78.44 75.87 74.71 77.53 74.06 75.05 73.11 71.62 69.96 69.65 70.88 71.52 71.85 70.69 69.39 68.92 71.82 70.81 71.69 73.84 71.97 72.58 72.89 75.07 74.85 75.21 74.46 73.51 73.14 73.02 74.04 74.05 74.30 73.98 73.19 73.04 73.23 71.87 71.26
80.11 80.03 77.93 78.68 77.37 76.84 77.70 76.36 76.65 74.36 72.53 73.29 69.29 66.00 65.04 68.46 69.22 69.04 71.32 71.64 70.47 71.76 71.16 71.37 72.45 73.40 71.90 73.58 73.83 75.16 75.20 74.38 73.79 73.68 73.47 73.04 72.89 72.30 72.02 71.72 71.19 70.25 68.91
79.30 79.48 79.21 78.23 77.63 78.76 77.22 78.32 76.05 75.97 69.76 71.18 73.14 67.16 65.57 64.33 66.28 69.49 70.01 69.16 70.23 68.98 69.03 70.96 71.31 72.56 71.74 70.37 72.82 73.54 74.38 73.53 72.33 70.68 70.16 69.94 70.85 70.38 69.76 69.75 69.55 69.28 69.05
78.24 79.07 78.78 78.11 79.00 78.08 76.22 76.69 77.67 77.02 75.07 70.40 70.32 71.83 72.93 72.60 67.39 64.28 69.19 69.60 70.78 69.90 70.74 69.96 70.21 70.50 70.09 68.86 72.53 72.50 71.51 70.70 70.92 70.09 68.87 68.52 69.51 69.19 68.19 68.02 68.57 69.23 69.73
79.13 79.31 79.07 78.87 79.73 77.84 78.00 77.46 77.58 76.76 77.20 74.33 70.93 69.99 71.10 71.28 70.97 66.75 64.92 67.29 69.44 70.85 71.42 70.77 69.85 69.90 71.15 67.66 65.94 68.85 70.84 70.57 70.57 70.78 70.50 69.65 68.87 68.08 67.83 67.64 68.01 70.33 70.83
77.60 79.46 79.24 78.94 79.39 79.09 78.75 78.48 79.58 78.08 77.18 76.72 74.85 72.10 69.62 67.88 68.16 67.35 66.02 67.25 66.99 69.62 70.58 70.31 69.90 70.30 70.65 69.14 69.04 69.66 70.24 69.82 69.48 69.56 69.40 69.64 69.98 69.39 67.90 67.67 67.83 68.34 69.47
76.37 77.25 78.78 78.84 78.10 78.58 78.99 79.20 79.23 79.05 77.75 76.75 75.66 73.95 72.89 72.02 71.99 70.13 69.90 67.15 67.50 68.84 69.62 70.74 71.03 70.95 71.25 71.48 68.04 68.51 69.77 68.76 68.54 68.20 68.08 68.47 69.04 69.53 69.38 68.84 68.60 68.68 69.03
75.88 78.17 77.41 78.64 78.19 78.60 78.44 79.66 78.84 77.80 77.95 76.51 77.02 75.13 73.50 73.11 72.24 70.74 69.37 68.30 65.84 66.56 69.60 68.67 70.89 71.09 71.05 71.52 67.88 70.36 67.29 67.73 67.40 66.91 66.89 67.23 67.67 68.15 68.57 69.05 69.22 69.56 69.06
77.70 79.36 78.01 78.22 78.02 78.67 77.99 79.06 77.44 77.69 78.28 76.68 75.84 76.43 74.36 72.90 72.79 71.72 71.01 70.31 68.32 64.48 65.45 70.15 67.73 70.88 71.62 70.78 70.34 68.30 68.52 67.52 67.61 66.85 66.69 66.75 66.92 66.80 67.36 67.76 68.12 68.25 68.35
77.73 81.20 78.36 78.03 78.33 78.34 78.72 78.49 77.96 78.17 77.41 76.97 75.62 75.35 74.66 71.67 71.97 72.57 71.93 71.07 70.09 68.04 65.12 68.81 69.60 69.81 70.10 71.63 71.72 71.43 71.09 69.20 67.29 67.38 66.47 65.98 66.33 67.02 67.10 67.52 67.57 67.46 67.55
80.28 77.95 79.36 78.39 78.10 77.92 78.10 78.57 77.12 77.04 77.39 76.29 76.13 75.34 74.36 73.28 72.19 72.69 71.88 71.79 70.72 69.92 66.65 67.89 71.56 72.36 71.55 69.70 69.71 70.79 71.13 70.84 68.71 66.73 66.84 66.87 66.73 66.38 66.52 66.47 66.43 66.58 66.55
78.31 79.75 79.04 78.30 77.96 77.63 78.22 77.47 77.11 75.69 76.73 76.03 75.05 75.11 74.70 73.52 73.16 73.66 73.97 71.30 70.75 71.49 69.44 68.58 70.65 70.91 71.56 71.43 71.60 71.78 70.64 70.49 70.94 68.29 67.21 66.53 66.11 65.34 65.31 65.29 65.15 64.84 64.92
78.98 78.07 79.13 78.74 77.56 77.79 77.60 77.93 77.32 76.70 74.97 76.73 76.25 74.66 74.27 73.62 72.49 70.83 71.95 71.57 71.35 72.00 72.58 68.74 68.83 71.51 71.58 71.85 70.64 71.14 71.95 70.69 71.33 67.73 65.30 65.37 64.78 64.43 64.21 63.29 63.13 62.72 61.95
77.62 78.51 78.26 78.11 78.36 78.00 77.91 77.63 77.70 77.48 76.80 76.07 77.10 76.28 75.10 73.89 72.42 72.74 71.21 70.69 71.18 70.92 69.84 70.05 68.73 68.20 70.47 70.72 70.30 68.47 68.83 69.92 69.00 68.10 67.35 65.97 65.12 64.52 63.89 62.08 61.89 61.60 59.30
78.87 78.45 78.27 78.82 78.40 78.45 78.24 77.63 77.41 77.27 77.18 76.28 76.58 77.00 76.24 74.72 71.62 71.45 72.45 72.10 70.00 70.13 69.91 67.61 67.52 68.22 68.08 69.24 67.04 68.31 67.46 68.04 68.73 69.23 67.76 67.86 67.48 65.19 64.73 63.32 64.41 63.93 62.39
78.73 79.12 78.39 77.84 78.13 78.37 72.21 69.66 75.15 77.19 77.17 76.77 76.14 76.46 76.56 72.97 71.53 68.40 68.31 69.22 71.11 69.17 67.89 67.19 67.24 66.32 67.27 69.07 69.75 67.74 66.78 66.50 63.72 69.16 67.30 67.07 68.63 67.20 67.23 66.41 64.95 65.54 64.25
78.86 78.62 78.62 78.50 77.71 78.21 68.71 67.38 69.39 77.18 76.74 76.98 76.90 76.44 76.32 76.53 72.82 73.35 67.53 66.78 66.53 66.44 68.08 69.39 67.57 68.96 70.35 70.77 70.74 69.67 68.83 67.46 65.58 68.08 67.02 64.38 66.87 65.75 66.06 63.00 62.42 62.34 63.33
78.41 78.18 78.38 78.57 78.25 78.14 68.11 65.19 67.17 75.97 76.52 76.81 76.93 76.91 76.39 76.05 75.51 74.20 72.62 70.10 70.06 69.15 67.76 69.79 70.75 69.98 71.62 72.87 71.04 71.24 70.13 69.01 68.50 68.14 68.35 62.63 65.82 64.79 64.85 61.49 61.45 62.87 60.03
78.27 78.48 78.72 78.52 78.28 78.30 66.13 63.99 65.22 74.59 75.52 75.79 76.74 76.92 76.80 76.20 71.87 65.81 73.31 70.96 69.45 69.49 65.97 64.28 65.80 66.78 66.35 65.84 70.01 69.78 67.72 65.79 64.36 64.67 68.23 64.69 65.10 64.20 61.68 61.92 60.61 60.63 58.32
78.57 78.62 78.53 78.86 75.38 78.46 68.44 62.41 64.81 75.77 74.55 74.77 75.48 76.20 67.89 74.15 66.39 61.68 72.44 72.49 70.49 69.62 69.78 68.83 67.26 64.72 64.96 65.87 64.63 70.14 68.31 65.12 63.95 63.41 66.72 64.43 63.45 62.61 57.06 61.21 61.63 57.55 57.28

GFSMA_sfc_wetblb_045.txt.gz
Wetbulb
69.95 73.47 73.46 71.78 71.26 71.88 71.39 73.16 72.48 71.52 69.36 68.71 70.12 68.76 71.32 70.22 70.09 71.37 72.12 76.29 76.63 76.42 75.66 74.90 75.04 74.82 74.26 73.42 73.23 74.06 74.23 74.31 73.92 73.93 73.94 73.97 73.70 73.38 72.69 71.92 71.26 71.75 71.87
72.30 72.58 72.21 72.80 73.07 71.91 69.22 72.77 72.45 72.57 71.54 70.84 69.15 68.64 69.42 69.86 69.31 70.58 72.04 73.08 76.29 76.13 76.33 75.68 74.94 74.91 74.90 74.40 74.35 73.89 73.09 73.42 73.92 73.53 74.14 74.68 74.08 74.12 73.38 72.97 71.65 71.67 72.81
72.36 72.76 73.22 72.67 72.03 72.56 71.48 73.20 72.26 70.27 68.73 69.99 67.79 66.99 69.11 69.50 69.79 70.31 71.11 71.91 73.94 76.20 76.34 76.50 75.60 75.70 75.09 74.93 74.87 74.37 74.41 74.07 73.01 73.40 75.10 74.29 74.75 74.47 73.64 73.49 73.35 72.86 73.35
74.48 71.60 71.21 72.33 72.86 73.43 73.42 71.76 71.95 70.94 68.61 70.24 67.97 66.96 67.48 67.78 69.24 70.52 70.94 71.40 71.73 72.38 75.71 76.53 76.09 76.22 75.14 75.55 75.05 75.03 75.24 74.97 75.08 75.38 75.23 75.00 74.21 73.74 74.38 74.49 73.78 73.96 73.72
75.23 72.46 71.57 70.55 68.01 73.08 73.10 72.40 70.14 70.95 69.29 70.23 67.98 67.67 65.41 66.86 68.36 70.67 69.29 70.84 70.11 71.64 71.39 75.91 75.96 75.86 75.48 75.47 74.81 74.74 74.86 75.48 75.62 75.46 75.31 75.06 74.91 74.59 74.51 74.17 73.97 74.07 73.67
75.72 74.30 72.44 70.83 71.19 72.23 73.54 72.82 69.36 66.96 66.66 66.73 68.12 67.86 65.67 66.76 66.97 67.82 69.04 71.15 69.76 69.71 70.84 72.30 72.20 73.09 75.26 75.48 75.40 75.42 75.24 74.95 75.49 75.51 75.19 74.96 74.76 74.74 74.56 74.19 73.64 73.52 72.57
75.29 74.13 72.22 72.28 72.60 72.14 70.63 72.53 69.29 68.31 67.48 66.50 66.13 65.94 64.81 66.63 66.14 67.59 67.95 70.60 69.72 69.72 70.88 70.66 71.91 70.54 72.38 75.12 74.88 75.87 74.92 74.55 74.15 74.30 74.38 74.01 74.17 73.72 73.30 73.02 72.98 71.93 71.18
75.30 75.16 73.75 73.36 73.13 72.56 72.08 71.91 70.09 68.67 66.85 66.98 65.07 63.95 60.07 62.96 64.29 65.74 67.49 69.24 69.57 69.21 69.48 70.66 70.11 70.15 70.19 70.34 71.64 75.00 75.04 74.64 73.70 73.47 73.61 73.39 73.02 72.50 72.19 71.73 71.27 70.36 69.21
74.73 75.36 74.34 73.96 72.15 73.33 71.86 71.92 70.19 69.66 64.77 66.22 67.43 62.78 61.12 60.04 63.05 64.19 63.64 66.46 66.78 65.17 66.65 69.91 70.33 69.70 70.10 70.72 73.00 73.59 74.39 73.59 73.37 72.66 71.29 70.46 70.39 70.09 69.75 69.82 69.55 68.86 68.86
75.27 75.38 75.04 74.30 73.74 73.53 72.52 72.11 72.21 69.57 66.97 63.12 63.88 68.37 66.82 66.13 60.45 58.80 64.48 63.91 65.18 64.56 65.45 67.08 68.87 69.69 68.07 69.79 72.09 72.85 72.75 70.84 70.87 70.02 68.69 68.69 68.59 68.51 67.90 67.90 68.59 68.60 69.12
74.00 76.40 74.96 74.61 73.63 73.94 72.56 72.33 72.93 70.79 68.88 67.78 63.20 63.85 64.64 65.71 65.36 61.73 59.52 61.64 64.83 65.48 66.15 66.27 66.23 66.85 66.45 67.50 68.28 70.24 70.89 69.98 70.37 70.82 70.83 69.68 68.72 68.21 68.10 67.97 68.25 69.58 70.19
74.48 75.43 75.83 75.01 75.06 74.20 73.47 73.36 72.96 71.18 71.33 70.53 68.40 64.95 63.43 61.54 63.00 62.77 62.90 61.94 63.23 65.70 66.02 65.87 66.12 66.22 66.05 63.41 67.45 70.21 70.89 70.28 69.80 69.77 69.71 69.98 70.43 69.56 68.71 68.49 68.17 68.12 68.42
73.60 74.34 75.67 74.85 74.65 74.61 74.93 74.35 74.74 73.01 71.65 71.11 70.26 67.76 66.71 63.50 65.98 62.79 64.37 64.24 64.36 65.67 65.44 65.55 66.42 66.63 67.72 64.28 63.55 69.16 70.81 69.47 68.75 67.97 68.03 68.40 69.09 69.45 69.90 69.30 68.75 68.80 68.80
73.53 74.13 75.13 75.68 74.88 75.11 74.89 74.97 74.49 74.80 73.68 71.55 71.95 70.19 67.54 68.48 66.03 64.48 62.95 62.25 60.45 61.09 63.80 62.83 66.35 66.32 66.56 67.37 65.94 69.80 66.97 67.72 67.30 66.60 66.56 66.90 67.36 67.73 68.21 68.91 69.16 69.35 68.90
73.25 74.61 75.03 75.77 75.13 75.21 74.88 74.42 75.17 73.83 74.20 72.74 71.80 72.03 69.87 68.54 68.33 65.91 64.16 64.19 62.13 58.43 60.15 64.73 63.29 66.59 66.39 68.31 67.20 65.69 64.03 66.90 66.98 66.09 65.85 65.83 66.22 66.80 67.11 67.18 67.32 67.76 68.15
71.93 74.43 75.00 74.94 75.20 75.50 75.24 74.43 74.72 74.63 73.62 73.66 72.56 72.07 71.36 69.45 67.66 67.53 65.77 64.22 63.95 62.01 58.93 64.20 64.57 65.87 67.33 67.69 68.28 64.24 64.25 66.54 66.86 66.10 65.45 65.09 65.63 66.10 66.44 66.73 67.09 67.23 67.34
74.33 73.69 75.09 74.83 75.02 75.13 75.47 74.64 74.23 73.94 74.02 73.35 72.58 72.25 71.43 70.43 66.81 66.16 66.54 65.98 63.96 63.51 60.31 61.96 65.10 65.63 65.87 66.64 67.05 66.33 68.45 67.01 65.06 65.76 65.54 65.47 65.12 65.50 65.99 66.37 66.40 66.30 66.30
74.19 75.21 75.92 75.52 75.61 75.24 75.17 75.08 74.34 74.75 72.97 73.05 72.77 71.45 71.82 72.13 68.14 67.37 68.85 65.01 65.05 65.56 62.76 60.45 65.28 66.40 65.25 65.40 65.37 65.72 67.32 68.96 67.50 67.21 65.68 64.99 64.80 64.92 64.72 64.79 64.48 64.44 64.26
75.49 74.42 75.62 75.48 75.46 75.47 75.14 75.01 75.46 74.49 72.99 73.83 73.44 72.69 71.83 71.50 69.38 68.60 67.61 67.51 66.89 66.03 66.56 63.47 64.24 66.24 66.90 66.91 66.72 67.30 66.44 65.89 67.87 67.69 65.34 64.82 64.74 64.26 63.49 62.67 62.53 62.09 61.86
74.54 75.80 74.36 75.70 75.43 75.63 75.40 75.50 75.17 75.01 74.23 73.04 74.17 73.79 72.85 72.14 70.77 69.35 67.20 67.12 66.97 66.07 65.15 64.88 63.35 63.74 65.92 67.52 66.09 65.33 65.23 67.35 66.15 67.77 66.71 65.52 64.73 64.70 63.64 61.95 61.71 61.23 59.49
75.49 74.99 75.77 75.11 76.20 75.41 75.83 75.27 75.66 75.16 74.72 74.15 73.13 74.71 74.31 73.11 70.99 69.94 69.97 67.85 66.87 66.14 65.45 64.56 64.03 63.62 63.06 65.27 66.12 65.45 64.94 65.41 66.32 65.98 62.78 63.20 62.85 62.94 63.29 63.09 63.64 63.79 61.73
75.14 75.79 74.93 75.20 75.35 76.49 70.83 69.36 73.87 75.19 75.19 74.92 74.09 73.15 74.72 72.30 70.97 67.84 68.27 68.40 68.98 66.38 65.29 66.35 64.87 64.67 65.38 64.51 65.82 65.84 65.62 63.36 62.07 66.28 64.00 63.28 64.69 63.82 63.38 62.95 63.78 63.15 60.95
76.57 75.37 75.69 75.49 75.28 75.79 67.86 67.18 69.30 75.50 74.82 75.17 74.99 74.87 73.60 75.02 71.81 72.48 67.42 67.04 66.99 66.85 66.50 66.40 66.19 65.39 65.35 66.36 66.78 65.19 65.37 63.84 62.73 64.19 63.80 62.09 63.94 62.61 64.30 64.17 62.52 61.69 60.73
76.24 76.41 76.03 76.34 75.94 76.06 67.21 64.94 67.49 75.06 75.29 75.06 75.34 75.32 74.75 74.34 74.10 73.37 72.26 69.96 69.77 69.33 68.47 67.71 66.85 67.34 67.41 67.66 68.51 67.90 66.20 65.09 65.36 65.92 64.82 60.89 63.17 62.62 62.91 60.14 62.46 61.63 60.66
75.79 76.09 76.67 76.52 76.26 76.50 65.21 64.03 65.50 73.63 74.84 74.90 75.20 75.45 75.41 74.94 70.94 65.76 72.90 71.25 69.86 69.67 66.46 63.98 65.17 64.51 64.52 66.15 68.34 68.16 65.32 63.59 61.98 63.69 66.07 63.32 63.14 62.41 61.61 59.30 58.90 61.16 58.80
76.06 76.25 76.24 76.77 73.59 76.67 66.32 62.08 64.58 74.44 74.06 74.36 74.97 75.02 67.38 73.07 66.32 62.44 72.20 72.38 70.31 70.16 69.88 67.65 65.92 64.26 65.08 66.36 65.91 68.74 66.61 63.61 62.15 61.76 64.87 64.07 62.93 62.26 58.08 58.05 57.25 57.93 56.44

GFSMA_sfc_wetblb_048.txt.gz
Wetbulb
67.32 69.85 71.01 71.19 70.61 71.07 70.99 71.21 71.66 71.39 70.05 68.28 68.34 70.11 71.36 70.42 70.44 72.65 73.00 76.51 76.37 76.32 75.23 74.74 73.42 73.09 73.33 73.74 74.00 73.92 74.01 74.04 73.30 72.95 73.19 73.31 73.09 72.66 71.92 71.45 70.96 71.34 72.01
71.14 71.82 71.56 71.86 71.11 71.26 71.29 69.68 70.96 71.30 69.76 68.91 67.33 69.73 69.49 69.16 69.44 71.15 71.78 73.95 76.67 76.41 75.94 75.01 74.97 74.72 74.23 73.41 73.19 73.46 73.53 73.82 73.56 73.15 73.56 73.64 73.33 73.42 73.35 72.80 71.54 71.34 71.94
71.26 71.96 71.28 71.62 71.64 71.36 70.98 70.74 70.89 69.13 67.23 69.26 65.35 68.61 68.44 68.11 69.20 70.03 71.17 71.72 74.02 76.65 76.13 75.42 75.30 75.18 74.89 74.47 74.42 73.79 73.77 72.72 73.35 73.24 73.80 73.47 73.54 73.66 73.37 73.29 72.99 73.07 72.88
72.65 71.73 71.70 71.45 71.93 72.25 72.02 70.96 70.58 68.64 67.01 69.20 65.73 66.39 67.22 68.47 68.66 69.81 70.83 71.63 71.79 72.74 75.80 76.43 76.24 75.73 74.82 74.87 74.78 74.82 74.09 74.38 74.31 73.98 74.16 74.12 73.33 73.44 73.04 73.65 73.51 73.21 73.11
72.61 69.93 70.96 71.33 70.03 70.56 72.34 71.08 69.44 69.18 67.86 69.35 67.64 66.49 65.83 68.61 68.07 69.76 69.44 69.69 70.37 70.86 71.76 75.51 75.56 75.88 75.18 75.12 74.86 74.56 74.77 75.14 74.85 74.48 74.57 74.68 74.23 74.01 73.68 73.59 73.21 72.79 72.99
73.18 71.55 71.54 69.16 68.99 71.72 71.23 70.91 68.95 68.18 67.69 66.65 69.38 66.46 64.24 66.80 67.43 67.37 69.10 69.74 69.01 69.61 70.27 72.26 72.43 72.77 75.07 75.62 75.63 74.94 74.72 74.50 75.08 74.53 74.28 74.21 73.98 73.44 73.44 73.51 72.91 72.25 71.88
74.32 72.64 71.85 71.00 70.94 71.05 70.69 69.70 66.69 66.44 64.28 65.58 64.61 63.44 64.88 66.37 66.26 67.95 67.86 68.20 68.54 68.59 69.49 70.29 70.79 70.46 72.05 74.94 74.81 74.93 74.28 73.83 73.74 73.66 74.03 73.78 73.88 73.61 73.13 72.48 71.57 71.32 70.81
74.31 73.14 71.68 71.35 71.12 71.56 70.01 70.41 68.30 67.74 64.43 65.22 64.11 61.77 58.44 61.51 64.23 64.56 66.59 68.78 67.70 68.29 69.17 69.63 69.44 69.16 69.98 70.21 70.93 74.74 75.02 73.87 73.31 73.44 73.51 73.16 72.69 72.28 71.81 71.45 70.99 69.57 68.88
74.50 74.20 73.09 72.68 71.92 72.04 70.89 70.36 69.24 67.02 63.00 65.61 64.71 60.78 59.69 57.84 60.06 62.81 63.95 66.58 67.05 66.90 67.31 69.17 69.06 69.34 69.07 69.41 72.29 73.33 74.13 73.48 73.49 72.97 72.14 71.00 70.12 69.73 68.98 68.78 69.15 68.71 68.64
73.95 74.59 73.55 73.17 71.75 72.29 71.51 71.23 69.80 68.55 62.85 62.28 63.14 67.51 63.29 63.41 57.89 57.36 62.64 63.17 64.44 65.38 65.34 67.79 68.73 68.85 69.18 69.54 71.83 72.70 73.42 72.17 71.76 69.95 68.82 68.47 68.55 68.05 67.44 67.34 68.15 68.40 68.73
73.29 73.81 73.91 73.13 72.07 72.39 72.04 70.98 71.51 69.34 66.51 62.61 60.97 63.51 63.68 64.09 63.94 59.14 57.84 60.30 63.67 63.31 64.17 66.30 68.46 68.06 68.06 68.46 68.94 70.87 72.43 70.13 70.27 70.82 70.68 69.45 68.60 68.23 68.06 68.06 68.06 68.09 68.59
72.06 73.94 74.13 73.16 72.57 72.32 71.92 70.96 71.92 70.27 69.22 66.49 65.30 63.22 62.25 61.36 61.37 62.15 60.65 60.33 61.21 62.42 63.93 64.87 65.42 66.80 65.84 66.89 69.81 71.03 71.46 69.89 69.69 69.91 70.10 70.46 70.42 69.43 69.17 69.15 69.17 68.95 68.79
70.86 72.12 74.08 73.38 73.22 72.72 72.69 72.07 71.84 70.52 69.48 70.04 68.39 66.20 63.38 61.82 63.20 61.24 62.59 62.26 61.83 62.82 63.34 64.01 64.58 65.00 65.90 64.16 67.03 70.30 71.13 69.45 68.73 68.35 68.44 69.00 69.64 70.44 70.80 70.44 69.23 68.85 68.71
71.95 72.59 74.36 74.16 73.55 73.91 73.55 73.13 72.55 71.81 70.36 69.84 69.96 67.60 66.48 65.97 65.00 63.40 61.91 61.26 58.95 59.85 61.71 62.12 64.81 64.46 65.61 63.35 64.93 70.32 66.81 68.19 67.76 66.81 66.74 67.29 67.93 68.75 68.91 69.30 69.42 69.44 68.67
72.77 72.86 74.13 74.78 73.91 73.85 73.60 73.16 72.82 72.99 72.57 70.74 69.79 70.38 67.92 66.51 66.96 65.52 62.28 62.40 60.25 57.86 58.76 62.50 62.54 65.12 66.24 65.31 64.80 66.15 64.07 67.50 67.37 66.47 65.62 65.71 66.31 66.93 67.17 67.58 67.41 67.27 67.57
71.51 72.78 72.94 74.68 74.28 73.88 73.60 72.89 72.74 72.99 72.90 72.14 71.31 70.18 69.76 69.05 67.26 66.38 64.30 61.63 61.82 59.71 57.44 61.42 63.80 64.45 65.95 67.38 66.77 65.88 63.46 66.31 66.92 66.08 65.27 64.88 65.03 65.76 66.06 66.41 66.38 66.75 66.90
69.93 71.01 73.11 73.54 74.23 74.01 73.60 72.92 72.47 73.43 72.60 72.64 72.25 71.03 70.13 69.52 68.63 65.91 65.11 63.89 61.74 61.22 58.97 59.57 63.01 63.85 64.06 64.79 65.17 65.21 63.28 62.67 62.96 65.61 65.26 64.52 64.06 64.50 65.16 65.44 65.29 65.73 66.27
71.83 71.10 72.96 73.09 73.83 74.03 73.98 73.23 72.76 73.44 73.26 72.55 72.76 71.63 70.98 71.39 68.82 66.94 65.00 64.66 63.61 62.32 60.37 58.63 60.56 64.97 63.82 64.66 64.80 64.76 64.10 65.47 64.99 65.81 65.04 64.24 63.72 63.43 63.33 63.39 63.83 63.95 63.76
71.49 72.13 73.86 73.55 73.82 73.86 74.13 74.26 73.58 73.01 73.14 73.21 73.11 72.14 71.91 71.42 70.57 69.23 65.78 65.90 65.27 64.01 63.11 60.36 60.25 64.05 64.05 64.27 63.28 63.98 64.09 65.12 66.58 67.59 64.73 63.94 63.61 63.06 62.58 62.19 61.72 61.04 60.67
70.82 72.46 73.26 74.59 74.23 74.61 74.28 74.20 74.31 74.00 73.57 73.39 73.34 73.11 72.73 71.55 71.51 70.11 67.76 66.58 65.53 65.64 63.78 63.37 61.07 63.93 64.20 65.64 64.12 63.49 63.41 64.66 64.46 67.63 67.19 65.37 64.84 64.49 63.74 61.75 61.40 61.09 58.93
73.66 72.09 72.75 73.16 74.91 74.78 74.90 74.46 74.18 73.91 74.03 73.38 72.73 73.50 73.37 72.55 70.75 70.16 70.44 68.69 65.66 65.08 63.91 63.24 62.38 61.63 62.51 64.29 64.24 63.59 63.81 64.90 65.88 65.20 64.10 62.86 63.22 63.58 63.79 63.30 64.32 63.81 60.37
72.50 73.45 73.42 73.44 73.43 75.19 69.82 68.74 73.11 74.20 73.93 73.44 72.76 72.23 73.19 71.73 70.55 68.03 67.38 68.05 68.27 66.55 65.19 65.12 65.07 63.96 64.33 64.33 65.18 65.48 64.56 61.94 61.59 65.62 63.87 64.35 62.70 61.86 63.04 62.80 63.54 62.41 60.62
74.01 72.41 73.27 73.80 73.39 74.09 66.77 66.68 68.76 74.38 74.08 73.78 73.56 73.26 72.89 73.50 71.16 72.52 67.36 66.30 66.41 65.51 66.82 66.27 65.02 65.56 64.81 65.71 64.50 64.56 64.95 64.02 63.86 63.98 66.40 64.58 63.40 62.77 64.58 65.09 62.75 61.46 60.21
74.96 74.63 73.54 73.77 74.07 74.08 65.58 64.42 66.84 73.71 74.27 74.12 74.31 74.31 73.83 73.70 72.81 72.85 72.85 70.51 69.27 69.81 67.86 67.39 67.23 66.36 67.20 67.56 66.69 66.57 66.06 65.81 63.84 64.06 64.51 62.46 62.44 63.16 63.47 63.28 62.45 61.82 60.00
75.00 75.29 75.46 74.97 74.15 74.79 64.06 62.96 65.06 72.14 73.77 74.22 74.55 74.49 74.58 74.27 70.23 65.22 72.39 72.13 71.55 70.84 67.75 63.92 65.16 64.33 62.57 62.88 65.16 66.40 63.47 62.28 61.96 62.17 64.32 62.02 62.05 62.48 62.14 60.56 60.88 61.64 59.22
75.24 75.64 75.41 76.06 72.73 75.16 65.13 61.67 64.46 73.25 73.04 73.65 74.80 74.98 67.36 71.97 65.31 62.36 70.51 72.41 71.54 71.96 71.50 70.77 66.41 65.65 63.28 64.15 63.26 67.27 66.77 63.92 63.57 61.52 64.66 62.94 62.00 62.08 59.95 60.48 60.55 59.01 59.21

GFSMA_sfc_wetblb_051.txt.gz
Wetbulb
68.92 68.97 69.67 70.29 69.81 70.33 70.05 70.07 70.96 70.79 68.54 67.07 70.07 70.56 71.47 70.25 70.47 72.06 72.59 75.70 75.79 75.51 73.67 73.21 73.87 74.16 74.37 73.92 73.94 73.89 73.48 73.58 72.55 71.88 72.28 72.59 72.54 72.47 71.68 71.47 71.23 71.49 72.27
68.18 69.23 70.49 70.88 70.63 70.49 70.41 69.37 69.93 68.36 69.14 68.60 67.39 69.67 69.87 69.33 70.48 71.84 72.50 73.84 76.43 76.11 75.44 74.09 73.23 72.85 72.77 73.33 73.57 73.62 73.69 73.45 73.29 73.33 73.18 73.00 72.74 72.94 72.97 72.76 72.34 72.01 71.95
70.92 71.50 70.64 70.65 70.85 71.03 70.64 69.36 70.42 68.83 67.11 67.14 65.20 67.92 68.11 68.55 69.22 71.12 71.68 71.96 74.52 75.86 75.26 74.87 74.75 74.61 74.23 73.88 73.24 73.38 72.91 72.89 73.40 73.09 73.32 73.03 73.08 73.31 73.46 73.27 72.97 73.22 73.15
71.05 71.31 70.78 70.92 71.10 70.96 70.85 70.59 69.65 66.93 66.54 64.94 64.06 66.28 66.91 67.52 68.19 69.56 70.48 70.95 71.87 73.19 75.04 74.81 74.86 75.02 74.99 74.69 74.26 74.23 73.82 73.81 73.14 72.70 72.68 73.65 73.86 73.33 72.96 73.02 73.19 72.95 73.25
72.47 71.40 70.96 70.70 71.14 69.38 71.26 70.81 68.88 68.41 66.81 67.55 65.67 65.18 65.77 66.58 67.33 69.47 69.36 70.34 70.65 71.07 71.80 74.31 75.77 75.69 74.56 74.53 74.07 74.39 74.23 74.08 73.94 73.97 74.02 73.87 73.46 73.29 72.99 73.20 72.80 72.63 72.23
71.72 70.11 70.62 70.23 66.82 70.11 70.26 69.98 68.82 67.78 67.14 68.17 67.56 64.64 63.58 66.10 66.46 67.00 67.69 69.11 69.01 69.71 70.35 71.48 72.04 72.56 74.81 75.00 75.32 74.61 74.44 74.33 74.28 74.31 73.94 74.02 73.69 73.69 73.20 73.15 72.75 71.86 71.47
71.82 70.74 70.78 69.44 69.85 70.45 70.09 69.50 65.05 64.90 62.81 64.84 63.06 62.14 63.50 64.80 65.77 66.44 66.65 67.29 68.10 68.13 68.61 70.07 70.50 70.34 71.24 74.66 74.70 74.99 74.06 73.76 73.66 73.38 73.71 73.92 73.64 73.27 72.94 72.28 72.12 71.41 70.26
73.26 71.87 71.02 70.23 70.60 70.86 69.65 69.78 67.02 66.57 63.48 64.58 62.02 59.41 59.44 60.91 62.55 63.59 65.65 67.43 66.81 67.75 68.68 69.21 69.39 69.06 69.32 70.18 70.77 74.68 74.68 73.71 73.00 72.88 73.14 73.02 72.70 72.12 71.62 71.39 70.66 69.14 68.37
73.63 72.85 71.41 71.05 71.00 71.06 69.63 69.21 68.12 65.93 62.29 64.81 64.54 60.62 58.19 56.63 59.09 61.50 63.23 66.37 66.72 66.40 67.16 68.16 68.32 68.69 68.80 68.45 70.79 72.59 73.97 73.54 73.30 72.78 72.28 71.96 71.42 70.63 69.08 68.14 68.97 68.55 68.33
73.39 73.55 72.65 72.24 71.52 71.34 70.26 70.23 69.17 67.10 63.09 62.49 63.40 65.86 61.89 61.61 57.79 57.60 61.49 63.16 64.85 65.73 65.77 66.51 68.11 68.63 68.12 68.47 71.09 72.36 73.61 72.90 73.32 71.84 69.49 68.58 68.44 68.04 67.49 67.20 67.79 68.38 68.50
72.86 73.90 73.08 72.24 71.14 71.29 71.31 70.67 69.11 67.28 62.87 61.81 61.61 63.56 63.16 63.01 61.07 57.96 57.47 60.09 63.12 63.22 63.19 65.39 67.44 68.19 68.03 68.59 68.14 70.30 73.28 71.96 70.80 70.90 70.49 69.50 68.55 68.23 67.99 67.98 68.02 68.02 68.26
72.19 72.53 73.49 72.33 71.50 71.52 71.36 70.51 70.93 68.91 66.51 63.56 61.90 62.46 61.88 61.09 60.94 60.42 58.32 58.45 60.74 61.62 62.80 64.16 65.48 67.59 67.30 67.46 69.22 70.95 73.33 70.87 69.87 70.02 70.29 70.67 70.50 69.33 69.12 69.07 69.08 69.17 69.27
69.54 71.50 72.45 71.91 71.55 71.31 71.62 70.78 70.32 70.03 69.14 66.58 64.29 65.09 62.28 61.10 61.61 61.44 60.70 59.87 59.52 60.96 62.40 63.15 64.35 65.54 66.92 65.83 67.00 71.58 72.63 69.82 68.69 68.49 68.65 69.34 70.19 70.97 71.09 70.79 70.19 69.50 69.42
70.01 71.68 72.90 72.85 72.43 72.31 72.09 71.30 70.86 70.81 69.21 69.73 68.28 66.06 65.52 62.63 62.93 62.18 61.57 60.83 58.64 59.51 60.56 62.04 63.31 64.50 65.40 64.76 66.08 70.37 67.51 68.73 67.75 67.01 66.96 67.37 68.30 69.30 69.86 70.43 70.31 70.45 70.10
70.62 70.91 71.90 72.93 72.74 72.87 72.49 72.09 71.57 71.22 70.46 68.81 69.24 68.52 66.32 65.50 65.92 64.12 61.32 60.66 59.70 56.79 58.47 61.50 61.77 64.11 65.32 65.20 65.62 66.41 66.23 66.74 67.41 66.75 66.09 66.03 66.50 67.15 67.90 68.24 67.92 67.83 67.59
69.73 71.16 71.67 72.50 72.81 72.75 72.93 72.20 71.78 71.64 71.49 70.71 69.50 68.59 68.59 67.51 65.92 65.68 64.73 61.00 60.27 58.78 57.28 59.93 62.05 62.99 64.82 65.80 66.35 65.32 65.05 66.48 67.12 66.53 65.63 64.89 65.34 66.02 66.52 66.79 66.66 66.53 66.57
68.63 70.37 71.07 72.18 73.04 72.76 72.91 72.31 71.90 72.11 71.73 71.65 71.33 69.89 69.14 68.67 68.07 66.28 64.79 63.64 60.79 59.56 57.56 58.98 61.22 62.75 63.10 63.88 65.23 66.35 65.07 62.99 62.79 65.88 65.50 64.84 64.23 64.58 65.27 65.45 65.39 65.55 65.57
69.44 69.34 71.20 71.68 72.71 73.31 73.05 72.36 71.69 72.29 72.19 71.47 71.86 71.04 70.71 70.68 68.30 67.04 65.25 63.60 62.96 61.08 59.67 58.26 58.83 62.84 62.48 63.40 64.72 64.66 65.50 64.48 62.61 64.15 64.98 64.57 63.82 63.38 63.18 63.21 63.21 63.38 63.66
69.13 70.51 70.00 71.70 72.00 72.74 72.87 72.73 72.68 71.99 71.98 72.56 72.47 71.77 72.05 70.70 69.80 68.93 66.90 65.30 63.84 63.34 61.36 59.43 60.06 60.92 63.57 62.77 62.46 62.99 63.01 63.15 63.22 65.41 63.81 63.64 63.60 63.27 62.29 61.37 61.22 60.82 60.68
70.28 70.26 71.37 71.56 72.12 72.75 73.02 73.17 72.93 72.31 72.13 72.36 72.78 72.85 72.64 71.83 71.43 70.81 69.21 67.76 66.03 63.81 62.26 61.76 60.72 61.20 62.45 63.31 62.93 61.84 61.80 62.43 63.56 65.30 66.57 65.50 64.88 64.35 63.45 61.47 61.17 61.19 59.11
72.33 71.36 71.19 71.87 72.91 73.16 73.45 73.17 73.27 72.85 72.25 72.09 72.43 72.69 73.06 72.96 71.11 70.95 71.37 70.38 67.70 66.27 64.96 63.20 62.76 60.69 61.60 62.28 62.35 62.41 63.27 63.55 63.60 64.17 64.62 64.50 64.09 63.73 64.28 63.32 63.90 64.24 60.60
72.24 72.30 70.80 71.04 72.18 73.54 69.26 68.32 72.19 73.12 73.01 72.63 72.13 72.32 72.89 71.42 70.69 68.00 67.61 68.64 69.52 67.96 66.65 64.82 65.63 64.10 64.16 63.35 65.57 64.48 63.07 60.05 60.12 64.17 64.27 64.41 64.14 63.88 64.21 63.66 64.03 62.73 61.06
71.53 71.45 72.07 71.79 70.97 72.35 66.10 66.57 68.69 73.70 73.02 72.85 72.80 72.60 72.40 73.05 70.59 72.34 68.07 66.48 66.61 65.58 67.88 69.20 66.28 66.73 65.52 66.47 65.62 63.42 64.67 63.62 63.28 63.18 64.91 63.45 61.90 63.74 64.35 64.28 62.35 61.57 60.62
72.46 72.01 71.39 71.64 72.13 72.36 65.35 64.32 66.75 72.87 73.61 73.39 73.37 73.17 72.92 72.81 72.28 71.49 72.03 71.40 69.88 69.95 68.19 68.17 70.19 70.21 68.88 68.83 66.37 66.25 64.98 65.45 64.89 63.34 65.00 62.89 62.93 63.63 64.49 64.78 63.20 62.35 60.16
73.58 73.32 73.37 72.13 71.84 72.55 63.08 62.89 65.03 71.89 72.92 73.22 73.65 73.79 73.77 73.37 69.29 64.70 71.20 71.40 71.51 71.72 67.87 64.28 64.61 65.34 64.47 63.46 65.25 66.00 64.36 62.41 62.58 63.58 64.65 64.93 62.23 63.05 63.18 64.07 64.12 62.18 60.11
73.74 74.24 74.26 74.46 70.94 73.00 64.18 60.89 63.64 72.18 71.87 72.40 73.34 74.02 66.79 71.14 65.03 62.41 69.88 71.52 71.05 71.81 72.40 72.05 69.88 66.06 64.09 66.37 62.59 65.37 67.01 64.55 63.76 63.13 64.71 64.16 61.90 62.26 60.90 62.70 62.54 62.09 61.06

GFSMA_sfc_wetblb_054.txt.gz
Wetbulb
70.77 70.40 71.40 71.69 71.67 71.98 71.87 71.42 72.76 72.07 70.74 69.29 72.01 72.81 71.79 71.60 72.37 72.86 74.13 74.52 75.24 74.74 73.36 74.11 74.17 74.51 74.36 73.92 73.62 73.64 73.54 73.54 72.52 71.92 72.04 72.64 72.56 72.39 71.91 72.16 72.00 71.63 71.87
70.32 70.65 71.73 72.21 72.42 72.34 72.19 71.27 72.46 71.29 70.28 69.24 70.89 72.09 72.07 71.47 72.20 72.99 73.88 75.58 75.58 75.67 73.75 72.86 72.95 73.23 73.19 73.19 73.09 73.16 73.34 72.93 72.77 72.95 73.03 72.95 72.66 72.84 72.60 72.44 72.45 72.82 72.78
70.87 71.02 71.79 72.27 72.43 72.78 72.09 71.55 72.32 70.66 69.72 67.73 69.42 70.99 70.93 71.14 72.17 72.81 73.66 73.85 75.13 74.39 74.53 74.64 73.84 73.39 73.05 72.67 72.72 72.91 72.46 72.64 73.14 73.14 72.96 73.42 72.91 73.33 73.08 72.93 72.75 72.68 72.71
71.77 71.95 72.12 72.65 72.92 72.90 72.78 72.38 71.65 68.26 69.32 67.54 68.11 69.49 69.64 70.32 70.84 72.30 72.96 73.17 74.52 75.03 74.36 74.90 74.95 74.69 74.58 74.29 74.22 73.97 73.47 73.50 72.74 72.68 72.60 73.00 73.63 73.17 73.36 72.73 72.78 72.39 71.96
72.04 72.73 72.14 72.66 72.99 72.29 73.11 72.78 71.14 70.43 69.00 69.03 67.61 68.23 68.76 68.98 69.85 70.65 71.48 72.08 72.87 73.75 73.98 75.16 75.28 75.05 74.61 74.38 73.73 74.01 73.94 74.08 74.20 74.05 73.78 73.80 73.71 73.25 72.83 72.91 72.94 72.59 72.12
73.34 72.55 71.53 72.48 70.59 71.89 72.23 72.73 71.05 69.62 69.74 69.16 67.12 66.27 67.16 68.98 69.25 69.74 70.23 71.19 71.56 72.35 72.44 73.46 74.33 74.78 75.01 75.08 74.93 74.44 74.17 73.88 74.01 73.87 74.10 74.18 74.06 73.86 73.69 73.21 72.87 71.73 71.53
73.65 71.68 72.08 71.47 70.32 72.10 72.13 71.60 68.46 67.32 67.15 67.29 66.60 65.76 66.27 67.42 68.64 69.17 69.45 69.57 70.13 70.84 71.27 71.97 72.99 73.01 72.73 74.06 75.03 74.94 74.15 74.06 73.96 73.90 74.13 74.48 73.98 73.68 73.28 72.49 71.72 71.35 69.66
73.49 71.87 72.37 71.49 71.96 72.00 71.34 70.94 69.86 68.19 66.94 67.29 64.81 64.06 62.99 65.86 65.92 66.56 68.64 69.30 69.58 70.19 70.53 71.17 72.02 72.05 71.73 72.72 73.23 73.78 74.62 74.10 73.23 72.88 72.69 72.44 72.30 71.92 71.50 71.36 70.34 68.93 68.22
74.28 73.65 72.72 72.22 72.27 73.12 71.52 71.93 70.50 68.44 66.30 67.55 66.12 64.69 61.95 61.85 62.88 65.09 66.58 68.37 69.79 69.61 70.11 70.71 70.80 71.08 71.21 71.70 72.07 73.24 74.28 73.55 72.95 72.72 72.42 72.00 71.58 71.33 69.89 68.20 68.81 68.34 68.25
73.66 74.18 73.39 72.73 72.94 73.21 72.14 72.11 71.42 69.54 67.82 66.89 67.37 66.31 65.70 65.29 63.62 63.68 65.36 66.63 68.47 68.94 69.59 69.78 70.48 70.59 71.26 70.89 70.99 71.99 73.29 72.77 73.41 72.50 71.29 69.36 68.73 67.89 67.60 67.01 67.53 68.15 68.07
73.35 74.25 73.99 73.53 73.06 73.02 72.77 72.83 71.14 70.13 66.95 66.66 66.55 66.74 66.83 65.84 63.45 63.07 62.85 64.81 66.44 67.79 68.39 68.93 69.54 70.62 71.32 71.15 71.26 71.06 72.71 72.63 72.45 71.80 70.46 69.28 68.16 67.79 67.41 67.44 67.52 67.81 68.01
72.53 73.66 74.45 73.83 73.57 73.22 72.85 72.13 72.38 71.01 68.34 67.00 66.05 67.19 66.83 66.35 65.57 63.73 62.28 63.25 63.99 66.99 67.02 67.36 68.32 69.59 70.98 70.96 71.20 70.99 71.93 72.50 70.55 69.91 70.01 70.54 70.27 69.08 68.60 68.54 68.54 68.80 69.21
71.33 72.27 73.55 73.49 73.21 73.20 73.23 73.09 72.60 72.24 70.12 68.92 66.60 66.90 66.50 66.46 66.10 65.81 64.82 63.91 63.46 65.14 66.68 67.37 67.59 68.73 70.08 70.70 70.84 71.80 71.89 71.52 69.47 68.28 68.70 69.33 70.06 70.82 71.11 70.69 70.23 70.05 70.05
70.44 73.03 73.07 73.70 73.74 73.67 73.43 73.28 72.20 72.42 72.02 70.96 69.59 68.29 68.43 66.67 66.07 66.19 66.46 65.43 64.30 63.77 64.63 67.96 67.43 67.68 68.97 69.98 70.28 70.37 70.81 69.77 68.76 66.93 67.13 67.51 68.30 69.09 70.02 70.79 71.23 71.02 70.69
70.67 71.90 73.11 73.56 73.84 73.68 73.60 73.42 72.43 72.38 72.74 71.94 72.06 71.42 69.19 69.12 66.57 66.53 65.93 65.86 65.69 62.85 63.64 67.14 66.64 68.54 68.58 68.88 70.02 70.43 70.71 69.09 68.40 66.90 66.07 66.20 66.75 67.40 68.11 68.62 68.77 68.53 68.38
70.86 71.68 71.95 73.16 73.81 73.90 74.05 73.54 73.32 73.26 72.83 72.39 71.29 71.16 71.27 70.41 68.94 68.68 67.50 65.30 64.41 64.57 62.78 65.14 66.95 67.96 68.15 68.03 68.78 69.98 69.19 68.44 67.22 66.80 65.85 65.35 65.53 66.16 66.72 67.13 67.20 67.01 67.00
69.54 71.21 71.93 72.35 72.79 73.20 73.62 73.47 73.65 73.69 72.97 73.31 72.91 71.80 71.40 71.45 70.90 69.81 68.32 67.51 65.27 64.05 63.25 65.00 64.64 67.43 68.15 68.51 68.98 69.66 68.75 68.25 68.16 65.72 65.81 65.26 64.65 64.98 65.39 65.82 65.74 65.67 65.87
69.44 70.54 71.78 72.04 72.83 73.66 73.67 73.40 73.32 73.70 73.16 72.98 73.17 73.08 72.79 72.22 71.69 71.58 69.89 68.76 67.28 65.83 64.73 64.61 65.53 66.17 67.16 68.72 68.70 68.63 68.56 68.06 67.83 65.89 64.77 64.78 64.14 63.71 63.58 63.51 63.53 63.60 63.47
70.54 70.07 70.77 71.39 72.04 73.28 73.81 73.76 73.68 73.45 73.37 73.44 73.57 73.33 73.27 73.41 72.90 72.23 71.07 69.86 68.64 67.58 65.68 64.48 65.43 65.31 66.85 67.43 67.30 67.37 67.92 68.57 68.34 66.68 63.45 63.40 63.53 63.42 62.72 61.59 61.21 60.73 60.20
70.71 71.02 70.88 71.41 72.25 72.90 73.67 73.94 73.83 73.71 73.39 73.35 73.98 73.70 73.68 73.47 73.36 73.43 72.68 72.08 70.94 69.23 67.36 66.23 66.48 66.12 66.39 67.76 66.77 66.58 66.10 66.24 66.85 67.82 66.76 65.44 64.49 64.13 63.40 61.58 61.06 60.89 58.62
70.81 70.91 70.92 71.41 72.02 72.67 73.33 73.56 73.94 73.61 73.50 73.24 73.57 73.80 74.13 73.50 71.26 71.76 73.29 73.04 72.65 70.20 69.69 67.01 67.26 66.93 66.54 66.41 65.98 68.28 65.73 67.68 67.59 67.92 67.26 67.60 67.44 67.35 67.44 63.95 65.31 63.86 60.68
72.47 72.02 71.15 71.41 71.70 72.10 67.88 67.48 71.98 73.61 73.64 73.26 72.80 73.31 73.90 71.71 71.24 68.04 67.66 68.63 71.92 71.78 70.85 69.90 69.08 68.73 69.03 69.03 68.70 67.15 66.05 65.77 64.68 68.03 66.70 66.51 67.50 67.34 67.82 68.39 65.50 63.34 61.52
71.85 72.17 72.20 72.05 71.56 72.42 65.65 65.68 67.77 73.61 73.61 73.70 73.72 73.58 73.56 73.79 71.55 73.85 68.99 66.52 66.90 66.01 68.40 72.64 70.31 69.98 69.79 70.79 70.00 68.52 67.12 66.51 66.26 68.64 66.87 65.70 66.74 65.21 67.51 68.06 63.14 62.11 61.07
70.99 71.24 72.02 72.39 71.59 71.70 64.74 63.87 66.28 72.85 73.54 73.96 74.03 74.13 74.06 74.01 73.95 73.34 73.62 73.34 72.58 72.11 70.65 70.27 71.92 72.94 73.45 73.40 72.50 70.97 69.61 68.08 67.50 68.00 67.51 63.17 67.61 65.70 67.39 66.57 62.94 62.23 60.69
72.57 71.99 72.00 72.19 72.33 72.62 62.85 62.55 64.80 72.23 73.18 73.45 74.33 74.76 74.48 74.23 69.32 64.53 72.99 72.75 73.02 73.48 68.63 64.62 65.23 65.48 64.59 63.97 66.80 71.64 68.75 65.21 64.00 65.43 66.58 65.07 66.16 65.16 66.22 66.90 66.61 62.72 60.04
73.56 73.78 73.30 73.37 69.58 72.50 63.63 60.72 63.50 72.00 71.91 72.62 73.81 74.53 66.70 71.79 65.04 62.30 71.34 72.97 72.18 72.98 74.08 74.41 73.03 68.10 65.43 68.09 63.54 66.95 68.84 67.35 66.11 64.86 68.07 65.13 65.60 65.53 62.67 65.43 66.20 65.57 62.77

GFSMA_sfc_wetblb_057.txt.gz
Wetbulb
76.26 75.36 75.05 75.35 75.67 76.33 76.10 76.25 75.88 74.79 74.23 73.89 75.29 75.11 74.53 74.58 73.87 74.09 74.57 74.07 75.13 73.79 73.87 74.40 74.51 74.71 74.35 73.76 73.57 73.81 73.80 73.62 72.45 71.91 72.41 72.97 72.65 72.44 72.83 72.81 73.04 72.81 72.67
75.98 74.76 74.73 75.37 75.84 76.81 76.90 76.65 75.76 74.63 73.62 74.23 75.26 75.34 74.95 74.63 74.28 74.02 75.23 74.82 74.20 73.89 73.13 72.58 73.39 73.59 73.43 73.19 73.10 72.91 73.34 72.86 72.72 73.20 73.26 73.05 72.69 72.69 72.88 72.81 72.76 73.25 73.06
74.99 75.98 76.24 75.75 76.20 76.85 76.48 77.59 76.04 75.30 72.51 73.54 74.67 75.12 74.94 74.74 73.87 73.80 75.25 75.99 74.60 74.05 74.37 73.45 72.58 72.31 72.20 72.34 72.58 72.77 72.40 72.43 72.96 73.02 72.79 73.04 73.37 73.21 73.30 72.57 72.73 72.73 72.45
76.18 77.05 76.19 76.29 76.79 76.59 76.90 77.82 75.49 73.75 72.78 72.53 73.60 74.16 74.68 74.72 73.63 73.64 74.79 75.70 75.83 75.65 74.37 74.06 74.37 74.52 74.36 74.49 73.98 73.86 73.27 73.59 72.84 72.65 72.58 72.86 73.49 73.42 73.17 72.95 72.61 72.54 72.29
75.40 76.79 76.72 76.63 77.06 76.51 76.58 76.48 75.46 74.81 72.56 72.02 72.77 73.59 73.81 73.17 72.96 72.90 74.00 74.89 75.65 75.73 76.16 74.67 74.37 74.40 74.09 73.95 74.07 73.94 73.93 74.05 74.21 74.23 74.02 73.77 73.75 73.60 73.02 72.80 72.66 72.09 71.97
76.54 76.45 77.09 76.62 76.38 76.94 77.20 76.64 75.72 74.85 73.69 70.77 71.11 71.75 73.18 73.55 74.36 73.33 73.65 74.15 74.65 75.13 75.16 75.49 75.82 75.32 74.72 74.82 74.46 74.22 74.03 74.05 74.08 73.91 73.90 73.86 73.61 73.28 72.86 72.52 72.30 71.53 71.64
76.87 77.00 76.59 76.37 75.74 76.31 77.30 75.70 74.13 73.08 72.37 70.40 69.85 70.26 71.07 73.34 73.65 73.95 74.41 74.39 73.69 74.11 74.65 75.55 75.09 75.28 74.93 73.50 74.27 74.19 74.36 74.30 74.13 73.85 73.71 73.59 73.34 72.90 72.55 71.56 71.69 70.87 69.58
77.43 76.87 76.25 75.92 75.56 75.61 76.33 75.25 74.26 70.66 71.86 71.80 70.26 69.95 66.91 69.24 71.64 72.72 73.60 73.60 73.49 74.60 74.21 73.78 74.88 74.77 74.85 74.81 74.40 73.38 74.03 73.88 73.30 73.12 72.76 72.34 72.10 71.88 71.64 71.43 70.09 68.20 67.58
77.48 77.38 76.42 76.31 75.89 78.73 77.36 76.34 74.12 72.91 70.26 72.11 71.19 70.47 66.14 65.55 69.21 71.33 71.68 72.62 73.45 73.52 74.13 74.28 74.00 74.40 74.55 74.63 73.68 72.84 73.68 72.97 72.92 72.76 72.49 72.08 71.61 71.42 70.70 68.09 67.62 67.13 67.02
77.31 77.76 77.44 76.65 76.72 77.90 78.12 76.15 75.45 74.52 73.00 70.36 70.82 71.16 71.50 70.93 66.73 65.63 70.73 72.33 72.87 72.93 73.74 73.90 73.80 73.97 74.35 74.54 72.60 71.82 72.40 72.87 72.85 72.52 72.02 70.70 70.00 68.81 67.74 67.36 67.26 67.64 67.60
77.12 77.36 77.87 77.13 76.74 77.34 77.76 76.88 76.40 75.52 73.03 71.69 70.78 70.69 72.09 71.81 70.75 68.82 66.66 69.26 71.28 72.52 73.45 73.60 73.20 73.34 74.30 74.60 73.76 73.06 72.38 73.05 72.74 72.92 70.93 68.96 68.32 68.00 67.86 67.64 67.95 68.05 68.32
76.19 77.09 77.32 77.66 77.79 77.12 76.94 76.81 77.07 76.33 74.64 72.78 72.12 72.46 70.59 69.44 69.16 69.16 67.99 69.52 68.68 71.72 72.62 73.22 73.21 73.14 73.59 74.14 74.43 72.91 71.83 72.53 72.00 71.07 70.48 70.88 70.29 69.18 68.94 69.10 69.07 69.24 69.42
74.47 76.31 77.47 77.42 77.18 77.89 77.67 77.29 77.15 76.89 75.50 73.20 72.97 71.43 72.08 71.64 72.11 71.93 70.05 69.47 68.94 71.42 71.41 72.30 72.72 73.15 73.13 74.04 74.36 73.34 72.70 70.86 70.93 69.29 68.98 69.64 70.31 70.97 71.34 70.84 70.52 70.29 70.39
74.03 76.67 77.12 77.54 77.79 77.96 77.79 77.62 76.59 76.37 76.62 75.17 74.72 73.60 71.97 71.81 71.53 71.42 70.19 69.19 67.45 69.16 70.68 71.78 73.12 72.83 72.91 73.50 74.40 72.90 73.20 69.66 69.54 68.32 66.98 67.84 68.56 69.35 70.10 71.14 71.56 72.03 72.15
73.62 75.34 76.44 76.84 77.34 77.54 77.90 77.82 76.49 76.39 76.58 76.63 76.04 75.87 74.07 73.71 72.81 72.29 71.42 70.54 68.48 65.52 66.77 71.18 70.49 74.23 73.80 73.58 73.46 74.00 74.20 70.68 68.85 68.17 66.62 66.14 66.86 67.60 68.22 68.93 69.29 69.60 69.66
74.48 74.63 75.72 76.41 76.92 77.26 77.79 77.65 76.75 77.34 76.81 76.16 75.79 76.40 76.41 75.27 74.43 73.77 72.37 71.31 70.20 68.75 66.46 70.38 70.60 72.48 73.51 72.84 73.44 73.13 73.78 70.82 68.78 67.66 66.75 65.56 65.68 66.46 66.87 67.26 67.56 67.85 68.03
74.97 75.09 75.67 75.95 76.31 76.48 77.06 77.20 76.96 77.09 76.72 76.91 76.97 76.20 76.13 76.64 75.20 74.99 73.78 73.01 71.49 70.62 68.16 70.03 71.32 72.74 72.99 73.71 73.96 74.02 73.54 73.49 72.80 66.82 66.55 65.84 64.77 65.13 65.76 66.02 65.99 66.11 66.41
74.84 75.06 75.62 75.92 76.18 76.06 76.56 76.45 76.13 75.81 76.10 76.45 76.92 76.83 76.12 75.83 76.50 76.68 75.16 74.79 73.74 73.45 70.64 71.56 72.58 71.65 73.06 74.88 74.60 74.23 73.25 72.71 72.93 69.67 65.91 65.20 64.61 63.90 63.79 63.85 64.05 64.10 64.03
75.21 74.47 74.87 75.39 75.51 75.75 76.17 76.39 76.35 76.28 76.31 76.62 77.01 77.00 76.92 76.90 76.24 75.79 76.03 75.25 74.86 74.54 73.41 71.27 71.24 72.48 72.06 72.21 72.90 73.81 73.21 74.07 73.16 69.78 65.23 63.97 63.95 63.71 62.96 62.11 61.72 61.19 60.68
75.09 74.94 75.03 75.31 75.37 75.69 75.97 76.00 76.18 76.36 76.39 76.67 77.12 77.29 77.29 77.12 76.73 76.86 76.37 76.32 75.97 75.06 75.18 73.26 72.38 72.49 73.05 74.77 72.64 70.72 70.71 72.31 71.77 72.28 70.22 67.89 66.81 64.69 63.49 61.93 61.43 61.30 59.27
75.57 75.91 75.27 75.04 75.31 74.87 74.72 75.84 75.75 76.15 76.28 76.45 76.82 77.23 77.48 76.19 72.40 73.98 76.33 77.62 77.49 75.11 73.97 72.72 71.98 71.70 71.59 71.59 71.50 71.93 71.10 71.79 73.02 73.29 71.97 72.20 72.03 70.72 69.48 63.49 65.32 63.82 61.20
75.34 75.60 74.79 74.99 74.92 74.33 68.18 67.19 73.47 75.66 76.59 76.46 76.13 76.79 77.18 73.82 73.07 68.37 67.84 68.76 74.01 76.73 75.24 73.76 73.14 72.86 75.30 74.37 74.29 73.26 72.65 71.53 70.41 75.05 73.32 70.76 71.90 70.94 72.99 72.09 66.79 64.12 61.36
75.04 74.67 74.56 74.94 75.31 76.24 65.42 65.05 67.55 75.11 75.95 76.70 76.92 76.62 76.37 76.30 73.99 76.67 70.48 66.57 67.04 66.10 68.29 75.89 75.68 75.83 75.91 76.98 77.16 75.52 75.07 73.93 72.66 74.20 74.13 71.23 72.97 71.36 71.70 72.73 64.84 63.44 62.50
75.98 75.70 75.47 75.92 75.58 76.00 65.10 63.44 65.47 73.95 75.90 76.84 77.12 77.29 77.50 77.62 77.62 76.22 76.54 76.51 76.98 77.01 75.33 73.65 75.05 76.03 77.68 78.62 78.51 77.52 77.09 76.16 75.02 74.75 75.36 69.45 72.71 72.74 74.53 73.35 66.25 64.24 62.55
74.64 74.82 75.14 75.44 75.53 76.20 63.33 62.57 65.61 74.07 74.87 76.23 76.93 77.60 77.54 77.36 71.19 65.36 75.62 75.89 77.00 77.26 71.55 65.96 66.72 66.21 64.81 64.36 67.85 73.72 71.06 70.39 69.03 70.68 74.41 71.26 70.45 70.94 72.32 71.66 73.18 64.52 61.64
74.87 74.78 74.53 75.57 71.84 76.20 65.27 60.61 64.36 73.70 74.53 74.06 76.63 77.50 67.55 73.19 65.65 62.40 74.81 75.38 75.68 75.81 76.68 77.43 77.73 71.42 66.99 71.37 64.44 70.09 71.68 69.47 69.90 69.15 73.32 69.40 69.87 69.89 66.59 69.96 70.28 70.14 68.20

GFSMA_sfc_wetblb_060.txt.gz
Wetbulb
76.39 76.06 76.03 76.40 77.12 76.71 75.88 76.10 75.35 75.61 75.80 76.63 75.96 75.61 74.94 74.59 74.51 74.12 74.28 74.43 74.03 74.01 74.97 74.76 74.74 74.60 74.54 73.87 73.79 73.84 73.91 73.71 72.17 72.00 72.61 73.02 72.74 72.90 72.97 72.55 72.86 73.15 72.83
77.28 75.72 76.23 76.03 76.29 77.57 76.37 75.64 75.36 74.47 74.61 75.19 75.83 75.66 75.24 74.88 74.95 75.84 74.03 75.14 74.55 73.46 72.97 73.60 74.00 74.30 73.80 73.44 73.36 72.87 73.65 72.82 72.85 73.46 73.59 73.21 73.01 72.86 73.09 73.01 73.15 73.18 73.04
77.88 78.20 76.45 76.36 76.33 77.36 77.37 76.73 76.54 76.00 72.83 73.78 75.06 75.55 75.27 74.73 74.39 74.97 75.83 74.87 74.40 74.58 73.83 72.94 72.47 72.39 72.20 72.66 72.80 73.14 72.43 72.23 72.66 72.95 72.77 72.30 73.06 73.49 73.19 73.00 72.49 72.61 72.67
77.88 78.62 76.73 76.30 77.27 76.88 76.02 75.19 73.55 73.45 72.96 72.95 73.78 73.75 74.46 74.39 74.58 74.75 75.04 76.06 76.24 74.60 74.66 74.65 74.29 74.15 74.19 74.50 73.97 73.85 73.67 73.38 73.50 72.98 73.05 73.23 73.67 73.24 73.07 72.67 72.75 72.52 72.28
77.93 78.60 76.73 77.51 79.10 77.68 75.10 74.78 74.12 74.67 72.35 72.42 72.66 73.70 74.35 73.53 74.21 73.95 74.36 75.66 75.24 75.75 75.31 75.03 74.36 74.01 73.77 73.60 73.91 73.75 74.03 73.93 74.17 74.17 74.14 73.91 73.97 73.45 73.11 72.48 72.12 72.16 71.82
77.72 78.09 77.73 79.03 77.14 75.46 75.47 75.29 75.67 75.16 73.95 73.51 71.06 72.37 73.58 74.00 74.04 74.02 73.82 73.71 74.27 75.51 75.84 76.49 75.82 75.78 74.62 74.49 74.39 74.24 74.57 74.12 74.23 74.14 73.98 73.92 73.60 73.20 72.73 72.26 71.92 71.48 71.26
78.76 78.84 77.55 78.03 78.53 75.46 75.70 76.54 75.90 75.15 71.16 71.65 71.95 71.41 71.94 73.53 73.98 73.96 74.77 74.93 73.51 73.75 74.67 75.46 74.94 75.29 75.14 74.58 74.31 74.00 74.06 74.00 74.15 73.93 73.60 73.35 72.93 72.61 72.20 71.49 71.94 70.92 68.93
78.89 78.26 78.44 77.71 78.12 75.19 76.15 76.35 75.58 72.70 73.35 72.99 70.44 69.65 66.81 69.35 71.81 72.23 73.53 74.30 74.67 75.27 74.83 74.63 75.22 75.23 75.09 74.69 74.74 73.36 73.67 73.77 73.46 73.29 72.97 72.54 72.13 71.98 71.99 71.84 70.48 68.65 67.25
78.87 78.89 78.74 78.47 79.05 76.38 75.09 76.52 75.53 74.52 71.20 73.19 74.34 72.15 67.30 66.09 67.11 70.16 72.66 72.71 74.53 74.02 75.55 75.13 74.93 75.17 75.18 74.73 73.64 73.51 73.81 73.18 72.87 72.99 72.82 72.27 71.78 71.59 71.32 69.52 68.05 67.45 67.55
78.73 78.93 78.90 78.44 77.87 76.52 78.15 75.93 75.55 74.96 74.85 71.48 72.15 72.27 73.80 72.78 66.95 65.57 70.45 72.21 73.72 73.31 74.26 74.33 74.11 74.56 74.88 74.17 73.51 71.83 72.78 72.92 72.61 72.87 72.55 71.50 70.37 69.76 67.99 67.29 67.25 67.68 68.00
78.96 78.55 79.26 79.00 78.94 76.51 77.39 77.07 77.20 77.10 73.66 73.02 71.24 70.69 72.29 70.98 72.59 68.86 67.52 69.28 71.74 72.74 73.62 73.95 74.21 74.30 74.80 74.67 74.28 74.29 72.29 73.60 73.08 73.10 72.69 70.28 69.04 68.26 67.99 67.77 67.77 68.21 68.68
77.40 78.77 79.00 79.27 79.37 77.99 77.18 76.89 77.76 78.00 76.79 75.50 73.32 73.16 70.21 69.21 69.32 69.49 69.00 70.17 69.86 72.70 73.51 73.84 73.88 73.89 74.17 74.56 75.71 73.39 72.65 72.53 72.46 72.52 72.53 71.60 70.87 69.42 69.14 69.07 69.18 69.17 69.26
75.09 77.04 78.97 79.10 78.45 79.83 78.63 78.33 79.76 77.99 77.47 76.11 75.79 72.30 72.35 72.14 72.90 71.50 70.25 70.10 69.26 72.79 72.09 73.28 73.50 74.35 74.16 74.80 75.05 73.95 73.15 71.21 71.20 70.43 69.93 70.19 71.00 71.42 71.33 71.07 70.74 70.37 70.45
74.88 77.20 78.29 78.68 78.81 78.99 79.11 78.88 77.47 77.01 77.78 76.71 76.64 76.32 73.42 72.63 73.26 72.34 70.98 69.87 67.81 69.13 70.96 73.17 74.03 74.29 74.58 75.07 75.85 73.63 74.17 70.27 69.61 68.95 68.30 68.07 68.82 69.61 70.58 71.22 71.72 72.00 72.06
75.44 76.47 77.14 77.94 78.20 78.52 78.82 78.85 77.43 77.95 77.89 77.50 77.60 77.19 75.68 73.65 73.73 72.76 72.87 72.07 69.68 67.02 67.97 72.68 71.58 75.93 74.97 74.77 75.59 75.63 75.62 71.34 69.16 68.30 67.62 66.91 66.98 67.85 68.49 69.14 69.72 70.09 70.68
77.01 76.47 76.40 76.88 76.98 77.56 78.57 78.96 77.94 78.56 78.48 77.45 76.56 77.60 77.74 75.54 75.17 74.63 73.73 72.98 72.01 70.06 67.53 70.56 71.72 73.85 75.11 74.88 74.67 75.76 75.40 72.31 69.38 68.14 67.38 66.60 66.18 66.48 67.01 67.55 67.79 68.08 68.38
77.27 77.12 76.63 76.32 76.31 77.30 78.19 78.42 78.32 77.72 77.99 78.36 78.18 77.33 77.43 78.33 76.14 75.14 74.80 74.06 73.08 72.31 69.80 70.87 72.16 74.93 76.51 75.87 75.96 76.37 75.81 75.74 74.73 67.92 67.43 66.74 65.72 65.50 65.63 66.01 66.22 66.41 66.84
77.42 77.45 77.44 76.68 76.13 76.62 77.75 77.84 77.33 76.85 77.05 77.20 77.73 77.72 77.38 76.69 77.66 77.79 75.97 76.96 75.59 76.09 72.27 74.20 74.39 73.03 75.97 77.84 77.11 76.08 75.42 74.76 74.67 71.05 67.12 66.30 65.55 65.00 64.50 64.09 64.04 64.32 64.35
77.44 77.21 77.24 76.99 76.49 76.31 77.08 77.86 77.74 77.39 77.02 77.11 77.39 77.78 77.81 78.22 77.66 77.11 77.15 75.91 75.73 75.83 76.22 74.30 73.64 74.46 74.61 75.66 76.33 77.72 77.32 76.92 75.36 71.55 66.38 65.31 64.80 64.42 63.92 62.86 62.08 61.56 61.32
77.37 77.32 77.50 77.16 76.98 76.63 76.28 76.68 77.11 77.35 77.17 77.07 77.85 78.07 78.35 78.30 78.40 78.63 78.18 78.21 77.88 76.78 76.44 74.44 73.32 73.22 73.65 75.89 74.69 73.27 73.14 74.49 73.79 74.68 72.36 69.27 68.50 66.28 64.38 62.55 62.16 61.70 60.12
77.31 77.60 77.46 77.41 77.27 76.56 75.30 76.37 76.43 76.31 76.94 77.08 77.53 78.26 78.48 77.46 73.24 74.91 77.86 79.81 80.44 77.37 75.11 73.90 72.96 72.98 72.74 72.94 73.95 73.90 73.76 74.72 76.44 76.55 75.68 75.91 75.87 75.68 74.43 64.59 66.35 64.62 62.14
77.99 77.86 77.22 77.26 76.77 76.14 68.66 66.81 72.91 75.38 76.41 76.69 76.89 77.81 78.58 74.93 74.16 69.19 68.38 68.63 72.88 78.54 78.81 75.46 74.24 73.68 77.75 76.97 76.20 75.57 74.87 74.24 73.73 77.56 77.05 75.76 77.03 76.11 76.59 76.56 69.56 64.57 63.48
78.17 77.82 77.28 77.30 77.60 78.13 65.98 64.84 67.24 74.94 75.29 76.95 78.40 77.60 77.03 76.49 75.25 77.94 70.70 67.53 68.22 66.69 68.02 75.99 76.98 77.56 77.65 79.12 79.77 79.18 77.76 77.18 76.06 77.59 78.06 75.32 77.38 76.17 77.46 77.15 66.71 64.02 62.38
78.04 77.82 77.33 78.34 78.30 78.05 65.21 63.67 65.64 75.35 76.53 77.61 78.32 78.10 79.00 78.73 78.32 76.89 77.47 77.34 77.53 78.38 77.31 75.37 76.06 76.38 77.37 78.23 79.02 78.48 79.19 78.02 77.51 77.35 78.56 73.75 76.67 75.89 77.35 77.30 67.95 64.36 62.76
77.70 77.72 77.35 77.87 78.24 78.23 63.72 62.83 66.33 75.43 75.38 77.42 77.53 78.56 78.85 78.99 72.28 65.89 76.70 76.86 77.49 77.87 71.81 65.31 66.78 66.90 66.25 65.69 69.35 75.59 73.12 73.28 72.92 74.48 76.84 75.36 75.83 74.57 75.03 75.84 75.75 66.06 62.54
76.93 76.98 77.10 78.24 73.73 78.39 65.75 61.04 66.10 75.31 75.67 74.92 78.08 79.26 68.06 73.62 65.90 62.60 76.53 76.56 76.70 75.87 76.54 77.72 78.70 73.50 67.05 71.52 64.69 73.37 75.78 73.52 73.42 72.02 77.63 72.93 73.29 73.74 70.19 73.35 73.25 72.24 71.10

GFSMA_sfc_wetblb_063.txt.gz
Wetbulb
75.35 76.38 75.75 73.10 77.67 75.61 74.45 75.18 74.48 75.21 76.29 75.08 74.38 72.87 73.45 73.32 73.60 73.33 73.51 74.58 74.66 75.12 75.07 74.89 74.87 74.64 74.37 73.85 73.85 73.83 73.84 72.79 72.08 72.43 73.00 72.98 72.76 72.80 72.93 72.77 73.12 73.45 72.93
77.08 75.85 77.31 76.01 74.65 72.52 73.76 75.52 76.63 75.08 76.26 73.20 74.61 74.81 73.42 74.09 74.89 75.24 73.74 74.74 74.41 73.98 74.06 74.36 74.79 74.52 73.67 73.83 73.53 72.88 73.67 72.92 72.73 73.24 73.25 73.03 73.14 72.99 72.95 72.54 72.30 72.62 72.66
78.06 78.75 76.45 72.46 75.63 76.99 77.86 76.29 75.99 73.69 73.42 73.47 73.80 74.47 73.50 74.26 74.43 74.98 73.81 74.13 74.71 74.48 73.84 73.23 72.77 72.49 72.49 72.69 72.91 73.12 72.35 72.13 72.02 72.56 72.31 71.99 72.08 73.11 72.99 72.88 72.56 72.68 72.67
77.94 78.39 76.10 75.57 76.27 73.68 73.71 72.43 73.76 73.85 71.86 73.12 72.53 72.19 72.22 73.78 74.39 74.41 74.80 74.31 75.25 75.01 75.00 74.89 74.24 73.88 73.85 74.21 73.78 73.94 73.85 73.86 73.63 73.16 73.23 73.55 73.68 73.25 72.98 72.50 72.29 72.21 72.23
77.99 77.92 76.39 76.89 76.99 76.30 75.07 73.68 70.26 73.63 72.49 71.38 71.69 72.30 74.83 72.65 74.02 73.34 73.81 74.77 74.85 73.90 74.83 75.94 75.53 74.94 74.30 73.87 74.14 73.64 74.13 74.23 74.09 73.93 73.95 74.03 73.95 73.64 73.00 72.45 71.98 71.83 71.70
78.28 78.25 75.53 77.02 76.83 75.94 71.91 75.42 75.20 74.91 74.85 71.29 71.88 72.09 72.06 72.65 72.79 72.87 72.51 73.01 73.88 74.25 74.88 76.02 75.14 74.61 75.21 74.58 74.85 74.69 74.76 74.49 74.45 74.48 74.29 73.99 73.97 73.39 72.77 72.27 71.91 71.67 70.48
78.41 78.61 75.89 77.38 77.00 76.42 73.39 75.68 74.39 73.81 71.88 73.64 71.53 70.66 71.16 72.08 72.37 72.15 72.67 72.78 72.39 73.06 73.15 74.04 74.06 75.03 74.92 75.54 74.91 74.45 74.49 74.56 74.42 74.02 73.90 73.71 73.15 72.84 72.48 71.93 72.03 71.31 67.96
78.64 78.28 78.91 77.30 76.92 76.43 76.30 76.81 75.17 71.75 70.12 73.57 68.70 70.31 68.26 70.09 70.57 71.57 71.70 71.79 73.02 73.27 73.52 73.69 73.95 74.07 73.95 74.77 75.52 74.82 74.08 74.18 73.74 73.11 72.98 72.62 72.02 71.89 71.64 71.84 71.17 69.19 67.36
78.70 78.93 78.69 76.16 77.45 77.15 74.44 76.20 75.96 76.79 71.62 72.55 75.21 70.88 68.11 65.66 67.63 69.54 71.01 71.78 73.56 73.28 74.30 74.01 73.98 73.92 74.48 74.49 74.16 74.41 74.55 73.69 72.71 72.69 72.71 72.24 71.91 71.67 71.71 71.10 68.96 68.07 67.93
78.40 78.67 79.04 78.72 77.99 77.21 77.90 77.42 75.85 76.87 75.19 72.05 71.16 72.35 75.51 73.29 68.75 65.58 70.11 71.51 72.90 72.73 73.90 74.08 74.35 74.44 74.70 74.18 73.56 73.80 74.49 73.70 72.76 72.83 72.55 71.85 71.14 71.11 70.29 68.32 68.10 68.13 68.30
78.69 78.05 79.07 79.02 78.39 76.75 78.24 77.24 77.13 77.75 74.67 73.82 70.51 70.15 72.38 68.88 72.18 70.26 67.79 69.40 71.66 72.56 73.71 74.13 73.56 73.75 75.16 74.43 74.11 74.50 73.00 73.30 73.35 73.42 73.30 71.97 70.39 69.50 68.50 68.18 68.20 68.46 68.95
77.21 78.78 78.50 80.35 78.71 78.18 77.85 77.61 78.30 77.63 78.76 76.59 74.67 72.07 69.25 69.20 69.49 69.35 68.61 70.21 70.14 71.74 72.51 73.00 73.38 73.28 73.67 74.38 75.52 73.50 72.53 72.21 72.39 72.63 73.32 73.38 71.98 70.36 69.63 69.50 69.28 69.38 69.69
74.35 79.08 80.05 79.34 78.77 79.67 78.53 78.68 79.06 77.58 77.59 76.05 77.13 72.19 72.06 71.65 72.20 71.28 70.30 69.08 69.01 71.06 71.01 72.60 73.19 74.01 73.94 74.67 74.95 74.82 73.13 71.20 71.06 70.70 70.95 71.57 71.55 71.66 71.62 71.62 71.11 70.84 70.55
74.93 80.69 78.85 78.35 78.79 79.00 78.24 79.45 77.23 76.75 79.28 76.43 77.23 77.86 74.45 72.64 72.79 72.17 71.01 69.95 68.19 68.71 70.96 73.59 73.59 73.99 74.57 74.95 75.85 73.54 74.50 70.05 69.45 69.12 69.09 69.30 69.49 69.99 70.91 71.13 71.41 71.74 71.86
75.72 76.54 77.71 78.24 78.22 78.06 79.40 80.38 76.84 78.72 77.45 78.05 77.88 77.93 75.83 73.92 73.20 72.93 72.38 71.84 69.82 67.34 68.51 73.82 72.16 76.49 75.04 74.63 75.85 76.06 77.02 71.95 69.23 68.34 67.61 67.73 67.69 68.11 68.92 69.50 69.87 70.06 70.73
79.45 77.87 78.09 77.47 77.95 79.04 79.01 80.80 78.95 79.68 78.90 77.47 76.12 78.71 78.71 74.86 75.34 74.16 73.39 72.86 72.44 70.34 67.95 71.29 71.87 74.51 75.92 74.65 75.58 75.96 75.79 72.49 69.57 68.31 67.56 66.67 66.84 66.99 67.05 67.60 67.85 67.95 68.55
80.17 79.36 79.11 78.18 77.57 77.70 78.79 80.06 79.98 78.85 78.79 78.92 78.95 78.11 78.95 80.34 75.97 74.87 74.50 74.00 72.96 72.50 69.67 71.16 72.49 76.46 80.06 79.06 78.12 78.29 76.50 77.57 75.56 68.11 67.40 66.81 66.03 66.09 66.31 66.04 65.96 66.26 66.72
79.57 80.00 79.26 79.02 77.76 77.34 78.98 79.49 77.68 77.90 77.22 77.50 78.12 79.17 77.40 76.36 79.38 79.37 76.42 79.70 76.42 77.32 72.30 74.72 74.79 74.37 77.41 78.82 78.81 79.11 76.25 75.93 76.19 72.50 67.18 66.52 65.77 65.27 65.14 64.72 64.33 64.27 64.18
79.87 78.02 79.12 79.43 78.57 77.77 78.59 79.63 79.83 78.71 78.43 78.34 78.53 78.72 78.50 78.99 79.57 77.29 78.71 76.01 75.00 76.30 76.02 74.07 74.34 76.01 76.53 76.33 77.27 79.01 78.88 78.43 77.28 72.92 68.73 65.98 65.42 65.35 64.43 63.40 62.87 62.08 61.12
79.76 79.40 79.95 79.78 79.08 78.37 78.15 77.92 78.66 78.85 79.05 78.21 78.76 78.82 79.04 79.18 79.67 80.22 78.92 80.17 78.74 77.47 76.08 74.91 74.58 74.67 75.40 78.08 76.95 74.76 74.81 76.59 76.18 76.51 73.99 71.22 69.82 66.67 65.20 63.38 62.83 62.77 60.31
79.70 80.16 80.05 79.84 79.82 78.16 76.61 77.96 78.47 78.63 79.04 78.28 78.79 78.72 78.82 78.05 73.31 76.09 77.81 79.22 79.33 77.66 75.58 74.78 74.30 74.52 74.36 74.21 75.22 75.94 74.74 76.34 78.15 77.89 77.19 77.82 77.25 77.74 76.81 65.35 67.27 65.04 62.27
79.83 79.92 79.81 79.74 79.25 76.75 69.60 67.48 74.64 77.22 78.21 78.62 78.44 79.39 79.65 75.19 74.05 69.57 68.73 69.17 73.40 78.26 78.77 75.44 74.51 73.85 76.28 76.29 76.51 75.99 76.67 75.29 74.61 78.60 78.15 78.02 79.41 78.53 79.01 78.22 71.14 65.41 62.56
80.15 79.97 79.79 79.81 79.55 79.79 66.38 65.15 67.35 76.13 77.34 77.92 78.50 79.23 78.43 76.23 75.69 79.46 71.59 68.61 69.10 67.28 68.58 76.05 75.94 76.48 76.65 78.20 79.10 78.64 76.81 76.67 76.30 78.69 78.36 76.76 78.05 76.79 78.86 77.41 68.68 64.96 62.19
79.55 79.52 79.69 80.00 80.07 79.60 66.54 63.13 65.64 76.68 76.56 77.38 78.82 79.19 79.14 78.88 79.00 79.06 79.75 78.88 78.54 78.79 77.67 75.36 76.37 77.16 78.48 79.25 79.19 78.61 78.65 78.00 78.07 78.38 78.69 74.97 77.57 76.98 77.92 79.20 70.78 67.50 62.22
79.52 79.39 79.93 80.11 80.17 79.79 64.79 62.85 66.09 76.35 76.24 77.53 78.15 78.26 78.58 79.44 73.04 67.21 77.56 76.95 77.39 77.88 72.52 64.57 65.62 66.36 66.40 66.10 69.86 74.34 72.90 74.11 74.64 75.42 77.92 75.93 76.57 76.53 76.66 77.18 76.75 67.09 62.41
79.70 78.44 79.21 80.32 75.87 80.39 66.34 61.39 66.15 75.88 76.10 75.64 78.22 78.90 68.55 74.04 66.80 63.09 77.18 77.70 76.68 77.58 78.29 77.94 78.56 75.05 67.50 71.69 64.61 72.88 76.36 74.95 75.25 74.36 79.58 74.96 75.34 73.64 70.95 74.83 74.89 75.01 74.47

GFSMA_sfc_wetblb_069.txt.gz
Wetbulb
71.16 72.14 71.91 71.12 71.17 71.83 71.70 71.24 71.69 71.13 71.59 70.85 72.39 71.53 71.28 71.38 71.81 73.04 72.77 76.46 76.47 76.41 75.34 75.25 74.97 74.62 74.38 74.49 73.68 73.70 73.63 71.98 72.26 73.11 73.42 72.99 72.99 72.99 73.15 72.25 72.80 72.77 72.96
73.48 71.67 70.86 71.55 70.77 71.48 72.18 71.34 71.64 71.44 70.90 70.99 70.28 70.99 70.53 70.42 70.93 71.09 71.54 73.53 76.26 76.50 75.69 75.25 74.99 74.58 74.01 73.66 73.63 73.36 73.27 72.24 72.62 72.53 72.25 72.12 72.45 73.23 73.08 73.03 72.69 72.62 72.56
72.89 72.83 71.31 72.11 70.50 71.78 70.66 70.86 72.13 72.25 70.56 69.76 70.65 69.35 70.82 70.67 70.10 70.85 70.72 71.62 74.48 76.21 75.90 75.54 75.65 74.90 74.10 73.89 73.29 73.04 72.65 72.23 71.66 71.85 72.41 72.41 72.68 73.44 73.04 72.92 72.59 72.24 72.27
72.90 72.00 71.37 71.27 72.75 72.15 72.30 67.90 70.74 69.70 70.24 69.33 68.45 69.34 69.40 70.27 70.29 70.57 70.80 70.88 71.12 71.99 74.85 75.58 75.61 75.16 73.62 73.33 73.24 73.21 73.43 74.02 74.36 73.70 73.35 73.64 73.69 73.60 73.68 73.15 72.46 71.99 71.78
74.49 72.16 70.92 70.73 71.71 71.45 71.79 71.90 68.83 71.23 68.71 68.78 68.62 68.47 69.49 70.38 71.49 71.62 71.61 71.70 70.50 71.17 71.29 74.68 75.20 75.14 74.08 74.32 74.78 74.91 75.32 75.25 75.11 74.83 74.33 74.08 74.09 74.09 73.94 73.69 73.00 71.93 71.66
74.28 73.06 72.57 72.25 73.17 71.00 69.45 70.96 68.05 68.92 66.90 69.22 69.55 69.39 69.04 68.31 68.73 69.17 70.26 72.79 71.92 71.65 71.20 71.74 72.71 73.61 75.68 75.82 75.94 75.98 74.61 75.42 75.18 74.88 75.14 74.84 74.62 74.44 73.94 73.50 73.10 72.41 71.44
71.44 69.30 71.87 72.79 71.81 70.23 68.37 71.32 70.22 67.48 68.28 69.75 67.57 66.54 66.69 68.03 67.56 68.94 69.55 70.78 71.05 72.44 72.44 71.27 72.25 72.29 73.05 75.84 75.63 76.23 75.25 75.07 75.12 75.10 74.76 74.44 74.24 73.55 73.47 73.21 72.82 72.57 71.10
73.34 73.49 72.54 72.80 71.88 70.73 71.46 69.85 68.66 67.35 65.88 66.76 65.36 66.30 61.67 63.50 67.50 68.08 68.11 69.15 66.73 71.46 71.77 71.88 71.84 71.25 70.47 71.41 73.08 75.94 75.77 75.52 74.82 74.59 74.94 74.09 73.70 73.15 72.73 72.37 72.28 72.50 70.97
75.14 74.52 72.68 73.23 72.50 71.98 70.95 71.10 70.58 68.70 66.57 67.30 68.77 65.74 61.14 60.12 63.81 65.20 63.86 67.06 66.92 68.16 68.50 69.20 69.83 71.68 70.63 70.96 72.82 74.19 75.32 74.19 75.15 74.19 74.05 74.11 73.35 73.20 72.70 72.68 72.69 72.10 70.36
75.29 74.98 74.42 73.37 73.23 71.28 71.10 71.70 72.88 68.82 66.81 65.90 69.79 71.15 66.62 65.96 63.27 58.89 64.41 66.43 67.35 68.83 68.58 68.90 69.13 69.70 69.39 71.23 73.69 73.84 74.54 73.37 74.24 74.62 74.08 74.08 73.44 72.75 72.20 72.13 72.24 71.66 70.19
75.23 75.69 74.87 74.54 73.29 71.51 71.87 71.95 72.19 71.96 70.34 68.75 68.31 65.41 66.58 65.74 66.68 63.11 62.74 65.23 67.14 67.26 68.74 68.28 69.44 69.60 69.78 69.47 71.11 72.18 73.59 73.14 72.92 73.52 74.42 74.74 73.95 72.36 71.55 71.46 71.34 70.54 69.62
74.82 75.12 76.52 74.29 73.65 73.57 72.96 72.99 72.83 71.71 72.00 71.84 71.33 69.23 63.87 63.61 63.79 65.55 64.84 65.20 63.93 65.75 68.98 69.37 68.19 69.98 70.30 69.57 72.22 72.84 73.92 72.57 71.51 71.93 72.38 73.44 73.99 73.82 72.05 71.35 70.97 70.12 69.63
72.77 73.70 74.86 73.93 74.40 73.95 73.80 73.82 73.31 73.21 72.99 71.57 72.46 71.03 70.75 69.70 67.27 66.52 66.52 65.68 63.46 65.94 65.34 67.75 69.43 67.78 71.15 70.77 70.80 73.61 73.70 71.73 70.33 69.73 69.98 70.87 72.07 72.85 73.37 72.94 72.76 72.21 71.38
73.05 73.40 74.87 73.50 73.99 74.27 74.54 73.73 72.86 73.28 73.22 73.01 71.66 72.00 71.93 70.70 70.62 67.40 66.92 64.93 62.05 64.05 66.15 64.45 68.03 69.18 68.83 70.34 72.20 73.56 70.76 70.13 69.18 68.39 68.20 68.66 69.55 70.42 71.28 71.74 71.64 71.63 71.87
73.48 73.65 75.54 74.27 74.92 74.51 74.46 74.00 72.64 72.39 73.03 73.32 72.72 72.14 72.61 71.42 70.56 69.48 67.36 67.07 64.46 60.87 62.15 66.66 68.00 70.40 69.63 70.30 71.92 71.96 69.81 70.16 68.81 67.85 66.98 67.06 67.61 68.16 69.08 69.84 69.70 69.50 69.84
72.80 74.07 75.26 75.12 75.62 74.24 73.74 74.07 71.93 73.11 72.34 72.37 72.03 72.61 71.74 71.68 69.93 71.57 68.58 67.77 66.93 64.81 62.60 66.13 66.72 68.27 71.44 71.27 72.17 71.31 70.50 71.43 69.86 68.12 67.05 66.28 66.29 66.91 67.41 67.94 68.19 68.31 68.41
73.45 75.20 75.22 74.84 74.61 75.16 74.67 74.13 72.31 73.42 72.31 72.47 72.47 73.02 72.92 72.54 70.93 71.53 73.32 71.56 69.06 67.41 64.81 65.92 68.43 70.11 70.67 71.02 72.08 71.67 71.83 71.54 70.92 68.53 67.65 66.98 66.16 66.32 66.53 66.80 66.95 66.96 66.97
72.31 74.64 75.50 75.33 74.56 73.77 74.19 74.23 72.57 73.00 73.47 72.54 72.78 72.72 73.09 73.97 72.22 72.29 72.69 71.28 71.63 71.96 69.24 67.03 68.86 68.65 69.04 70.33 70.61 71.22 73.38 75.38 73.13 72.26 68.69 67.59 66.29 65.29 65.10 64.83 64.83 65.12 64.85
72.04 73.16 74.34 74.14 73.86 74.27 73.82 73.96 74.37 73.41 73.02 73.02 72.75 73.23 73.11 73.22 72.11 72.59 71.55 71.41 71.09 70.97 70.95 69.30 68.42 70.56 71.63 72.20 72.28 71.86 72.78 73.87 74.74 72.54 68.79 67.44 66.80 66.00 65.00 63.84 62.78 61.93 61.29
74.05 74.00 74.42 74.17 74.54 73.84 73.52 73.65 73.99 74.11 73.84 73.86 74.41 74.22 74.39 74.06 73.47 73.45 74.14 73.21 72.92 72.20 71.90 71.19 70.86 70.40 70.27 72.04 71.11 71.09 70.19 70.76 71.24 74.70 73.36 71.19 69.40 69.33 66.43 63.95 63.23 62.85 60.71
73.11 73.44 73.77 74.34 74.64 74.88 74.86 73.27 73.65 74.42 74.19 73.80 73.66 74.12 74.59 74.19 73.08 73.31 74.76 73.76 73.57 72.51 72.48 71.97 71.22 70.78 70.25 69.23 69.55 70.60 70.63 71.14 71.66 71.72 72.70 72.66 74.13 75.98 75.65 72.08 69.01 67.10 63.33
74.07 73.42 73.23 74.17 74.52 75.61 70.70 69.26 72.46 73.13 74.46 74.24 74.04 74.03 74.59 72.95 72.27 69.60 69.40 70.17 73.62 73.57 72.59 71.93 71.22 70.57 70.18 70.29 71.05 70.63 70.56 69.71 69.10 72.63 72.82 74.06 74.45 74.69 75.94 75.39 70.73 66.16 64.48
71.60 73.03 74.16 74.54 74.25 75.09 67.83 67.23 69.41 73.33 72.42 73.92 74.20 73.99 73.86 75.40 72.03 73.62 69.76 67.19 67.42 66.77 68.64 72.25 70.37 70.76 70.71 71.64 71.25 70.43 70.99 71.61 71.63 73.65 73.00 72.61 74.55 74.27 75.72 75.67 69.55 66.99 65.88
72.59 72.68 73.28 74.46 74.77 74.97 67.37 65.38 67.23 72.39 72.66 72.55 73.74 74.47 73.93 73.75 72.75 72.55 73.18 73.36 72.50 71.85 70.77 70.02 70.12 72.11 72.83 73.25 72.62 73.19 72.77 72.88 73.81 75.01 72.17 70.60 74.22 73.26 74.11 74.64 69.51 68.30 63.49
73.67 73.19 74.30 74.45 74.53 75.05 66.08 65.01 64.69 68.14 71.53 72.12 72.88 73.28 73.56 73.61 69.90 66.67 71.66 72.08 72.62 73.86 71.63 66.08 66.76 66.89 66.80 66.76 69.04 72.40 72.69 71.27 70.70 69.99 72.50 72.62 72.51 72.53 72.63 72.40 72.78 64.30 60.71
73.27 74.30 73.75 74.63 72.26 75.00 66.21 63.76 64.77 72.38 69.40 70.43 71.33 71.50 66.85 71.65 66.50 64.70 71.09 71.73 70.11 70.55 70.38 71.34 71.43 67.93 65.47 68.23 65.16 69.17 71.87 69.29 68.60 70.60 73.45 71.69 71.22 71.76 70.37 70.57 70.56 64.28 63.11

GFSMA_sfc_wetblb_072.txt.gz
Wetbulb
69.90 71.70 70.80 70.41 70.89 72.17 70.72 69.84 70.13 69.90 70.10 70.74 71.15 70.08 70.74 70.89 71.74 72.61 72.66 75.84 76.29 75.48 74.68 74.68 74.65 74.30 73.72 73.72 73.28 73.35 72.54 71.55 72.07 73.03 72.79 72.31 72.66 72.89 72.78 72.35 72.62 72.70 72.81
70.41 70.33 69.55 68.02 68.94 70.56 70.48 70.21 69.73 70.25 69.59 70.21 69.61 69.82 70.19 70.79 71.68 71.99 72.21 73.28 76.27 76.24 75.17 74.73 74.60 74.27 74.09 73.89 73.41 73.37 72.80 71.94 72.35 72.42 72.04 71.78 71.67 72.51 72.74 72.62 72.42 72.58 72.51
72.11 69.53 70.15 70.08 70.17 70.13 70.73 70.19 70.65 70.87 69.87 69.04 69.03 69.42 69.57 70.06 70.71 71.00 71.47 71.94 74.42 75.65 75.37 75.19 74.98 74.47 74.06 74.02 73.88 72.98 73.48 73.44 71.97 72.02 72.19 71.96 72.56 73.25 73.25 72.80 72.48 71.99 72.05
72.24 70.72 69.55 69.42 70.92 70.50 69.86 68.48 70.03 70.71 68.59 68.59 68.07 68.93 68.68 68.71 68.64 69.57 70.31 71.57 72.37 72.98 75.24 76.02 75.94 75.06 74.02 73.31 73.39 73.56 73.56 73.32 73.70 73.69 73.54 73.55 74.07 73.75 73.53 72.91 72.44 71.75 71.50
72.89 71.34 70.64 70.24 69.96 70.40 70.74 67.52 69.44 68.20 67.39 67.68 67.53 67.23 68.46 68.58 68.54 69.96 69.30 69.61 70.07 70.54 70.89 74.33 75.98 75.60 73.68 74.08 74.07 74.07 74.14 75.34 75.38 74.45 74.15 73.78 73.90 73.93 73.63 73.14 72.49 71.65 71.46
72.72 71.58 70.77 70.66 71.42 69.24 69.74 69.61 67.64 67.56 67.10 66.87 68.27 67.49 67.63 67.81 69.02 69.14 69.88 70.77 69.51 70.50 69.75 69.95 71.89 72.68 74.94 74.90 75.57 75.67 75.41 74.86 75.50 74.65 74.73 74.90 74.55 74.03 73.68 73.58 72.76 72.00 71.50
72.25 70.91 71.64 72.19 71.52 68.03 68.37 68.99 69.17 65.33 65.92 66.94 65.06 65.21 65.46 67.08 66.33 67.53 69.00 70.28 70.81 71.01 70.22 70.39 70.78 71.36 72.01 75.66 76.13 76.20 75.05 75.14 75.12 75.16 75.28 74.90 74.75 74.19 73.64 73.29 73.04 72.26 71.77
69.84 71.17 71.35 71.76 69.92 68.54 69.76 69.01 67.60 65.08 64.93 65.31 64.46 63.15 60.53 61.80 65.30 66.71 67.45 69.15 69.22 70.76 71.48 71.26 70.84 70.84 70.48 70.70 72.29 75.18 76.01 75.44 74.77 74.87 75.14 74.90 74.30 73.85 73.27 72.75 72.29 72.32 71.86
72.34 73.18 72.09 71.98 70.90 70.55 69.70 68.60 67.85 65.97 63.82 65.67 66.31 64.64 59.18 57.84 62.10 63.77 64.02 66.40 67.20 66.97 70.28 70.81 71.48 71.18 70.19 69.67 71.65 73.68 75.43 74.74 74.85 74.49 74.91 74.85 74.40 73.63 72.91 72.65 72.24 72.46 72.24
73.40 73.26 72.29 72.74 71.33 70.82 70.18 70.46 70.98 66.70 64.84 64.65 68.36 68.61 64.59 63.59 61.47 57.27 62.05 64.23 65.33 66.77 67.50 67.40 68.85 69.96 70.56 70.30 71.90 72.96 73.63 74.14 74.43 74.75 74.58 74.86 74.73 73.58 72.46 72.39 72.64 72.32 71.81
73.65 73.68 73.17 72.82 72.41 70.64 70.19 70.98 71.16 69.48 66.70 66.72 66.80 64.46 65.95 64.27 64.30 61.40 59.62 61.98 65.52 66.10 66.87 66.99 67.76 67.96 68.05 69.41 70.03 72.09 73.95 73.46 73.19 73.39 74.43 74.85 74.95 73.60 72.63 71.97 72.16 72.12 71.43
72.84 73.40 73.72 73.04 72.22 71.35 70.92 70.61 71.21 70.69 70.83 69.86 69.44 68.24 63.69 60.99 62.28 62.60 62.43 62.29 62.54 64.24 66.29 67.33 67.23 67.77 68.24 68.01 71.00 73.64 73.70 73.16 72.46 72.01 72.09 72.87 73.98 74.57 73.53 72.84 72.16 72.13 71.75
72.54 73.03 73.78 72.59 71.89 72.21 72.52 72.08 71.83 71.42 71.03 70.18 70.81 70.03 68.83 68.09 67.37 64.37 63.60 63.07 62.43 63.97 64.76 66.75 67.98 67.43 69.53 68.64 69.22 73.37 73.73 72.25 71.37 70.25 69.80 70.51 71.57 72.79 73.81 74.24 74.03 73.31 72.67
73.29 73.51 74.61 73.07 73.05 72.68 72.78 72.56 71.56 71.82 72.22 71.57 71.12 70.52 70.88 69.13 69.28 66.40 64.50 62.20 60.61 61.60 63.70 64.73 64.95 67.35 67.16 68.81 70.62 72.54 71.40 70.57 70.23 69.18 68.17 68.31 69.08 70.08 71.05 71.85 72.39 72.32 72.49
72.45 72.58 74.13 72.87 73.01 72.95 72.58 72.21 71.20 71.01 72.10 71.67 71.78 70.32 70.80 71.01 69.14 67.84 67.05 64.63 62.27 59.07 59.80 64.47 65.41 68.53 68.44 67.66 69.82 70.52 70.79 69.84 69.70 69.02 67.64 67.01 67.20 67.87 68.75 69.42 69.99 70.25 70.43
71.65 72.01 74.15 72.96 72.58 73.36 72.88 72.35 71.36 71.38 71.33 70.83 71.37 70.61 70.08 70.56 69.60 69.14 69.51 65.88 64.79 62.29 60.65 64.40 65.41 66.72 70.51 70.68 71.18 70.94 70.10 70.35 69.34 68.22 67.39 66.59 66.69 67.03 67.48 67.69 67.97 68.24 68.89
71.42 72.02 73.73 73.31 73.06 73.18 72.44 72.28 71.24 71.08 71.33 70.68 70.69 70.41 70.50 71.10 70.12 69.46 70.73 70.54 68.81 65.94 63.45 64.59 66.07 68.70 69.49 69.42 69.39 69.63 71.11 69.94 70.59 68.71 68.18 67.57 66.70 66.56 66.67 66.82 66.63 66.89 67.10
71.54 73.25 73.81 73.76 73.68 73.88 72.52 72.15 71.12 71.84 71.77 70.91 71.02 70.94 71.35 73.19 71.30 70.17 70.63 70.15 69.35 69.48 67.22 66.33 66.46 67.36 67.93 69.73 70.74 70.62 72.49 73.84 72.72 72.00 68.57 67.15 66.41 65.86 65.42 64.98 64.65 64.56 64.42
70.51 73.20 73.53 73.71 73.71 73.70 73.72 73.41 72.62 71.50 71.66 72.30 71.45 71.17 71.44 71.72 71.15 70.20 70.43 70.56 69.87 70.39 69.12 68.26 69.23 69.10 70.74 71.29 70.85 70.56 70.57 71.18 73.25 72.27 69.31 68.08 66.92 65.96 65.13 63.81 62.85 61.87 60.58
70.42 70.95 73.41 73.58 73.63 73.50 73.13 73.48 73.49 72.57 71.72 71.96 72.33 71.87 71.97 72.10 71.70 71.67 71.67 71.44 71.41 71.21 70.33 69.36 68.87 69.05 69.66 71.04 70.01 69.67 69.76 69.56 70.51 73.56 71.84 69.74 68.39 69.14 68.56 67.18 66.50 65.38 61.89
70.63 72.02 71.92 73.21 73.41 73.47 73.62 72.71 72.86 72.59 72.12 71.96 72.47 73.05 73.20 73.07 71.73 71.54 72.88 72.15 71.85 70.89 70.33 70.06 69.59 69.55 70.02 69.75 69.45 69.92 69.05 70.45 70.02 70.12 70.61 71.55 72.98 74.37 74.39 71.48 71.85 68.72 65.24
71.23 71.31 72.76 72.76 72.93 73.87 69.08 68.45 71.52 72.41 72.52 72.28 72.06 72.23 72.74 71.94 71.38 68.95 68.70 69.63 71.95 71.80 71.16 70.79 70.90 71.10 71.22 69.30 69.34 69.03 68.49 67.27 67.27 71.41 71.11 72.84 73.66 73.78 74.08 74.87 69.44 66.29 62.28
68.77 71.37 71.17 72.55 72.86 73.81 66.71 66.52 68.77 72.47 72.39 72.98 72.84 72.82 72.74 74.64 71.41 72.97 68.75 66.71 66.65 67.30 69.22 72.97 71.31 71.18 69.83 70.87 69.84 68.75 69.13 68.89 69.23 72.07 71.68 72.40 72.29 71.57 74.36 74.83 67.09 61.84 60.15
68.89 69.20 72.29 71.57 71.76 73.09 65.95 64.85 67.14 72.34 72.09 71.33 72.74 73.62 73.21 73.16 72.21 71.76 71.74 71.64 71.36 71.12 68.93 68.62 69.54 71.03 71.61 72.06 71.43 72.19 71.36 70.46 71.62 73.27 73.17 69.95 71.84 72.26 73.65 73.63 62.66 61.08 59.92
71.14 69.76 70.30 72.79 73.14 72.91 64.28 63.95 65.49 71.70 72.19 71.85 71.47 72.16 73.19 73.11 68.84 65.20 71.34 70.89 70.97 71.84 69.58 64.69 65.11 65.28 64.80 64.78 67.44 69.79 70.46 69.84 69.61 69.66 70.15 70.56 71.50 71.12 71.82 70.72 64.22 60.60 58.63
72.40 72.41 71.41 71.39 69.44 72.82 65.27 62.61 64.12 72.46 70.73 71.13 71.56 71.38 66.02 70.81 64.96 62.86 70.40 71.26 70.22 71.26 70.62 69.12 69.52 66.65 64.32 67.56 64.62 68.19 70.98 69.12 69.16 67.81 71.79 72.50 70.09 71.26 71.13 69.23 64.66 61.15 59.84

GFSMA_sfc_wetblb_075.txt.gz
Wetbulb
69.55 70.03 70.33 69.34 69.53 70.64 69.98 69.26 69.30 69.40 69.54 69.80 69.69 70.11 70.20 70.47 71.21 72.34 72.16 75.32 75.94 75.18 74.32 74.29 74.48 73.53 73.52 73.52 73.17 73.08 72.05 71.41 71.81 73.40 72.66 72.15 72.80 73.08 72.73 72.78 72.78 72.54 72.94
69.92 70.54 69.52 68.51 69.01 69.70 69.97 69.73 69.21 69.60 69.13 68.51 68.82 69.43 69.82 70.57 71.55 71.99 72.02 72.54 75.64 75.64 74.70 74.71 74.32 74.15 73.72 74.11 73.04 73.00 73.07 71.82 72.14 72.52 72.23 72.04 71.83 72.10 72.81 72.58 72.41 72.42 72.57
70.16 69.97 69.08 67.53 68.27 69.70 69.61 69.74 69.67 69.93 69.22 68.56 68.08 69.12 69.46 70.13 70.96 71.57 71.62 71.83 73.02 75.18 74.75 74.57 74.51 74.27 73.91 73.61 73.65 73.03 73.14 73.58 72.79 71.86 72.21 72.05 72.62 73.31 73.39 73.17 72.54 71.90 71.81
72.00 69.26 69.65 69.17 69.32 69.03 69.19 68.34 69.15 68.90 67.66 67.89 66.55 67.54 67.78 68.89 69.59 70.17 70.57 71.42 71.98 73.17 74.21 75.47 75.43 75.00 74.07 73.94 73.57 73.16 73.36 73.21 73.18 73.70 73.91 74.01 73.96 73.76 73.64 73.44 72.67 71.91 71.29
71.78 70.03 69.12 69.66 70.12 69.77 68.25 67.43 68.88 67.56 66.65 67.06 66.55 67.20 67.37 67.52 67.41 69.20 69.19 70.20 70.75 71.74 70.68 73.49 76.16 76.27 74.80 73.92 73.80 74.00 73.99 74.58 75.16 74.64 74.28 73.86 73.66 73.84 73.47 73.32 72.75 72.05 71.39
72.15 70.52 69.41 69.83 70.52 69.09 69.25 67.07 67.31 66.87 66.33 66.50 67.35 66.83 67.05 67.62 67.97 67.65 68.14 69.25 68.73 69.35 68.98 69.53 70.01 72.52 74.86 74.07 75.30 75.03 75.30 75.47 75.46 74.86 74.69 74.66 74.53 74.23 73.78 73.46 72.89 72.30 71.61
71.84 70.53 70.46 71.10 69.90 67.05 68.29 67.43 66.76 65.27 65.41 65.70 64.32 64.30 64.38 66.56 66.51 67.34 68.29 69.18 69.75 69.32 69.54 69.10 68.65 69.82 70.66 74.19 75.34 75.69 75.58 74.72 75.23 75.37 75.41 75.33 75.14 74.46 74.05 73.41 73.01 72.38 72.02
70.85 71.03 70.87 71.09 69.80 67.17 69.03 68.79 66.01 64.38 64.34 64.92 63.49 61.56 60.03 60.85 63.53 65.86 66.47 67.87 68.70 70.12 70.50 70.49 70.25 70.18 70.03 69.97 71.25 74.06 75.49 75.42 74.80 74.54 75.40 75.31 75.12 74.30 73.64 73.04 72.58 72.36 71.96
70.24 70.96 71.10 71.22 69.41 68.16 69.03 67.44 66.48 64.09 62.96 64.78 65.21 63.22 58.63 57.47 60.32 62.98 62.74 65.57 66.84 66.96 68.69 70.27 70.67 70.58 70.07 69.35 70.83 71.83 74.46 74.60 75.09 74.23 74.69 75.28 75.08 74.40 73.83 73.10 72.47 72.06 72.27
71.53 71.75 71.82 71.50 70.50 70.00 68.91 68.48 68.93 65.59 63.67 63.31 66.96 67.35 63.05 61.61 60.75 56.95 60.19 62.78 64.54 66.06 65.64 67.49 69.39 70.04 70.29 69.87 71.54 72.55 73.08 73.35 74.68 74.93 74.32 75.14 75.14 74.98 73.84 73.24 73.05 72.53 72.32
72.52 72.84 72.04 72.03 70.45 69.85 69.60 70.22 69.74 67.18 65.58 65.05 65.85 63.74 64.77 63.71 63.31 59.90 59.60 60.17 64.22 65.30 65.50 66.53 66.90 67.05 68.11 69.14 69.23 70.46 73.15 73.41 73.35 74.28 74.41 74.53 75.08 75.30 73.99 73.64 73.27 72.87 72.08
71.93 72.45 72.67 71.68 71.73 70.63 69.95 70.05 70.05 69.76 68.77 68.08 67.82 66.88 63.85 61.48 60.86 61.65 60.71 61.36 61.20 63.33 64.78 66.12 66.31 66.72 67.57 67.47 69.87 72.76 73.37 73.26 72.82 72.68 72.79 72.99 73.62 74.40 74.12 74.39 74.28 73.71 72.85
70.95 71.96 71.99 71.68 70.96 70.70 70.64 70.01 70.42 69.91 69.75 69.07 69.22 68.40 66.16 66.15 66.60 63.39 62.45 62.13 61.35 63.04 64.15 65.26 66.68 66.68 67.95 67.64 68.06 71.75 72.76 72.01 71.44 70.48 70.45 70.98 71.62 72.27 73.22 74.21 74.97 74.94 73.84
71.80 72.23 72.86 72.60 71.88 71.42 71.78 71.11 70.81 70.84 71.11 69.73 69.74 70.01 69.82 68.67 68.42 65.60 63.29 61.32 59.58 60.14 61.82 64.43 64.95 66.00 67.28 67.45 69.21 71.88 69.93 70.16 69.76 68.98 68.75 69.02 69.46 70.02 70.43 71.31 72.27 72.97 73.27
72.51 72.31 73.48 72.71 72.21 72.03 71.72 71.22 70.76 70.46 70.89 70.64 70.42 69.60 69.43 69.93 68.80 67.03 66.96 63.10 61.25 58.40 58.80 62.79 64.61 67.19 67.74 68.40 68.55 68.09 68.57 69.84 69.36 68.71 68.00 67.97 68.01 68.42 68.62 69.02 69.38 70.02 70.26
70.78 71.59 73.05 72.15 71.57 72.03 71.80 71.27 70.49 70.32 70.24 70.36 70.72 70.22 69.39 69.50 69.12 67.72 68.96 64.83 63.41 61.09 59.77 62.54 64.50 65.63 67.89 70.28 70.88 70.08 69.88 70.26 69.39 68.31 67.75 67.02 67.27 67.69 67.91 67.91 68.09 68.11 68.57
70.72 70.75 72.38 72.41 70.84 71.83 71.91 71.10 70.62 70.50 70.28 70.13 69.42 69.54 69.27 69.40 69.80 68.72 69.06 69.19 67.57 64.99 62.87 64.92 64.57 67.65 68.56 68.16 69.67 70.18 70.80 70.72 70.53 68.68 68.16 67.65 66.74 66.67 67.01 67.05 66.76 66.85 67.16
69.87 71.21 71.42 72.34 71.94 71.89 71.96 71.37 70.98 71.54 70.19 69.86 70.37 69.72 69.80 71.42 70.39 69.68 69.10 68.86 68.24 67.95 66.70 65.34 66.12 67.46 68.13 69.65 70.72 70.69 72.58 72.99 71.83 71.32 68.69 67.91 66.96 66.33 65.37 64.90 64.48 64.25 63.76
69.46 70.76 71.95 72.19 72.10 72.33 72.16 71.65 71.30 70.75 70.59 70.76 70.86 70.38 70.19 70.07 69.72 69.71 68.99 69.10 69.35 69.57 68.23 67.03 68.34 68.83 69.64 70.14 70.19 70.67 70.47 70.71 72.23 71.41 69.10 67.77 67.33 66.90 65.96 65.28 64.20 62.85 61.22
69.18 69.92 72.06 72.51 72.76 72.83 72.96 72.70 71.95 71.35 70.66 70.97 71.47 71.38 71.06 70.83 70.38 70.00 69.98 69.75 69.91 69.49 69.76 68.93 68.00 67.78 68.47 70.09 69.64 69.13 70.43 69.61 70.99 72.52 71.58 69.20 68.21 68.96 68.21 66.48 66.16 65.57 60.64
69.18 69.38 70.49 72.19 72.43 72.95 73.12 72.64 72.96 72.60 72.21 71.25 71.26 71.58 71.45 71.46 70.49 70.00 71.51 70.64 70.54 70.01 69.49 68.81 68.11 68.25 68.86 68.79 68.99 69.13 68.18 69.29 69.61 69.70 69.87 71.08 72.51 73.95 73.94 70.66 71.13 64.21 60.61
69.33 68.35 69.31 70.28 71.72 73.17 68.50 67.68 71.32 72.24 71.65 71.71 70.99 71.18 71.74 71.18 70.54 68.33 67.98 68.49 70.96 70.61 69.46 68.79 69.02 69.26 69.59 69.20 68.84 68.18 67.12 66.54 68.25 70.50 70.47 71.50 73.10 73.22 72.61 73.34 63.45 61.14 59.80
68.23 68.45 69.12 70.43 70.23 71.88 66.07 65.87 68.10 72.38 71.71 71.51 71.37 71.28 71.05 73.01 70.61 72.15 68.67 66.70 66.52 66.36 68.02 71.38 70.53 70.31 70.13 70.54 68.82 67.08 67.48 67.28 67.60 71.58 70.68 70.91 71.92 70.87 72.67 64.48 61.49 60.41 58.88
68.04 67.67 67.99 69.35 71.01 71.44 65.41 64.10 66.32 71.54 71.51 71.51 71.75 71.88 71.79 71.78 71.44 71.74 71.81 71.34 71.12 70.81 69.11 68.88 70.20 72.20 72.26 72.40 69.78 70.30 69.83 69.15 69.81 71.39 71.79 70.49 70.50 70.79 70.91 61.99 61.30 59.97 58.48
68.85 68.75 68.31 67.97 69.14 70.01 63.94 63.41 64.60 70.30 71.35 71.50 71.42 71.22 72.18 72.35 68.36 64.61 71.12 70.73 70.34 70.80 68.43 64.02 64.72 64.66 63.93 63.53 65.14 68.32 69.10 67.57 68.41 68.72 70.17 70.09 70.03 71.99 71.48 64.52 60.48 59.94 57.64
71.07 70.89 69.66 69.05 67.62 70.61 62.37 61.60 64.05 72.13 71.32 71.58 72.35 71.64 65.14 69.57 64.25 61.68 69.03 70.54 69.56 70.68 70.81 70.01 69.43 66.47 64.33 66.70 63.94 67.55 69.79 68.50 68.38 68.07 69.98 70.46 71.72 71.38 69.78 69.76 62.52 59.71 58.30

GFSMA_sfc_wetblb_078.txt.gz
Wetbulb
71.04 71.15 71.53 70.97 71.44 72.01 71.07 71.12 71.25 71.03 71.50 71.40 71.50 71.53 71.60 72.27 72.69 73.58 74.33 74.48 74.92 74.31 73.51 73.73 73.59 72.78 73.34 73.22 72.97 72.93 72.23 71.49 71.88 73.03 72.23 71.78 72.09 72.34 72.95 72.79 72.77 72.55 73.21
71.17 71.69 71.07 70.23 71.03 72.16 71.64 71.59 71.19 71.60 71.09 70.35 70.76 71.42 71.65 72.15 72.90 73.07 73.88 74.08 74.51 74.34 74.01 73.80 73.76 73.59 73.21 73.62 72.93 73.09 73.24 72.69 72.35 72.45 72.18 72.33 72.11 72.51 73.22 73.08 72.48 72.39 72.34
71.14 71.93 71.48 69.96 70.34 71.69 71.30 71.69 71.59 71.64 70.50 70.39 70.18 71.11 71.60 71.95 72.57 73.12 73.68 73.71 74.35 75.08 74.95 74.39 74.25 73.99 73.64 73.52 73.39 73.37 72.77 73.14 73.27 72.52 72.68 72.71 72.82 73.73 74.25 73.48 72.56 72.22 71.75
72.12 71.07 70.78 70.34 70.88 71.63 71.15 70.56 71.04 71.10 70.10 69.76 69.56 70.00 70.18 71.06 71.78 72.29 72.74 73.11 73.36 74.18 74.36 75.04 75.48 74.82 74.50 73.77 73.70 73.62 73.68 73.85 73.65 73.76 74.23 74.25 74.02 73.70 73.48 73.66 72.91 72.37 71.46
72.87 70.75 71.48 71.37 71.98 72.02 70.67 70.11 70.86 70.09 69.29 69.44 69.10 69.66 69.74 69.69 70.32 70.77 70.94 71.60 72.37 73.56 73.16 73.16 74.75 75.71 75.40 74.87 74.21 74.09 74.27 75.15 75.07 75.00 74.78 74.23 73.98 73.73 73.86 73.43 73.16 72.56 71.85
72.42 71.81 71.67 71.83 72.04 71.86 70.98 69.62 70.55 68.96 69.01 69.17 68.98 68.93 69.39 69.88 69.83 69.46 69.77 70.36 70.95 71.64 72.22 71.68 72.04 72.17 74.48 74.54 74.22 74.65 75.00 75.64 75.90 75.83 75.28 75.25 74.78 74.35 74.37 73.79 73.17 72.81 72.31
72.54 71.34 71.35 70.93 72.02 71.06 70.93 70.05 69.18 68.73 68.44 68.38 68.26 67.55 67.67 69.00 69.39 69.93 70.55 70.81 70.91 71.35 71.31 71.44 71.14 71.30 71.39 72.64 73.96 74.62 74.75 75.21 75.54 75.71 75.70 75.42 75.54 75.20 74.45 74.08 73.22 72.53 72.46
72.51 72.13 72.01 72.55 71.58 69.49 71.29 71.00 69.64 67.51 67.45 68.13 66.71 64.94 64.03 65.38 66.35 68.50 68.89 69.69 70.38 71.58 72.31 72.50 72.44 72.51 72.56 72.60 72.93 73.38 74.38 74.90 74.98 75.20 75.30 75.18 75.50 75.28 74.60 73.66 72.80 72.67 72.61
72.46 72.09 72.26 72.34 71.23 70.46 70.53 70.80 69.19 68.66 67.22 67.89 68.35 66.84 63.64 62.35 63.24 67.17 67.11 67.66 69.22 69.82 70.84 71.52 72.51 73.19 73.30 72.99 73.01 72.98 73.76 74.02 74.88 75.00 75.61 75.19 75.15 75.29 74.91 74.11 73.11 72.39 72.31
72.39 71.88 72.87 72.84 72.19 70.87 71.22 70.74 69.88 69.04 68.40 67.25 69.31 69.00 66.69 66.02 64.71 63.79 65.60 66.11 67.73 68.14 69.61 70.07 70.64 71.75 72.87 73.14 73.16 73.76 73.60 73.31 73.87 74.45 75.49 75.92 75.15 75.35 75.68 75.00 73.87 72.96 72.39
73.25 72.77 73.36 73.10 72.37 71.75 71.87 72.31 71.12 69.91 68.77 68.62 68.75 67.28 68.43 66.77 66.35 64.16 64.05 66.07 67.96 69.10 69.32 69.28 70.10 70.69 71.46 71.87 72.05 72.36 72.60 72.77 73.20 74.18 74.65 75.43 75.48 75.40 75.36 75.42 75.10 74.18 73.70
73.07 73.24 73.11 72.76 73.00 71.88 71.90 72.35 72.88 71.25 70.89 70.59 70.18 69.56 68.73 66.92 66.03 65.86 64.48 65.83 65.24 68.23 68.76 69.84 69.93 70.33 70.80 71.08 71.43 72.54 72.99 72.71 72.47 72.73 73.10 73.84 74.60 74.90 74.94 75.15 75.70 75.68 75.40
71.88 72.96 73.60 73.09 72.71 71.97 72.45 72.48 72.59 72.55 72.23 71.67 71.97 71.24 69.06 69.44 69.80 67.15 66.25 65.92 65.37 67.51 68.62 69.64 70.05 70.58 70.91 71.66 71.60 71.84 72.46 71.16 70.79 70.09 70.01 70.84 71.73 72.71 73.58 74.23 74.75 75.07 75.68
72.25 73.53 73.65 73.52 73.09 73.30 73.02 72.50 72.31 72.20 72.40 72.10 72.19 72.79 72.27 71.46 71.08 69.22 68.01 66.19 65.91 65.19 66.09 69.69 71.04 71.14 71.42 71.95 71.97 72.20 72.64 69.77 69.32 68.49 68.29 68.81 69.32 70.00 70.74 71.42 71.82 72.31 72.79
72.96 73.35 74.02 73.82 72.95 72.31 73.13 73.17 72.41 71.94 73.06 73.41 72.66 72.47 71.88 72.21 71.94 70.79 70.51 67.52 66.89 65.07 65.35 68.45 69.52 71.78 72.30 73.73 73.33 73.87 73.44 70.81 69.10 68.68 67.99 67.65 68.15 68.68 69.13 69.42 69.59 69.62 69.80
72.44 73.56 73.90 74.32 73.48 72.96 72.56 72.77 72.66 72.77 72.62 72.51 72.52 72.72 72.65 72.45 72.11 71.20 71.03 68.59 67.23 66.44 65.88 67.18 69.62 70.24 72.15 73.53 73.98 75.13 74.75 70.99 70.22 68.67 67.88 67.68 67.76 68.21 68.48 68.66 68.51 68.38 68.53
72.16 72.40 73.39 74.12 73.75 72.63 72.72 72.49 72.52 72.93 72.33 72.44 72.39 72.34 72.28 72.36 71.89 72.06 71.32 71.79 70.48 68.03 68.02 70.39 68.64 71.52 73.13 73.98 75.56 75.66 75.38 75.99 75.41 69.93 68.91 68.19 67.18 67.14 67.40 67.54 67.08 66.84 66.95
72.06 72.50 72.75 73.44 73.75 73.22 73.16 73.19 72.13 73.28 72.18 71.91 72.43 72.14 72.07 72.12 72.43 73.23 72.34 72.08 71.55 71.29 70.41 69.93 70.90 71.37 73.09 74.59 74.82 74.85 75.37 75.75 75.57 71.94 68.44 67.25 66.67 66.42 66.04 65.51 64.92 64.44 63.63
70.82 71.66 72.55 72.54 73.07 73.33 73.32 73.47 72.93 73.10 72.90 72.71 72.52 72.36 72.67 72.54 72.39 72.42 72.53 72.05 71.94 72.04 71.50 70.55 71.01 73.05 73.31 73.47 74.56 75.39 75.45 75.67 75.08 71.65 69.06 68.41 67.32 66.87 66.22 65.03 63.73 62.11 60.00
70.26 70.73 71.85 72.61 73.26 73.54 73.67 73.59 73.29 72.93 72.83 72.87 73.12 73.10 73.37 72.94 73.16 73.21 72.58 72.75 72.77 72.23 72.48 72.08 72.07 71.81 72.21 73.78 73.53 72.66 73.71 75.15 73.94 74.51 72.91 70.17 68.49 68.95 68.20 66.30 63.73 61.04 58.40
70.13 70.67 70.99 72.39 73.28 73.70 73.43 73.71 73.67 73.22 72.91 72.66 72.97 73.12 73.45 73.20 70.47 71.45 73.48 73.84 73.19 72.68 72.71 72.31 72.27 72.17 72.76 72.75 72.97 73.81 72.30 72.96 73.58 74.21 74.02 75.61 75.97 76.30 76.25 70.86 64.18 61.77 59.44
69.92 69.72 70.24 71.27 72.39 73.31 68.55 67.77 72.01 73.58 73.74 73.48 73.24 73.61 73.92 71.51 71.20 67.63 67.16 67.87 72.20 74.05 73.44 72.65 72.91 71.84 73.07 73.02 73.90 72.72 71.98 71.24 70.54 75.18 73.80 73.95 76.16 75.73 75.32 68.51 61.62 60.17 59.13
69.77 69.30 69.61 70.12 70.88 72.24 65.88 65.97 67.80 73.73 73.48 73.50 73.63 73.59 73.06 73.40 71.42 74.21 69.54 66.55 66.71 65.96 68.50 74.42 73.20 73.36 73.41 74.55 74.50 73.47 72.51 71.19 71.27 74.16 73.78 72.61 75.60 74.83 73.33 64.66 60.64 59.60 58.58
68.55 68.96 69.38 69.92 70.05 70.77 64.22 64.35 66.44 72.74 73.31 73.33 73.23 73.36 73.18 73.56 73.32 73.45 73.73 73.51 73.73 73.93 72.59 70.81 72.24 73.98 74.95 75.65 75.12 74.48 73.27 72.49 73.18 74.04 74.87 71.65 75.15 74.15 66.67 64.95 60.66 59.67 58.10
68.11 68.46 68.98 69.06 69.87 70.34 62.34 62.42 65.01 72.04 72.32 72.91 73.31 73.48 73.58 73.28 68.49 64.43 73.27 73.24 73.49 73.68 69.37 64.32 65.66 65.57 64.84 64.08 66.97 71.28 71.14 71.23 70.72 72.15 74.64 73.83 73.87 74.03 74.74 66.89 61.88 59.58 57.42
69.80 69.36 69.12 69.22 66.53 69.48 62.19 60.63 63.28 70.92 70.45 71.23 72.81 73.44 65.32 70.86 64.18 61.47 71.78 72.88 72.08 72.61 73.73 73.65 73.09 68.49 65.27 68.89 62.90 69.84 71.87 70.60 71.50 71.70 74.39 73.42 73.94 73.46 75.07 71.16 64.71 62.18 62.39

GFSMA_sfc_wetblb_081.txt.gz
Wetbulb
74.58 74.84 75.00 74.48 74.85 74.87 74.72 75.23 74.97 75.16 75.09 75.25 75.63 74.91 74.50 73.81 74.09 74.78 75.42 74.77 74.49 74.41 73.91 73.73 73.55 72.88 73.29 73.25 73.12 73.16 73.37 72.14 72.17 72.88 72.62 72.46 72.38 72.31 72.82 73.51 72.58 72.59 72.51
74.94 74.09 74.09 73.87 75.07 76.43 76.13 76.01 75.24 74.94 74.43 74.81 74.68 74.86 74.84 74.63 74.75 74.83 75.04 75.44 74.22 74.06 73.89 73.91 73.94 73.90 73.65 74.03 73.51 73.11 73.10 73.44 73.23 72.88 72.32 72.55 72.66 73.03 74.29 73.65 72.76 72.30 72.01
75.52 75.94 75.04 74.28 75.16 76.21 76.08 76.40 76.21 75.94 74.37 74.37 74.48 74.82 75.57 74.47 74.27 74.68 75.36 75.57 76.00 74.87 74.78 74.34 74.21 74.35 74.14 73.77 73.89 73.91 73.51 73.17 73.33 73.19 73.55 74.12 74.14 74.19 73.72 73.64 73.40 72.55 71.79
75.59 76.48 75.30 74.14 74.81 76.04 75.70 75.88 75.69 74.50 74.05 74.08 73.92 74.40 74.53 74.10 74.25 74.28 75.12 75.35 75.67 74.94 75.19 74.93 75.26 75.14 74.84 74.48 74.09 73.87 73.91 74.19 74.28 74.17 74.31 74.72 74.11 73.89 73.70 73.65 73.40 72.91 72.36
76.38 75.80 75.68 75.35 75.97 75.16 74.92 75.34 74.79 74.84 73.58 73.89 74.13 74.73 74.80 74.73 74.23 73.95 74.09 74.09 74.65 74.62 75.14 73.73 73.87 74.90 75.27 75.33 74.98 74.72 74.75 75.64 75.71 75.72 75.37 74.64 74.52 74.22 74.03 74.13 73.55 73.08 72.66
76.26 75.33 75.79 75.82 76.49 75.05 74.44 74.09 74.99 73.69 74.33 74.18 73.10 73.72 74.86 75.02 74.90 74.39 74.36 74.32 74.75 74.37 74.82 75.20 75.10 74.92 73.18 74.06 74.39 74.52 74.61 75.15 76.32 76.25 75.95 75.65 75.32 74.97 74.60 74.22 73.80 73.13 72.78
76.57 76.17 75.28 75.79 76.09 75.81 75.38 74.49 74.21 73.73 72.95 74.25 73.59 73.21 73.60 73.35 73.91 74.41 74.91 74.78 74.62 74.82 75.02 75.46 75.63 75.53 75.51 73.53 73.47 74.01 74.40 74.93 75.39 76.13 75.95 75.55 75.75 75.76 75.42 74.74 74.24 73.20 72.56
76.73 76.07 76.10 75.97 76.03 74.91 75.40 74.75 74.17 72.38 73.49 74.20 71.96 71.68 67.73 70.26 72.54 73.26 74.23 73.88 73.84 74.65 74.67 75.53 76.04 76.14 76.45 76.06 76.25 74.29 74.40 74.77 75.30 75.51 75.99 75.78 75.43 75.45 75.45 74.76 73.93 73.50 73.11
76.69 76.54 76.32 76.43 76.04 75.44 74.18 75.14 73.75 73.25 71.78 72.76 73.12 71.21 68.07 65.85 69.36 73.05 72.70 73.36 73.41 73.88 74.39 74.94 75.28 75.84 76.35 76.19 76.30 76.18 74.89 73.85 74.07 74.88 75.80 76.30 75.90 75.38 75.35 75.11 74.27 73.50 72.94
76.58 75.47 76.43 76.55 76.23 74.96 75.39 74.96 74.00 73.54 73.71 71.26 73.03 73.59 72.88 71.97 67.77 67.20 72.50 72.42 73.17 73.09 74.54 74.65 74.51 74.91 75.73 75.98 76.68 75.48 74.13 73.79 74.22 74.60 75.24 76.14 76.33 76.18 75.78 75.50 75.09 74.13 73.15
77.06 75.66 76.14 76.84 76.12 75.80 76.10 75.91 75.10 74.66 73.61 72.52 72.51 72.93 73.56 72.96 72.63 69.82 67.65 70.44 74.13 74.22 75.25 75.13 74.69 74.82 75.56 75.99 75.73 75.31 73.59 72.97 73.02 73.74 74.40 74.98 75.60 75.82 76.47 76.48 75.80 75.52 75.01
76.77 77.04 76.66 76.88 77.14 76.47 76.01 76.02 76.80 75.45 74.72 74.73 74.74 75.04 73.59 71.22 71.78 71.56 70.57 70.63 70.81 73.19 74.46 75.13 75.02 75.43 75.80 75.69 75.81 73.76 73.42 72.88 72.44 72.25 72.74 73.08 73.72 73.95 74.69 75.23 75.78 76.34 76.44
74.99 76.81 77.48 76.83 76.69 76.93 76.53 76.57 76.81 76.77 76.10 75.26 75.61 75.19 75.15 74.50 75.16 73.52 72.24 70.56 69.88 72.32 73.39 75.33 75.08 75.84 76.00 76.89 76.62 73.27 73.93 71.56 70.72 69.67 69.69 70.25 71.32 72.16 72.65 73.43 73.80 74.32 74.84
75.59 77.12 77.78 77.56 77.52 77.21 76.88 76.77 75.89 75.85 76.47 76.01 75.84 76.44 76.11 76.27 75.89 74.94 73.21 71.46 69.58 71.09 72.49 72.74 76.31 75.49 75.80 76.88 76.28 73.62 77.46 71.30 69.78 68.50 68.46 68.86 69.62 70.48 71.26 71.73 71.84 72.05 72.28
75.76 76.87 77.32 77.39 77.72 77.24 77.29 77.01 75.41 75.78 76.57 76.38 75.97 76.38 75.66 76.05 76.30 76.11 75.22 74.09 71.71 67.55 68.36 72.03 71.73 75.71 76.11 77.15 77.13 78.51 78.50 72.38 70.32 69.50 68.38 68.47 68.76 69.29 69.72 70.03 70.14 70.05 70.17
76.72 76.44 76.94 77.17 77.33 77.38 77.14 77.03 76.03 76.53 76.48 75.99 75.87 76.53 76.32 75.62 75.69 75.73 74.69 74.34 73.36 71.74 68.84 73.02 73.32 75.33 76.79 77.08 77.43 78.55 78.22 73.08 72.18 69.98 69.07 68.10 67.94 68.16 68.58 68.96 68.88 68.75 68.66
76.81 76.83 77.19 77.11 77.36 77.03 77.43 77.18 76.89 76.36 76.21 76.09 76.43 76.08 76.02 76.89 75.05 75.00 75.34 74.78 73.89 73.20 70.70 72.06 74.84 76.10 77.21 77.98 78.26 78.94 78.02 77.99 76.88 71.18 69.30 68.10 67.05 67.14 67.58 67.44 67.15 67.13 66.91
76.44 76.78 77.22 76.99 77.19 77.17 77.35 76.71 76.38 76.11 75.84 75.64 75.86 75.99 75.51 75.10 76.04 76.61 75.44 76.19 75.54 75.82 73.44 72.80 75.49 74.94 76.72 78.07 78.22 78.39 77.56 76.84 78.21 73.06 68.91 67.35 66.89 66.61 65.79 65.25 64.85 64.03 63.31
75.42 75.66 76.55 76.68 76.91 77.00 77.16 77.18 77.20 76.59 76.58 76.44 75.96 75.88 75.83 76.16 75.93 75.66 76.17 75.37 75.33 75.60 75.60 74.11 73.86 75.45 76.24 76.93 77.17 77.91 77.64 78.29 77.34 72.84 69.61 68.91 68.49 67.33 66.01 63.95 61.11 59.57 58.29
74.63 74.56 75.55 75.86 76.52 77.41 77.20 77.08 77.00 76.96 76.97 76.86 76.74 76.57 76.46 76.33 76.32 77.32 76.46 76.79 76.39 75.69 75.54 74.61 74.04 74.42 75.10 76.74 76.79 74.53 74.24 75.29 76.00 77.18 74.56 72.09 69.54 70.01 67.17 62.00 61.71 60.39 58.22
74.11 74.72 74.83 75.08 75.68 75.75 75.86 76.89 77.00 76.78 76.60 76.58 76.83 76.83 76.65 75.53 72.19 73.37 75.81 76.58 76.84 75.77 74.87 74.25 73.55 73.81 73.68 73.77 74.08 74.65 73.75 74.82 76.65 76.79 76.29 76.33 77.59 78.63 77.57 66.72 64.08 61.15 59.32
73.95 74.12 73.97 74.36 74.75 74.18 68.11 67.75 74.11 76.55 76.81 76.52 76.10 76.75 77.08 73.03 72.31 68.06 67.62 68.21 72.66 75.94 75.08 73.76 72.84 72.78 74.58 75.02 74.88 74.31 73.79 73.18 71.26 75.91 76.30 75.22 77.81 77.84 78.56 73.79 60.82 60.27 59.28
74.27 73.69 73.80 74.16 74.81 75.83 65.49 65.63 68.24 75.69 76.43 76.80 76.80 76.78 76.37 76.23 74.10 77.06 69.73 66.53 66.97 65.90 68.13 75.66 74.68 74.89 75.13 76.08 76.63 75.93 75.71 74.69 73.80 75.48 76.37 74.03 77.58 77.00 78.10 66.92 60.53 59.67 58.43
73.15 73.55 73.28 74.28 74.57 74.61 64.59 63.73 66.19 75.11 76.44 76.71 76.99 77.25 77.08 77.06 76.93 76.33 76.65 76.30 76.44 76.72 76.03 74.14 75.16 76.27 77.22 77.72 77.99 77.34 76.66 76.16 76.02 75.88 78.05 73.62 77.04 76.62 76.64 70.22 60.52 59.47 58.35
72.56 72.46 72.94 73.50 73.88 74.39 62.86 62.20 65.66 73.92 74.42 76.52 77.16 77.22 77.25 77.06 71.06 65.41 75.44 75.44 75.86 76.21 70.94 66.21 66.77 66.19 65.90 64.97 68.49 75.09 73.89 73.21 72.12 72.86 76.64 75.46 76.33 76.31 77.58 76.38 68.34 59.51 57.23
73.03 72.96 72.60 73.69 69.97 74.25 64.77 60.19 63.65 72.20 72.99 73.05 75.55 77.20 66.83 73.36 65.37 61.98 74.25 75.02 74.45 74.86 75.23 75.61 76.37 71.82 67.48 72.14 63.67 72.88 75.07 73.13 72.52 72.09 76.65 75.04 75.19 76.46 74.38 76.97 73.04 69.62 67.53

GFSMA_sfc_wetblb_084.txt.gz
Wetbulb
74.85 74.68 74.66 74.87 75.35 75.87 75.68 75.94 76.32 76.55 76.42 76.14 76.05 75.15 73.03 73.12 73.41 73.99 74.35 74.76 74.58 74.67 74.05 73.93 73.89 73.05 73.40 73.63 73.07 73.20 73.87 73.29 73.09 73.06 72.77 72.80 72.92 73.06 73.87 74.67 72.98 72.63 72.19
75.66 75.26 75.51 75.42 75.99 76.97 76.46 76.58 76.56 76.06 75.74 75.76 75.81 75.65 74.74 74.57 74.53 75.23 73.76 74.65 74.63 73.94 73.74 73.89 73.79 73.65 73.67 73.65 73.63 73.51 73.10 73.09 73.34 73.53 73.35 73.76 73.97 74.05 73.97 73.97 73.60 72.82 71.99
77.25 76.67 75.63 75.87 75.99 77.22 77.94 77.59 77.68 76.40 74.84 75.03 75.58 75.49 74.93 75.02 74.87 75.33 76.20 75.60 75.35 74.59 74.83 74.37 74.12 74.08 74.08 73.81 73.74 74.06 74.19 73.84 73.95 74.25 74.15 74.55 74.47 74.07 73.87 73.68 73.50 73.38 72.66
77.47 77.65 75.92 75.69 76.52 77.29 76.99 76.83 77.10 74.32 74.27 74.29 74.57 74.62 74.68 74.66 74.87 75.24 76.07 76.63 75.71 75.61 74.55 74.63 74.82 75.18 75.04 74.83 74.67 74.45 74.09 74.20 74.67 74.87 74.97 75.41 74.65 74.28 74.11 74.11 73.82 73.37 73.00
77.76 77.45 76.14 76.11 77.31 76.44 76.65 76.30 75.62 75.83 73.97 73.88 73.57 74.25 74.92 74.70 75.22 74.46 75.52 76.43 75.59 76.18 75.79 75.20 73.83 74.40 74.89 75.16 75.38 75.07 74.78 75.18 75.86 75.50 75.52 75.25 75.04 74.89 74.47 74.27 74.19 73.55 73.18
77.24 77.27 76.76 77.04 76.71 75.65 75.61 75.79 75.91 75.76 74.96 74.58 72.48 72.95 75.08 75.45 76.30 76.30 75.41 75.19 76.04 76.63 76.74 77.25 76.96 76.03 74.84 74.09 74.17 74.62 74.74 74.83 75.45 75.92 76.45 76.32 75.92 75.65 75.52 75.07 74.29 73.55 73.23
77.76 77.88 76.66 76.12 76.70 75.82 76.55 76.48 75.86 74.87 73.41 75.43 72.55 71.83 72.26 73.34 73.92 75.46 76.06 76.12 75.31 75.92 77.14 77.84 76.98 76.33 76.11 75.14 74.81 74.68 74.79 75.04 75.17 75.60 76.41 76.47 76.05 75.82 75.46 75.43 75.07 74.53 73.89
77.39 77.53 77.55 75.70 76.43 75.46 76.81 76.71 76.07 73.67 73.79 75.25 71.07 70.52 68.51 69.93 71.94 73.64 74.78 74.91 75.15 76.15 76.65 76.36 77.51 77.90 77.26 76.47 76.61 75.52 75.42 75.28 75.58 75.72 76.55 76.52 76.32 76.07 75.29 74.86 74.74 74.59 74.27
77.90 77.77 77.29 78.12 77.39 76.91 74.72 76.81 75.98 75.12 72.07 74.98 74.92 71.84 68.38 66.49 70.17 72.41 73.19 73.51 74.90 75.28 76.07 76.63 76.74 77.26 78.35 77.17 77.11 77.48 76.20 75.04 74.85 75.36 75.91 76.57 76.40 76.20 76.05 75.29 74.66 74.50 74.22
77.88 78.04 78.21 77.99 78.33 77.02 76.92 76.70 75.96 75.87 75.56 71.15 73.85 74.86 75.06 73.67 68.66 67.95 71.75 72.20 73.46 73.00 74.32 75.65 75.14 75.70 77.81 76.73 78.21 76.27 75.04 74.40 74.54 74.46 75.06 76.01 76.25 76.20 76.45 76.45 75.74 74.86 74.50
78.25 77.08 77.83 78.08 78.07 76.93 77.41 76.99 76.95 76.41 74.50 73.70 73.25 73.63 74.87 74.02 74.76 70.77 67.69 69.93 71.76 73.22 74.33 76.03 75.26 76.41 77.37 77.70 77.04 76.85 74.26 73.17 73.15 73.77 74.27 74.32 74.59 74.96 75.61 76.37 76.45 76.25 76.42
77.05 78.29 78.00 78.42 78.32 77.59 77.36 77.21 77.90 77.36 76.41 75.84 74.40 74.35 72.86 71.66 71.13 72.47 70.71 70.79 70.73 72.49 74.59 75.12 75.62 76.22 77.02 77.72 77.29 74.55 74.78 73.55 72.72 72.45 72.30 72.64 73.15 74.10 74.94 75.56 75.83 75.89 76.22
75.61 78.48 78.67 79.04 77.37 77.84 77.60 77.72 77.14 76.82 76.84 75.80 76.25 73.70 75.48 75.01 75.29 74.60 72.51 70.95 71.11 72.62 73.42 74.76 75.94 76.75 76.34 77.60 77.61 75.20 75.74 72.71 71.50 70.33 69.97 70.78 71.77 72.53 73.17 73.82 74.37 74.77 74.99
76.02 77.59 78.80 77.91 77.47 77.75 78.13 78.04 76.15 75.67 76.95 75.76 76.54 77.04 74.95 75.71 76.12 75.77 73.37 71.72 70.69 71.73 72.88 73.45 76.45 76.13 76.01 77.00 76.41 75.88 77.96 72.68 71.39 69.90 69.49 69.79 70.08 70.97 71.48 71.96 72.31 72.39 72.57
76.44 77.79 78.38 76.93 77.47 77.96 78.52 78.61 76.06 77.10 77.14 76.90 76.52 77.05 76.09 74.89 75.60 75.88 75.50 74.47 71.44 68.35 69.70 74.03 72.65 76.26 75.93 76.19 77.00 78.65 78.77 73.40 72.16 71.05 69.63 68.89 68.76 69.53 69.87 70.26 70.49 70.27 70.54
77.49 77.55 78.27 78.26 77.31 78.21 78.47 78.42 77.04 77.70 77.12 75.72 75.60 76.74 77.04 75.14 75.28 75.41 74.95 74.29 73.82 71.43 68.86 71.96 73.77 75.73 77.63 77.59 77.75 78.76 78.99 73.92 73.69 71.96 69.79 68.54 68.31 68.64 68.98 69.08 69.02 69.04 69.02
77.66 78.30 78.49 78.45 77.41 77.76 78.47 78.45 77.65 77.30 76.45 76.49 76.94 77.04 77.29 77.80 75.53 74.32 74.76 74.49 73.54 73.06 70.67 71.72 73.58 75.80 78.05 77.96 78.86 79.62 78.99 78.31 75.94 71.49 70.02 68.94 67.72 67.80 67.83 67.64 67.28 67.35 66.45
77.05 77.97 78.57 78.51 78.10 77.44 78.33 78.27 76.95 76.27 76.61 76.36 76.31 76.90 76.75 76.32 77.18 76.99 74.98 76.54 75.99 75.74 73.25 74.00 75.78 74.12 77.09 78.07 78.72 79.14 78.00 76.99 77.49 73.06 70.16 68.45 67.77 67.33 66.27 65.43 63.67 62.47 61.63
76.78 76.85 77.50 77.87 77.90 77.31 77.86 78.90 78.12 77.55 77.47 77.12 77.25 77.03 76.65 76.88 76.79 75.93 76.15 75.19 75.35 75.66 75.58 73.90 73.09 74.62 75.29 76.53 77.73 79.48 78.41 78.79 76.19 73.00 69.52 68.21 68.65 68.48 64.73 61.42 60.34 59.46 58.35
76.30 76.16 76.67 77.15 77.53 77.75 77.13 77.82 78.32 78.10 77.78 78.04 78.20 77.91 77.50 76.83 77.14 77.49 76.61 76.99 76.99 76.19 76.95 74.70 73.89 73.74 74.63 77.48 76.85 75.16 73.65 74.68 74.69 76.08 74.86 71.99 69.99 67.77 63.58 61.23 61.23 60.24 58.60
76.46 76.44 76.06 76.17 76.64 76.86 76.70 77.02 77.43 78.01 78.39 78.26 78.30 78.46 78.20 76.35 72.34 73.66 76.11 78.26 78.27 76.44 74.60 73.61 73.16 73.37 73.32 73.71 74.92 73.88 73.22 73.59 76.45 75.29 74.82 75.97 75.61 78.71 71.35 64.52 64.54 61.38 59.73
76.40 76.62 76.19 75.87 75.31 74.33 68.65 67.31 74.14 78.05 77.66 77.96 77.50 78.26 78.61 74.19 73.63 69.04 68.67 68.75 72.82 76.69 75.66 73.47 71.80 72.01 76.53 75.40 74.51 73.42 73.04 72.25 71.09 75.60 75.99 74.19 76.12 78.19 79.81 78.91 61.20 60.36 59.28
75.59 76.65 76.06 76.17 76.40 76.53 65.73 64.59 68.19 75.89 76.43 77.53 77.92 77.56 77.36 76.84 75.30 78.04 70.15 67.48 67.68 66.21 67.83 75.82 75.34 75.37 76.35 76.57 77.64 76.49 77.47 75.23 74.34 75.50 76.27 73.94 76.51 77.38 80.72 68.47 60.94 59.95 58.89
75.49 75.54 75.74 76.54 76.55 76.56 65.00 63.86 65.76 75.29 76.48 77.91 78.03 77.72 78.13 78.14 77.24 76.93 77.63 77.21 77.30 77.68 76.41 75.42 75.82 76.52 77.82 78.16 78.49 78.36 78.30 77.72 77.11 76.47 78.91 72.60 75.81 76.62 79.99 76.49 61.35 60.21 59.04
75.37 75.34 75.61 75.98 76.44 76.32 63.51 62.74 66.36 74.57 74.21 76.41 77.76 78.78 79.06 78.68 72.48 65.65 76.75 76.28 76.89 77.15 71.17 66.37 66.97 66.59 65.34 64.67 69.12 75.76 74.06 72.88 71.28 71.52 74.77 73.02 74.22 76.26 77.83 78.12 68.49 60.29 58.50
75.02 74.85 75.11 76.09 72.16 76.21 65.80 60.60 64.84 73.87 73.65 73.34 75.88 78.15 68.20 74.22 66.51 63.20 76.94 77.22 75.99 75.53 74.70 75.67 76.23 72.81 68.98 73.87 65.02 74.66 75.66 73.32 72.21 70.51 74.78 73.90 73.90 75.19 74.54 79.10 78.89 68.59 68.82

GFSMA_sfc_wetblb_087.txt.gz
Wetbulb
74.29 74.46 75.07 75.65 75.93 75.97 75.70 76.95 75.33 75.62 75.35 74.91 74.07 72.83 72.33 73.05 73.50 73.52 73.22 74.98 75.08 74.44 73.98 74.27 73.78 73.07 73.06 73.73 72.95 72.95 73.01 73.06 73.34 73.59 73.55 73.65 73.74 74.03 74.39 74.09 73.59 73.10 72.34
76.98 74.95 75.42 74.62 74.02 74.91 73.83 74.49 74.86 75.40 72.63 74.49 75.17 73.94 73.44 73.34 73.89 74.04 73.90 73.37 74.90 74.67 73.95 73.86 73.48 73.42 73.39 73.26 73.34 73.56 73.90 73.62 73.49 73.85 73.90 74.16 74.58 74.30 73.96 73.73 73.52 73.55 72.66
77.44 77.06 76.26 74.99 75.80 76.65 77.12 76.75 74.86 75.61 73.66 74.73 74.44 74.19 73.66 74.51 74.29 74.55 74.65 74.97 74.60 74.96 74.73 74.68 74.29 73.97 73.92 73.76 73.61 73.83 74.04 74.08 74.17 74.41 74.67 74.87 74.90 74.34 74.04 73.82 73.74 73.16 73.07
77.70 78.26 75.62 75.37 75.84 76.46 75.77 77.54 75.44 74.20 74.17 73.64 73.43 73.18 73.64 74.13 74.70 75.05 74.67 75.59 74.97 75.93 75.30 75.10 74.86 74.96 74.80 74.82 75.05 74.95 74.80 74.64 74.94 74.89 75.03 75.17 74.86 74.54 74.52 74.10 74.08 73.93 73.19
77.29 76.50 74.28 76.28 77.31 74.83 75.58 73.81 74.27 73.54 74.82 74.01 73.22 72.95 73.51 73.19 74.57 73.47 74.15 74.70 74.16 74.88 75.75 75.87 75.31 74.89 75.02 75.40 75.42 75.36 75.04 74.88 75.24 75.51 75.67 75.70 75.19 75.08 75.16 74.77 74.36 73.96 73.54
76.80 78.41 76.69 76.57 77.07 74.43 75.67 74.45 77.29 76.75 72.57 74.28 71.34 72.05 72.74 73.22 73.77 73.60 73.75 74.32 74.80 75.32 75.31 75.95 76.45 75.70 75.80 75.62 75.34 75.00 74.98 75.07 75.56 75.99 76.59 76.83 76.80 76.47 76.07 75.89 75.57 75.19 74.40
77.55 78.26 76.08 76.67 75.86 74.38 76.00 76.05 75.15 75.11 73.28 74.04 71.29 72.61 71.46 72.83 73.33 73.17 74.35 74.43 74.44 74.84 74.90 75.83 76.24 75.82 75.64 76.50 76.15 75.58 75.39 75.64 75.79 76.05 76.79 76.80 76.68 76.55 75.95 75.27 75.07 75.31 75.13
77.55 77.70 77.60 76.18 75.72 75.20 76.72 76.49 75.75 75.26 74.11 73.61 72.73 71.01 67.63 69.55 71.16 72.02 72.78 72.99 73.57 74.52 74.32 75.40 75.03 76.38 76.34 76.31 77.41 76.69 76.73 76.32 76.20 76.38 77.11 76.77 76.68 76.35 76.00 75.39 74.79 74.54 74.76
77.27 77.53 77.26 73.52 77.45 77.02 74.95 77.06 76.19 75.03 69.91 72.00 74.28 71.87 69.44 67.04 69.68 71.96 72.55 72.21 73.42 73.40 74.23 74.38 74.50 75.55 76.70 76.71 77.17 78.07 76.86 76.07 76.16 75.89 76.41 76.75 76.65 76.52 76.22 76.02 75.60 75.30 74.68
77.63 77.50 77.36 77.50 78.33 77.39 76.58 76.68 75.78 77.16 76.05 71.86 71.46 73.00 75.28 74.33 70.07 67.69 70.82 70.83 72.19 72.69 73.31 73.86 73.94 75.01 76.37 76.87 76.82 77.29 76.57 75.47 74.94 74.75 75.01 75.47 75.92 75.97 76.27 76.20 76.04 75.72 75.64
77.68 77.18 77.86 77.95 77.05 76.33 77.88 76.91 77.36 77.13 74.88 73.51 73.04 72.34 74.43 72.06 73.53 70.77 67.75 69.07 71.16 72.37 73.65 74.43 74.34 75.10 76.24 76.84 76.63 75.74 75.09 73.80 73.95 73.76 74.29 74.29 74.72 75.54 75.96 76.72 76.70 76.62 76.57
76.62 77.79 77.73 78.49 78.81 78.08 77.77 76.96 77.89 77.63 77.44 77.21 75.35 74.58 73.56 70.19 71.10 71.92 69.61 71.35 70.33 72.32 73.85 74.22 75.10 75.71 76.39 77.05 76.27 76.10 75.38 74.10 73.12 72.87 72.59 72.71 73.60 74.65 75.31 75.63 75.96 76.31 76.72
75.03 78.31 78.35 78.46 77.50 78.28 77.95 78.31 78.53 77.74 77.09 75.88 77.18 73.70 76.92 72.86 72.97 72.65 72.01 70.23 70.46 71.85 72.96 74.15 75.31 76.19 75.83 76.66 77.59 76.97 77.33 73.89 72.24 71.30 70.95 71.51 72.26 73.07 73.19 73.97 74.50 74.87 75.30
75.93 80.02 78.56 77.95 77.89 77.67 77.51 78.03 76.79 75.68 78.15 75.83 76.88 78.57 76.16 73.43 73.43 73.33 73.63 71.30 70.36 70.15 72.18 74.21 74.88 75.50 75.60 76.01 76.63 76.26 77.69 74.20 72.36 71.61 70.84 70.64 70.75 71.21 71.54 72.23 72.16 72.30 72.55
74.94 77.14 77.74 77.48 77.76 77.94 78.18 78.40 76.36 76.94 77.47 77.06 76.97 77.47 75.96 74.89 73.82 73.40 73.43 72.86 71.02 68.48 69.30 74.29 72.79 76.49 76.60 76.40 77.18 77.73 78.84 74.39 72.72 71.77 70.84 69.82 69.55 69.77 70.42 70.59 70.84 70.56 70.48
77.15 73.67 77.60 77.84 77.73 77.79 77.67 78.28 78.26 78.88 77.40 76.40 75.15 78.66 78.58 74.63 74.87 74.02 73.70 73.34 72.94 71.00 68.61 71.92 72.60 76.14 77.44 77.11 77.64 78.86 78.18 74.36 74.08 73.00 70.98 69.46 69.29 69.68 69.74 69.60 69.51 69.39 68.97
77.55 77.63 78.85 77.70 78.05 77.83 78.11 78.81 79.20 77.76 77.14 77.31 77.67 77.19 78.07 79.69 75.50 73.83 73.98 73.75 72.99 72.67 70.21 71.74 73.33 76.35 80.25 79.50 79.13 79.84 78.86 79.77 77.44 74.09 70.71 69.55 69.18 69.14 68.72 68.58 67.74 66.57 64.85
77.44 77.54 77.64 78.04 77.53 77.88 79.11 78.45 76.83 76.43 76.29 76.06 76.24 76.84 76.36 75.66 78.97 78.81 75.04 78.47 75.75 76.78 73.11 75.08 75.32 73.95 77.47 79.77 80.25 80.96 78.73 77.49 77.70 73.20 69.84 68.58 69.06 68.22 67.32 65.51 63.95 62.26 61.28
77.68 76.66 77.47 78.84 77.09 77.57 78.40 78.57 78.02 77.82 76.83 76.90 76.86 77.19 76.96 77.47 78.08 76.78 78.02 75.07 74.22 75.30 75.90 73.69 73.40 74.37 75.21 76.06 76.96 79.98 80.55 79.48 77.72 73.34 69.45 69.52 69.25 67.35 65.17 62.23 60.94 59.64 58.86
78.07 77.80 78.05 78.79 78.30 77.83 77.56 77.47 77.92 78.19 78.33 77.68 78.02 77.97 77.72 77.38 78.66 78.71 77.48 79.01 77.77 76.71 76.21 73.70 73.07 73.46 74.25 77.88 76.30 74.95 74.66 75.27 74.94 74.94 74.72 72.93 69.84 68.19 64.34 61.46 61.00 60.34 59.01
78.10 78.15 78.29 78.05 78.44 77.07 76.54 78.40 78.33 77.82 78.70 77.78 78.97 78.99 78.91 76.88 72.97 74.57 75.84 78.28 78.78 76.91 74.18 73.11 72.21 72.66 72.72 73.90 74.97 74.41 73.59 74.41 76.57 75.41 74.03 74.85 74.47 75.32 69.57 62.73 64.44 61.62 59.77
78.04 79.21 78.22 78.00 77.61 75.13 68.77 67.60 74.63 77.61 78.50 78.28 77.71 78.96 80.06 74.72 73.87 69.29 68.66 68.84 72.73 77.23 78.17 73.31 71.59 71.41 77.00 74.97 73.48 72.90 73.36 71.99 70.79 76.05 75.48 74.38 75.73 74.76 77.42 76.77 63.15 61.02 60.00
77.05 78.42 78.69 78.32 78.39 78.60 66.86 64.69 67.84 75.93 77.52 78.44 78.92 78.72 78.62 76.36 75.47 78.95 70.68 68.24 68.61 67.09 68.00 76.51 76.76 76.68 76.71 78.43 78.51 78.27 76.25 76.09 74.05 75.31 75.97 74.17 75.70 74.51 77.17 66.26 61.47 60.53 59.56
75.79 77.32 77.16 78.69 78.80 78.50 66.29 63.71 65.44 76.11 76.72 77.69 78.56 79.66 79.30 79.23 79.29 78.44 78.75 77.89 77.54 77.95 76.86 74.88 75.82 76.86 78.09 79.21 79.27 78.48 78.72 79.16 77.84 77.96 78.69 73.35 74.80 74.46 76.78 71.64 61.69 60.39 59.44
76.99 75.87 76.61 77.19 78.17 78.64 65.28 62.72 65.79 75.13 74.47 76.11 77.47 78.30 78.61 79.58 73.33 67.70 77.70 78.05 78.50 78.82 71.77 68.09 69.45 69.16 68.86 67.15 69.77 75.85 73.62 72.21 70.98 72.13 74.75 72.42 73.34 74.30 75.90 74.42 65.95 60.67 59.15
74.88 76.90 76.10 77.15 73.13 77.89 67.55 61.82 64.66 74.85 75.08 74.89 76.85 77.19 68.27 73.28 67.54 63.66 77.45 77.79 76.94 77.51 78.50 76.94 76.56 72.20 69.11 73.32 65.78 73.56 74.83 72.75 71.97 71.54 74.74 72.72 72.72 73.70 72.37 75.81 72.55 65.25 64.68

GFSMA_sfc_wetblb_093.txt.gz
Wetbulb
69.23 71.09 71.35 68.04 70.65 70.84 69.87 70.84 70.51 71.22 73.00 69.87 67.83 69.90 70.74 70.45 70.83 72.31 71.92 75.47 75.61 75.54 74.29 73.75 73.47 73.27 73.08 73.64 72.88 72.97 73.00 73.10 73.21 73.42 73.74 73.99 74.08 74.21 73.70 73.40 72.95 73.04 72.60
69.84 70.70 70.71 70.35 71.17 70.34 67.47 70.81 69.96 70.70 70.87 69.57 67.93 68.71 69.10 70.18 70.36 71.07 71.98 73.19 76.26 76.08 75.62 75.17 74.58 73.99 73.63 73.34 73.46 73.68 74.15 74.18 74.19 74.18 74.41 74.58 74.82 74.97 74.51 73.82 73.63 73.35 73.10
71.69 71.97 70.70 70.21 70.67 70.82 71.68 70.90 70.49 72.01 70.93 70.72 70.44 69.18 68.78 69.22 69.69 70.14 70.89 72.25 74.61 76.09 75.12 75.09 75.28 74.60 74.05 74.06 74.17 74.16 74.79 75.37 74.65 74.83 75.44 75.07 75.17 75.27 74.86 74.49 74.21 73.89 73.99
73.88 73.36 72.11 71.07 71.33 72.03 72.30 69.21 72.09 70.86 68.54 68.58 68.32 68.24 69.93 70.43 70.29 69.25 69.30 70.55 71.77 72.31 75.26 76.53 76.56 75.90 74.90 75.08 75.40 75.52 76.27 76.39 76.12 76.20 76.38 76.20 76.03 76.43 76.20 75.90 75.60 75.33 74.60
73.08 73.07 71.31 71.00 73.03 70.20 70.07 71.11 68.17 69.44 69.66 68.29 69.87 69.90 69.23 69.23 69.92 71.87 70.17 70.36 69.79 70.96 71.52 74.77 76.20 76.19 75.70 76.08 76.11 76.50 77.11 76.82 76.35 76.28 76.45 76.50 76.50 76.63 76.65 76.42 76.07 75.74 75.59
72.34 71.28 71.72 72.77 72.45 70.25 70.46 71.27 69.80 69.10 69.15 67.46 69.83 70.76 68.41 69.40 69.61 69.13 69.40 71.58 70.58 71.35 71.46 71.51 73.11 74.12 76.16 76.45 77.39 77.61 77.50 77.21 76.57 76.45 76.33 76.40 76.38 76.38 76.42 76.09 76.03 75.94 75.74
71.11 69.72 71.76 72.40 73.13 70.48 70.09 70.55 71.80 69.46 70.22 69.27 67.60 68.08 67.43 68.04 68.52 69.42 69.71 69.95 70.26 72.00 72.22 72.16 72.13 72.04 72.58 75.87 76.42 77.15 77.55 77.47 77.54 77.17 76.86 76.48 76.20 76.25 75.99 75.78 75.49 75.62 75.60
72.64 73.36 70.80 72.03 71.51 71.53 71.76 71.92 70.80 69.89 69.66 67.42 66.62 67.32 63.31 64.82 67.37 67.78 68.87 69.89 69.57 70.81 71.61 71.98 72.34 72.62 71.85 71.87 73.03 76.33 76.85 77.05 77.87 77.94 77.70 76.88 76.28 75.99 75.64 75.20 74.86 75.16 75.35
73.93 72.41 73.04 70.74 70.83 70.93 70.36 71.22 69.05 67.69 66.20 69.32 68.49 67.37 64.21 63.33 65.99 66.03 65.91 67.56 66.60 68.87 69.97 70.65 71.87 71.56 71.29 72.83 74.76 75.56 76.75 75.80 76.90 77.72 77.55 76.75 75.93 75.77 75.82 75.68 75.54 75.18 75.16
74.49 74.18 71.04 69.76 72.65 70.84 69.95 71.71 72.78 70.09 68.47 67.34 69.12 70.66 68.32 67.39 64.73 62.38 65.76 65.45 66.91 68.35 67.83 68.87 69.77 71.26 71.38 71.86 75.61 76.17 76.26 76.02 76.10 76.34 76.35 76.67 76.40 76.10 76.43 76.50 75.89 75.48 75.42
74.18 74.78 73.67 72.87 71.47 70.69 70.24 71.11 72.44 71.92 71.94 71.02 68.51 69.89 68.49 69.05 68.10 65.87 62.29 62.76 66.07 67.44 67.84 68.52 69.71 70.66 71.74 72.04 72.84 73.30 76.85 75.40 74.15 74.45 74.90 75.70 76.05 76.27 76.39 76.65 76.53 76.25 76.32
73.18 74.05 74.42 73.19 72.77 70.20 69.26 71.93 71.64 72.39 71.67 71.54 72.47 70.46 67.55 66.52 66.42 67.39 65.06 64.92 63.56 66.78 67.96 69.94 68.51 70.30 71.26 72.46 74.62 74.91 75.51 74.20 73.38 73.36 73.27 73.94 74.85 75.45 75.31 75.66 75.92 76.18 76.43
71.89 72.04 73.45 73.49 73.51 72.19 72.25 72.54 73.21 71.37 72.72 71.14 71.84 72.12 71.83 70.93 68.12 69.56 66.50 67.06 65.60 66.74 67.73 69.14 69.31 70.47 72.59 72.81 72.18 74.94 76.02 74.92 73.03 71.79 71.63 72.30 72.93 73.61 73.80 74.10 74.67 75.07 75.52
71.89 74.33 74.02 74.24 73.95 73.83 73.43 73.59 72.02 72.53 71.74 71.69 70.92 71.54 72.21 71.70 71.04 68.68 67.26 65.68 63.97 64.93 67.35 66.46 69.78 70.94 71.48 72.31 73.89 74.83 73.61 75.33 73.55 71.71 71.28 71.25 71.62 71.78 71.99 72.32 72.60 72.62 72.34
74.54 75.30 74.30 74.45 74.48 74.13 73.31 73.65 72.50 72.72 71.84 71.69 71.20 72.07 71.69 71.89 70.16 70.83 70.45 66.52 65.60 62.22 63.02 66.61 70.28 71.02 71.97 73.74 74.36 73.60 72.49 74.14 72.68 71.81 73.25 72.97 70.88 70.83 70.75 70.95 70.97 70.70 69.43
72.19 72.40 72.45 73.18 73.64 74.22 73.50 73.24 72.46 72.53 72.41 72.57 72.59 70.95 71.93 71.91 71.30 71.37 71.39 69.96 68.99 66.11 63.32 66.87 67.32 71.99 73.52 73.37 73.95 72.56 72.76 73.60 72.65 72.11 73.32 72.46 70.13 70.35 69.93 70.14 70.09 69.00 66.99
72.02 70.79 69.78 69.92 70.49 72.66 73.74 73.12 72.58 72.13 71.31 71.68 72.25 72.02 71.13 71.86 71.40 71.66 72.41 71.23 70.32 69.47 66.01 67.65 70.96 70.72 69.27 68.75 70.04 71.30 73.89 74.11 73.88 72.31 73.32 71.52 69.92 70.65 69.38 69.57 68.48 66.58 65.09
71.80 70.64 67.07 65.65 67.56 72.21 74.05 73.47 72.70 73.14 71.60 71.37 71.86 71.91 71.33 73.24 71.54 72.66 71.09 70.93 71.08 69.64 68.00 65.58 67.37 68.37 69.60 70.61 71.02 72.72 75.36 76.11 74.25 75.39 74.06 72.78 69.89 69.86 67.55 67.24 65.66 64.20 62.33
72.89 72.05 71.40 69.62 72.18 73.27 73.95 73.31 73.08 72.66 72.77 72.55 72.64 72.42 72.53 72.28 71.34 71.31 70.24 71.01 71.02 72.20 71.38 69.87 69.82 70.83 71.23 70.64 70.30 71.07 72.20 74.07 74.31 74.28 71.66 69.34 68.47 67.60 66.19 64.72 62.61 61.24 59.78
74.57 73.83 73.75 73.47 74.49 74.13 73.90 74.39 73.27 72.77 72.70 72.86 73.85 73.87 73.55 72.66 72.01 72.07 71.61 71.17 71.12 70.93 70.73 70.53 69.67 69.40 69.51 71.62 71.39 70.87 68.51 69.54 70.54 72.71 71.61 68.83 68.16 67.97 65.58 63.21 61.72 60.91 58.94
75.14 74.45 73.63 73.90 74.82 74.30 74.73 73.97 73.95 73.61 72.40 72.36 73.10 73.97 74.14 74.35 73.30 72.65 73.60 72.16 71.84 71.26 71.15 70.05 69.42 69.47 68.18 69.03 69.40 70.61 69.66 69.84 68.94 68.54 70.67 70.42 69.68 68.20 66.08 63.52 63.95 63.38 60.21
73.12 73.77 74.11 74.19 73.75 75.28 70.71 69.17 72.59 73.21 74.38 73.10 72.41 73.31 74.00 73.33 72.64 70.03 69.49 70.30 72.59 71.27 69.95 69.91 70.10 69.62 68.70 68.70 70.50 70.32 70.34 69.35 68.12 71.41 70.67 71.70 71.65 72.12 71.56 66.26 65.12 62.93 60.70
72.02 72.34 72.73 72.21 73.30 74.29 68.59 66.72 66.67 70.42 72.92 73.00 73.57 73.11 73.32 75.27 71.94 73.77 69.47 67.28 66.89 66.71 68.44 69.62 68.23 67.96 68.40 69.66 70.32 69.86 69.45 69.96 70.10 72.15 71.34 71.72 72.55 72.06 73.61 69.50 64.12 62.17 60.30
67.91 69.20 71.21 73.23 73.11 73.74 68.03 64.31 66.37 68.50 69.24 70.81 72.95 74.25 73.63 73.06 72.26 72.43 73.76 73.39 71.57 71.44 69.99 68.87 69.69 70.58 70.03 70.54 70.29 71.04 70.49 70.94 72.09 72.75 73.11 70.06 71.19 69.40 70.07 64.48 62.86 61.79 59.81
66.59 67.74 69.36 70.37 72.33 72.14 65.68 63.69 65.09 69.88 69.43 70.27 71.30 72.34 73.49 74.09 70.67 67.13 70.86 70.97 72.53 73.85 70.99 66.69 67.32 67.12 66.46 66.56 68.29 71.60 70.19 68.86 69.13 70.08 68.98 67.50 69.38 66.16 68.81 66.20 61.30 61.03 59.08
64.86 67.26 67.11 69.10 68.41 72.01 66.39 62.64 63.44 69.67 70.98 71.06 71.66 71.40 66.16 69.36 65.63 63.75 70.51 71.76 71.61 72.36 72.31 73.70 70.52 68.01 66.68 69.21 65.46 69.12 71.17 68.88 69.40 69.08 69.90 67.86 66.88 66.92 66.93 68.12 61.76 59.74 58.71